GFSWCAN_sfc_rhum_000.txt.gz
RH
99 99 98 98 98 97 97 97 96 96 96 96 96 95 95 94 95 92 82 74 76 98 77 69 61 62 67 66 92 73 79 90 99 100 100 100 100 83 93 60 80 83 100 100 100 100 98 38 41 69 54 57 49 51
96 99 99 99 98 98 97 96 96 97 97 96 96 95 95 95 95 96 99 84 84 99 92 68 58 53 55 52 59 76 70 63 80 97 100 100 100 100 100 96 63 95 83 80 64 70 44 42 49 48 50 56 56 59
94 96 98 99 99 99 98 97 97 97 97 97 97 96 95 95 95 95 98 98 98 100 99 100 85 64 61 62 56 88 99 67 84 79 99 100 100 100 100 93 88 69 58 85 84 61 49 52 49 48 49 56 52 59
94 96 97 99 99 99 99 98 98 97 97 97 97 96 96 97 97 96 99 96 97 100 100 96 66 67 53 60 61 65 63 66 71 88 100 100 100 94 100 88 92 75 84 93 91 75 56 53 48 49 51 52 55 62
94 93 96 97 98 99 99 99 98 98 98 98 97 97 97 97 98 98 99 98 94 97 100 98 76 63 55 63 69 68 74 78 96 100 100 100 98 97 94 90 96 91 87 94 91 56 62 62 48 44 49 57 62 77
92 95 94 96 97 98 99 99 99 99 99 99 98 98 98 99 99 99 100 99 98 99 100 100 90 85 68 66 66 68 72 89 96 100 100 99 93 99 100 98 68 58 52 49 62 49 50 48 45 44 58 62 61 60
90 92 95 96 96 97 97 97 98 98 98 98 98 98 98 99 98 99 97 97 98 98 100 100 100 91 73 70 68 70 75 94 98 100 100 97 93 99 100 96 60 52 45 44 46 52 60 50 60 56 56 45 44 47
93 92 96 97 96 96 96 96 96 97 97 97 97 98 98 98 95 98 99 98 99 99 100 100 100 99 71 96 99 91 95 98 100 94 97 96 84 100 100 58 44 36 37 41 42 46 54 53 51 38 33 37 42 48
94 96 96 95 95 95 95 95 95 96 96 97 97 97 97 98 100 99 98 99 100 100 100 100 100 100 74 86 92 99 98 100 94 100 95 77 97 98 59 44 41 41 44 46 49 50 46 37 36 38 42 46 53 59
96 94 93 93 93 93 93 94 94 94 96 96 92 95 100 100 94 97 95 100 100 100 100 100 94 99 71 100 100 100 100 100 100 91 76 100 81 52 44 42 43 46 47 50 55 48 48 50 46 50 58 69 90 98
94 94 91 90 89 88 89 87 88 85 81 84 100 100 93 92 98 96 100 100 100 100 99 95 87 90 84 96 100 100 100 100 100 79 96 91 79 50 42 45 43 41 40 39 40 42 42 49 57 65 82 93 99 98
85 87 87 88 89 89 89 86 86 81 81 85 90 89 92 99 100 100 100 100 98 90 86 97 93 83 96 92 100 100 100 100 98 80 98 92 56 47 45 41 43 43 42 41 40 46 52 59 69 83 93 95 97 90
86 86 86 87 87 88 88 89 82 90 86 86 94 100 98 100 97 90 90 96 96 100 99 99 99 100 100 100 100 100 100 99 95 98 87 64 51 43 44 43 42 40 53 69 48 49 61 66 75 96 100 98 99 90
84 84 83 85 85 85 87 91 90 82 77 100 100 95 94 90 86 82 88 100 100 100 100 100 99 100 100 100 100 100 91 94 96 90 86 59 46 43 43 47 52 49 82 83 64 68 100 100 99 90 93 91 91 85
83 82 80 80 82 82 84 90 86 78 90 100 100 90 91 86 92 95 100 99 99 97 100 100 97 95 99 100 99 98 100 92 84 79 80 64 54 54 56 58 56 94 96 83 62 95 100 98 89 87 83 88 90 88
80 79 74 82 79 78 85 84 78 82 100 96 100 91 93 100 100 100 100 100 90 97 94 94 87 88 86 94 96 96 90 67 72 92 68 50 52 54 55 76 86 78 71 64 63 83 88 91 91 79 88 92 92 95
79 74 79 82 82 86 80 70 83 100 92 89 87 93 94 98 96 100 100 94 83 94 98 97 97 80 74 90 90 73 77 81 84 72 56 52 59 61 62 72 93 96 74 68 67 82 87 80 87 84 87 80 89 97
80 67 81 81 78 86 88 89 99 95 86 78 87 91 84 88 99 100 99 93 98 94 74 77 70 92 92 74 63 73 70 70 67 68 54 54 55 60 59 66 68 75 77 88 100 98 78 85 76 59 76 85 94 96
75 68 83 86 78 88 94 100 89 82 75 74 81 82 87 97 96 83 90 94 84 67 90 94 91 77 73 64 87 93 91 83 69 56 56 60 66 76 82 78 87 94 98 97 96 90 71 67 60 56 64 82 82 83
84 83 82 85 76 90 100 93 95 86 79 69 73 80 79 80 93 100 100 98 90 98 94 91 71 75 73 62 53 60 60 61 68 79 73 59 57 68 77 86 96 99 96 97 95 97 80 72 72 75 81 84 94 92
85 79 83 81 88 89 88 87 87 73 68 77 70 80 79 94 97 99 96 88 96 83 73 64 78 68 58 55 51 54 60 60 66 76 77 75 67 88 97 97 99 99 96 96 96 89 86 84 84 90 100 100 100 100
97 88 100 99 100 100 99 83 77 78 88 85 90 83 86 89 89 90 85 95 78 71 64 67 56 53 53 53 52 52 57 62 66 68 73 74 87 94 97 98 99 98 100 99 92 100 92 85 92 96 100 100 99 100
95 98 100 100 100 100 98 88 93 90 91 85 89 89 89 92 85 78 83 64 60 51 47 47 50 52 56 55 61 60 63 71 71 73 82 82 88 98 100 98 97 99 98 87 82 92 95 88 94 100 99 99 100 100
96 100 100 99 95 92 97 95 86 90 90 92 91 85 74 80 81 85 77 70 61 50 49 49 49 56 59 64 64 63 64 66 75 81 85 89 95 90 89 81 85 89 84 82 89 98 98 99 93 94 96 97 95 93
100 100 99 94 94 96 91 84 86 93 96 86 88 78 78 86 84 73 71 61 72 77 73 64 71 70 80 80 79 78 85 85 82 89 89 99 99 94 83 80 80 83 94 100 98 96 97 98 97 90 86 91 87 90
95 90 93 83 89 92 83 91 95 89 77 80 84 73 91 86 84 81 56 76 98 74 99 99 99 92 90 87 91 86 88 96 90 92 86 85 94 98 96 92 93 96 95 100 98 98 97 96 93 88 88 88 83 94
94 89 87 70 70 77 89 90 78 82 88 87 81 92 92 93 85 64 56 64 62 82 81 86 86 87 88 87 90 93 94 95 94 83 81 75 77 78 95 99 97 92 97 97 100 100 100 97 93 89 90 96 94 93
84 81 89 86 92 78 79 84 85 85 74 66 81 90 93 86 68 59 64 68 90 85 89 88 87 86 90 89 92 96 94 94 97 95 94 93 93 98 98 99 98 96 98 100 100 100 100 100 97 95 95 94 92 91
88 88 84 98 92 92 89 79 73 68 61 76 79 78 72 63 90 81 82 91 95 94 95 95 97 99 99 97 97 94 95 96 98 97 95 95 99 100 98 100 98 98 100 99 90 93 96 94 93 91 92 94 92 93
86 88 85 84 88 84 83 88 85 95 77 78 72 67 67 78 93 92 93 93 92 93 94 94 94 96 98 99 98 99 97 98 98 98 98 100 100 100 98 99 98 96 95 93 92 89 88 88 88 87 88 90 91 90
89 93 95 93 91 84 93 93 93 93 92 91 89 89 82 88 96 92 89 91 92 95 97 93 91 97 98 94 95 94 93 100 98 99 99 100 100 100 99 97 94 94 93 93 91 90 89 88 86 84 84 84 88 90
95 94 93 94 90 91 96 94 93 97 94 97 96 92 95 97 95 95 92 92 92 93 92 93 94 94 96 98 97 98 94 97 96 96 96 97 99 99 96 92 94 94 92 88 87 86 85 84 85 83 84 83 85 85
94 93 92 94 94 94 93 95 93 93 95 94 93 94 93 91 92 95 85 89 93 94 94 93 92 93 94 93 93 94 93 95 94 94 93 93 92 93 94 94 93 91 90 89 88 87 86 84 84 84 86 87 87 87

GFSWCAN_sfc_rhum_003.txt.gz
RH
98 99 99 99 98 98 98 97 97 96 96 96 96 95 95 94 94 88 68 68 69 84 61 57 50 54 51 57 83 59 68 80 96 100 100 98 100 70 66 50 70 73 100 100 100 100 98 31 35 78 65 54 48 52
94 98 99 100 99 98 98 98 97 97 96 96 96 95 95 95 95 95 91 71 74 93 69 63 50 45 44 44 50 60 65 54 72 93 99 100 100 100 100 94 48 75 62 73 61 65 43 38 44 42 42 49 58 64
92 94 96 99 99 99 98 98 97 97 96 96 96 96 95 96 95 94 89 90 94 100 99 95 74 55 48 50 47 82 82 57 58 54 92 100 100 88 100 92 96 77 57 75 75 53 44 45 46 46 48 61 45 51
91 93 93 96 97 99 99 98 98 97 97 96 96 96 95 95 95 96 98 91 95 100 100 96 61 68 50 48 53 55 58 60 63 79 100 100 100 89 98 82 83 73 75 81 77 58 52 58 55 44 50 48 44 48
90 92 94 95 93 96 99 99 99 98 97 97 97 96 96 95 95 96 98 96 92 96 100 99 80 55 48 49 54 56 62 67 89 100 100 100 96 95 91 91 95 76 78 90 96 67 69 56 41 40 46 54 51 50
90 92 93 96 96 97 98 99 99 99 98 98 97 97 97 96 98 99 100 99 95 99 100 100 84 73 54 57 56 65 66 74 88 100 100 99 76 96 100 96 77 56 55 58 75 59 55 42 40 41 52 49 34 34
89 92 94 95 95 95 96 97 98 98 98 99 99 99 98 99 98 99 98 96 95 96 100 100 100 89 73 70 62 62 67 85 93 100 100 97 91 96 100 97 59 49 48 43 44 47 44 42 48 43 36 30 33 31
90 90 94 95 95 94 94 94 95 96 96 97 97 98 99 98 98 98 99 99 99 99 100 100 100 100 68 99 99 70 94 100 100 99 98 99 81 100 100 60 42 33 31 29 30 36 44 42 38 30 29 31 38 42
92 95 96 95 93 93 93 94 94 95 96 96 95 93 94 96 99 99 98 97 99 99 100 100 100 100 62 81 92 93 94 100 92 100 95 71 86 95 60 41 35 33 35 47 43 41 36 35 34 32 31 35 52 65
94 96 95 94 94 94 94 95 95 96 95 93 81 86 100 100 93 96 94 100 100 100 100 100 94 100 65 99 100 100 100 100 100 88 61 96 76 47 39 35 34 42 41 39 48 48 47 44 37 37 40 48 69 97
95 94 93 93 93 93 92 93 92 90 84 71 97 100 96 91 86 94 100 100 100 100 100 98 88 91 87 99 100 100 100 100 100 66 89 89 74 45 34 38 39 36 35 34 35 35 34 36 38 48 58 66 86 92
94 93 92 90 90 90 87 88 81 68 62 75 81 81 87 99 100 100 100 100 100 86 74 95 83 70 92 87 99 100 100 100 97 76 98 89 49 40 38 36 34 34 35 35 36 39 38 36 44 62 73 81 94 91
89 89 89 89 90 89 88 83 85 87 80 68 91 100 98 100 99 91 89 98 95 95 99 99 98 92 100 99 100 100 100 100 92 100 85 65 50 33 30 30 30 29 43 64 45 44 46 48 60 90 97 99 99 98
88 89 88 89 89 90 89 90 85 74 61 99 100 98 99 98 78 67 75 100 100 100 100 96 98 95 100 100 100 100 82 87 95 84 82 54 39 33 34 38 43 42 85 83 60 60 82 100 100 100 100 100 100 93
87 87 86 86 86 88 92 88 80 60 83 100 100 91 88 75 87 97 100 97 98 93 97 96 96 85 91 94 94 89 89 88 73 66 64 50 47 48 48 49 44 74 96 89 63 84 100 100 100 99 100 95 95 100
85 85 75 85 83 85 91 80 65 68 100 100 100 99 96 99 99 100 100 100 88 90 93 93 94 89 84 84 88 86 71 52 67 80 59 40 41 45 48 62 63 61 64 65 63 72 80 100 100 96 93 98 100 100
82 70 83 84 85 87 80 63 74 100 99 100 96 93 96 99 100 100 100 90 72 95 96 86 88 77 48 69 70 52 69 78 73 62 49 44 48 51 53 56 70 76 68 66 70 74 73 86 100 99 89 76 89 96
68 69 84 84 76 76 67 72 97 95 95 76 81 96 83 90 100 100 97 84 96 77 65 76 52 66 70 57 62 69 61 60 58 58 48 45 48 52 53 58 62 62 65 76 100 98 98 100 96 68 70 68 88 95
59 61 82 82 76 74 84 99 80 84 76 68 70 71 76 93 88 78 85 90 74 64 74 79 83 71 71 58 78 79 81 78 65 50 47 50 53 58 62 59 68 70 74 87 98 96 90 95 74 50 51 65 71 75
80 83 83 83 73 78 100 95 75 73 75 63 65 72 72 74 90 99 100 97 83 94 87 87 69 68 66 56 49 56 55 54 58 66 61 53 49 52 55 59 60 68 89 98 99 99 99 88 62 63 70 75 91 91
80 80 83 77 78 75 76 76 80 74 57 61 56 64 72 79 93 100 100 84 98 84 69 58 76 66 56 55 52 53 54 53 57 66 70 69 61 62 62 62 68 91 98 99 98 95 100 94 75 76 100 100 100 99
84 79 99 99 100 100 92 67 65 67 70 71 78 72 87 93 98 96 77 89 77 65 56 62 53 51 51 50 49 51 52 54 56 58 63 64 71 72 73 75 89 98 99 100 100 100 99 84 94 98 100 100 98 96
94 97 100 100 100 100 98 70 85 73 88 81 75 82 79 83 73 63 82 61 61 48 43 43 46 50 49 48 52 52 54 59 62 65 73 74 72 80 84 88 98 100 100 99 88 92 100 88 94 98 100 99 98 95
96 100 100 100 100 96 100 95 77 77 80 86 77 74 62 70 74 85 75 73 61 48 46 44 44 45 45 48 53 54 55 58 63 68 78 84 85 82 85 96 99 99 87 77 96 98 99 100 93 94 95 97 92 88
99 99 100 96 92 94 88 86 84 80 82 77 74 69 71 85 78 68 69 61 74 76 67 57 54 49 59 63 64 65 73 74 94 96 83 85 97 98 99 98 89 82 94 100 100 100 100 100 100 99 97 91 86 83
95 96 92 79 82 83 72 72 71 71 70 69 71 64 97 78 75 72 47 76 99 72 98 100 96 74 60 57 62 65 74 79 93 95 87 90 99 100 100 100 95 95 96 99 100 100 100 98 98 92 93 87 78 88
92 80 80 54 56 63 81 87 72 72 70 65 64 71 82 84 68 48 42 45 53 70 61 68 67 67 68 67 68 78 85 88 96 93 93 80 73 76 93 100 98 89 97 100 100 100 99 98 98 100 100 100 100 94
79 82 80 89 84 69 77 70 70 70 66 50 61 69 88 74 54 46 51 54 84 70 72 75 78 78 79 81 86 94 94 96 98 94 91 90 86 96 100 100 98 94 99 100 100 100 100 100 100 100 98 86 89 93
80 78 82 77 81 83 80 74 72 59 48 59 77 74 70 56 79 80 65 79 92 96 93 94 99 100 96 93 97 98 100 97 99 98 97 96 100 100 98 100 100 100 100 100 94 99 100 100 100 98 93 91 93 92
81 86 81 78 84 79 80 85 88 96 73 83 75 68 66 77 82 96 94 94 96 100 100 100 99 96 93 94 94 99 100 100 100 98 97 100 100 100 100 100 100 100 100 100 99 93 88 89 89 90 90 90 88 86
84 95 87 83 84 83 87 99 100 97 100 94 98 97 94 94 100 98 89 90 92 94 95 92 93 90 90 88 92 94 95 100 99 97 96 99 100 100 100 100 100 100 100 99 94 94 94 93 93 91 87 84 80 84
96 93 87 87 88 100 100 99 99 99 100 96 92 95 96 95 88 95 88 90 89 90 88 89 88 90 96 99 100 99 95 98 97 98 100 100 100 100 100 100 100 100 99 93 91 87 85 84 85 86 84 79 78 78
89 90 89 90 89 94 95 96 89 90 88 87 86 83 88 86 93 93 83 85 89 89 89 88 88 92 94 95 96 95 90 92 92 91 92 93 94 98 99 100 99 94 88 88 89 88 84 82 83 82 80 81 80 77

GFSWCAN_sfc_rhum_009.txt.gz
RH
99 99 98 98 98 98 97 97 97 97 97 96 97 97 96 95 94 96 96 89 95 99 95 76 72 80 78 81 93 81 83 89 100 100 100 100 98 95 88 68 77 84 93 98 98 99 95 56 52 77 69 70 58 71
98 99 100 99 99 98 98 98 98 98 98 97 97 97 97 96 95 98 97 94 94 97 94 88 84 82 76 75 84 84 82 82 94 99 99 100 100 100 98 93 61 85 75 87 84 83 65 52 56 56 54 63 72 78
96 98 99 99 99 99 98 99 99 99 98 98 98 97 97 96 95 94 98 98 98 100 98 95 89 74 66 69 70 94 97 75 87 86 99 100 100 100 100 98 91 76 70 87 84 68 56 57 54 55 58 69 78 80
93 95 95 97 98 99 99 99 99 99 99 99 98 98 97 97 95 95 99 97 98 100 100 94 74 80 67 68 71 76 74 79 87 97 100 100 100 94 99 88 90 84 82 84 82 68 62 61 63 62 74 84 83 71
92 94 94 93 94 96 98 99 99 99 99 99 98 98 98 97 96 97 99 98 97 98 100 99 86 72 66 70 72 74 83 88 99 100 100 100 100 98 100 98 98 77 74 88 89 64 74 69 65 66 75 71 66 65
90 93 94 93 94 93 93 97 98 99 99 98 98 98 97 97 98 99 100 99 98 99 100 100 90 86 73 69 71 72 77 89 94 100 100 99 87 93 100 93 67 54 58 61 74 64 62 70 59 61 65 59 46 62
89 92 94 94 94 95 93 96 96 98 98 98 98 98 98 99 99 100 97 96 96 97 100 100 100 94 84 81 85 87 82 93 96 100 100 100 99 97 100 98 68 61 61 60 56 60 71 60 55 45 42 42 46 64
90 94 94 92 92 94 96 96 97 96 97 98 98 98 99 99 99 99 100 98 98 99 100 100 100 99 89 99 100 97 100 100 100 100 100 100 98 100 100 80 69 61 56 55 55 51 52 48 46 41 40 45 53 77
91 95 94 94 92 92 94 96 96 98 98 98 98 96 95 96 100 100 97 96 99 98 100 100 100 100 83 98 99 100 100 100 99 100 100 98 100 98 94 81 66 60 64 55 48 47 48 51 51 48 47 49 63 80
92 92 95 94 93 93 93 94 94 92 92 93 92 95 100 100 97 98 96 100 100 100 100 100 99 100 88 100 100 100 100 100 100 95 96 100 94 66 57 55 57 52 46 50 61 64 62 61 57 54 56 61 79 87
94 95 95 92 92 94 94 94 94 90 83 91 100 100 100 96 99 100 100 100 100 99 99 99 99 100 94 99 100 100 100 100 99 94 98 98 96 74 58 57 47 45 42 43 47 47 42 47 47 55 72 78 84 92
94 95 94 93 93 93 95 95 93 88 92 90 93 94 99 100 100 99 99 99 98 98 99 99 98 97 100 100 100 100 99 100 92 92 96 90 85 55 53 49 50 54 55 53 47 50 52 50 57 74 83 84 94 95
95 94 94 94 93 92 92 81 79 85 86 90 98 100 99 99 100 99 99 99 99 100 99 99 100 99 100 100 100 98 100 96 97 99 85 90 70 57 57 60 56 58 66 67 59 63 65 68 72 84 83 91 96 94
96 95 94 93 91 89 85 79 82 82 89 98 97 99 95 95 95 96 98 99 100 100 100 99 100 100 98 93 94 96 93 97 99 93 92 93 76 65 60 65 59 62 75 73 73 78 83 84 86 87 94 95 96 98
95 94 93 93 90 86 84 83 77 83 98 97 96 95 99 96 99 99 100 99 100 98 99 98 99 97 99 98 98 94 93 86 93 90 95 93 72 67 67 63 58 75 83 86 79 85 82 82 88 93 96 95 97 96
93 88 91 93 92 88 84 81 81 91 100 92 93 96 97 98 99 98 99 100 100 97 98 97 95 94 92 96 98 95 94 89 88 94 94 77 72 71 70 73 69 74 81 80 82 80 79 86 90 93 95 96 94 97
77 92 92 91 89 84 79 85 97 98 96 97 98 100 100 99 98 99 100 96 95 97 96 96 90 85 90 96 96 90 90 90 94 94 93 72 71 71 72 72 76 81 77 73 66 72 79 88 100 94 89 85 98 99
90 91 87 85 80 87 84 92 96 95 96 96 96 97 95 95 96 97 92 98 98 97 93 88 90 87 86 84 85 86 94 95 92 91 89 71 72 74 67 74 66 67 67 70 78 82 92 98 94 85 88 96 99 98
87 88 85 82 81 89 95 95 96 92 91 93 92 95 97 97 96 95 97 99 98 95 93 94 92 95 84 90 88 90 93 94 88 82 75 72 72 73 73 72 76 76 75 73 76 73 92 92 90 90 98 99 98 98
85 87 83 84 82 96 97 97 88 95 95 92 93 94 95 96 98 99 99 95 96 96 99 99 95 82 94 87 90 94 89 81 83 82 75 68 72 77 73 73 71 71 73 74 77 95 96 91 95 98 99 99 98 98
82 92 86 89 99 95 94 94 89 90 93 92 93 94 95 96 98 97 98 87 95 94 96 86 73 66 74 77 75 80 72 71 70 79 80 81 67 71 73 74 80 87 92 91 89 87 96 98 98 99 99 100 100 99
96 82 99 99 98 92 92 94 93 95 94 93 90 92 93 96 97 98 96 99 94 89 80 69 66 69 70 71 70 75 76 78 80 88 82 85 81 80 83 84 93 91 88 88 87 98 98 98 99 99 99 99 100 98
86 90 99 99 90 92 85 95 91 88 95 92 93 90 94 95 93 94 96 94 91 73 70 71 69 71 75 71 74 71 70 71 70 76 86 92 90 94 94 90 93 98 97 91 98 99 99 98 99 99 99 99 98 98
91 99 98 94 96 96 93 95 93 92 92 92 93 88 88 92 93 94 95 93 70 78 80 73 76 71 79 73 81 80 78 89 90 92 92 99 98 92 93 93 95 92 98 98 98 99 99 100 99 98 98 98 96 97
98 97 98 97 97 90 98 98 93 94 92 91 90 89 88 92 91 94 89 72 88 90 85 86 92 89 91 94 93 87 81 94 93 92 97 96 97 86 86 91 94 96 96 100 99 100 100 100 99 98 97 96 97 96
97 96 96 90 94 94 92 92 93 91 92 87 85 89 91 91 91 90 87 89 93 94 98 98 97 97 94 89 89 92 89 97 97 99 94 95 91 95 97 98 97 90 97 100 100 98 97 98 98 97 97 96 95 95
97 98 96 92 88 89 92 90 89 90 89 89 92 91 89 95 94 81 84 90 90 93 94 95 96 94 92 90 92 97 98 97 95 91 91 91 88 88 95 98 97 94 97 99 99 94 93 97 98 97 95 96 94 91
93 91 95 92 92 91 92 91 91 90 89 89 87 82 83 82 81 82 88 94 95 95 94 94 93 92 93 94 97 96 93 94 90 92 94 92 91 93 93 96 98 99 98 99 98 95 98 99 99 96 94 94 95 94
98 92 90 92 91 91 91 89 88 88 85 89 84 85 81 82 85 89 92 92 98 98 98 97 96 100 99 100 96 93 89 93 98 97 94 96 95 95 98 95 97 98 99 98 98 99 99 99 99 96 94 93 95 97
94 91 93 90 91 90 86 88 88 90 91 84 77 86 85 81 75 84 85 83 86 90 92 98 99 98 96 97 93 95 95 98 99 99 99 99 97 93 95 97 97 98 99 99 99 98 98 99 99 99 98 98 98 98
91 93 90 85 82 75 77 78 85 91 92 88 85 87 84 82 82 96 99 98 99 98 98 98 98 98 98 99 99 99 98 99 98 98 97 97 98 99 98 98 99 99 99 98 99 98 98 98 98 98 97 97 97 97
95 91 88 84 80 78 90 94 91 90 88 92 89 87 88 89 92 98 98 97 98 98 98 97 98 98 98 99 99 98 98 98 98 98 99 99 97 97 97 98 99 99 98 98 98 98 97 97 98 98 97 97 97 96
91 88 84 87 96 92 90 90 91 91 87 84 84 86 87 90 94 98 98 96 98 98 98 97 98 98 98 99 98 98 98 97 97 97 96 96 96 96 96 96 96 96 97 98 97 97 97 96 97 97 96 96 96 96

GFSWCAN_sfc_rhum_012.txt.gz
RH
99 99 98 97 96 96 96 97 97 97 96 96 96 97 96 95 96 92 96 94 94 100 96 85 78 81 83 86 93 81 84 91 100 100 99 96 96 90 95 75 81 77 92 96 99 99 94 60 60 76 70 79 65 71
97 99 99 98 98 98 97 97 98 97 97 97 97 97 97 95 95 95 95 97 96 96 89 92 88 86 80 72 87 88 83 85 94 99 100 99 100 100 94 88 74 85 75 84 81 83 66 64 60 64 64 70 82 90
98 98 99 99 99 99 97 99 98 98 98 98 98 98 98 97 94 94 98 98 99 100 98 94 85 74 73 79 77 94 96 81 93 86 98 100 100 100 99 98 95 77 71 91 82 65 62 62 56 59 70 86 90 87
97 97 98 99 99 99 99 99 99 99 99 99 99 98 98 97 96 95 98 98 98 100 100 94 76 78 72 74 78 82 79 84 86 98 100 100 100 95 99 92 94 86 88 88 85 74 69 64 68 70 81 73 75 70
94 95 96 96 97 98 99 99 99 99 99 99 99 99 98 97 97 98 99 98 97 97 100 99 87 76 71 73 78 78 89 95 100 100 100 100 99 99 100 99 99 82 76 94 91 67 73 70 70 72 76 74 73 64
93 94 94 93 94 96 97 98 99 99 99 99 99 99 98 98 97 99 99 98 98 97 100 100 92 88 81 79 81 80 87 95 98 100 100 99 88 94 100 99 70 65 63 61 76 75 76 73 64 63 68 62 54 54
93 94 94 95 95 94 93 95 97 98 99 99 98 98 98 98 99 99 98 95 97 98 100 100 100 93 88 84 91 92 90 96 97 100 100 99 99 97 100 97 67 69 65 62 64 69 82 75 74 64 63 55 52 63
93 94 93 93 94 96 95 95 96 96 98 98 98 98 99 99 98 98 99 98 98 99 100 100 100 98 86 99 100 99 100 100 100 100 100 100 99 100 99 69 75 70 64 67 66 68 70 53 54 51 49 52 57 65
94 94 93 92 92 94 96 96 98 97 97 98 99 96 95 97 100 100 97 96 99 98 100 100 100 100 91 99 100 99 100 100 99 100 100 98 100 99 94 88 81 78 68 60 55 54 53 59 56 54 49 54 64 73
94 95 95 93 92 93 95 95 94 96 98 96 91 93 100 100 97 98 94 100 100 100 100 100 99 100 92 100 100 100 100 100 99 98 90 100 91 71 62 62 65 63 56 59 79 82 71 69 58 55 54 62 75 86
93 95 94 92 93 93 94 93 90 87 84 93 100 100 100 98 97 100 100 100 100 99 100 98 99 100 96 99 100 100 100 100 99 93 97 99 97 86 66 64 64 63 62 61 60 58 48 55 58 64 73 76 85 87
94 95 93 92 94 95 94 93 88 91 94 93 94 96 99 100 100 99 99 99 99 96 99 99 97 97 100 100 99 100 98 99 97 94 99 88 87 70 64 65 64 60 58 52 54 57 58 58 64 74 83 87 88 91
95 95 93 93 93 94 95 84 83 84 85 90 95 100 96 100 98 99 97 99 98 99 100 100 99 100 100 100 100 99 100 98 96 98 82 89 78 64 68 65 64 63 68 71 62 65 68 69 72 85 86 87 90 96
96 95 94 93 92 92 80 82 81 84 85 96 92 96 93 98 96 97 98 97 99 100 100 100 100 98 99 97 94 97 94 97 100 98 96 92 77 67 62 64 56 58 73 74 74 77 82 84 84 84 89 91 97 97
96 95 94 92 90 85 81 79 78 90 98 97 91 92 98 94 99 99 100 99 100 99 97 97 97 97 100 97 96 95 98 94 91 93 95 94 77 71 67 67 66 79 76 77 77 85 84 84 84 80 80 94 97 95
94 90 94 91 88 84 81 82 90 88 99 94 94 97 98 98 100 98 99 99 100 98 98 96 96 95 94 96 98 100 98 95 90 97 95 80 73 73 74 77 76 76 77 77 76 78 72 78 78 76 88 96 93 90
83 97 95 93 88 83 80 88 93 96 96 95 98 99 97 98 97 96 99 98 96 95 96 97 96 81 90 98 99 94 93 91 95 94 92 84 74 72 75 78 82 80 75 74 74 73 73 74 88 98 99 84 90 90
98 96 90 85 83 88 90 95 95 94 100 98 97 96 98 98 99 99 96 99 95 97 95 87 91 88 92 91 92 91 96 96 94 92 92 87 77 77 72 77 72 75 76 75 79 81 83 89 91 90 91 92 98 98
93 86 84 84 86 92 94 99 94 95 94 96 97 98 97 96 97 98 97 98 97 97 94 95 91 95 93 92 91 92 95 96 93 72 68 76 79 79 75 78 81 82 80 78 79 79 79 82 83 82 92 98 98 99
89 88 85 85 86 95 98 96 91 97 96 92 96 96 96 95 98 100 98 97 97 98 99 98 97 93 93 86 94 94 92 88 96 88 73 70 81 82 84 82 79 76 79 81 87 93 91 84 93 93 97 98 99 99
89 96 94 89 95 95 95 97 95 96 96 94 96 95 95 99 100 100 96 99 97 98 98 94 88 76 80 82 85 83 80 82 79 85 79 80 75 91 85 81 86 91 93 92 93 91 89 93 91 98 99 99 100 99
98 90 100 97 94 93 95 96 92 96 95 94 93 96 96 96 99 100 99 98 97 84 86 78 69 72 75 76 69 78 77 80 80 85 89 91 87 79 86 92 98 94 93 93 93 95 94 98 98 99 99 99 99 99
87 89 98 95 91 93 85 96 92 90 96 94 96 92 95 97 95 96 100 97 93 89 73 75 72 77 75 71 78 82 82 81 80 80 86 88 88 94 97 97 99 91 94 92 92 96 98 98 98 99 99 98 99 99
88 98 98 94 95 98 93 89 97 96 97 96 99 99 93 96 95 97 96 95 75 85 89 77 80 79 85 84 85 78 76 91 89 92 93 95 97 98 98 90 84 84 94 95 96 97 98 99 99 99 99 99 98 98
91 97 92 94 97 97 99 99 89 99 99 98 96 94 88 95 93 98 93 71 84 85 80 83 90 84 85 84 95 91 87 94 93 91 94 98 98 97 91 85 88 87 89 96 96 98 99 100 99 99 99 99 98 97
100 97 94 88 98 97 96 100 100 97 99 98 94 91 97 94 95 89 88 91 89 89 91 91 93 96 96 95 94 94 89 96 98 99 97 97 98 97 96 96 95 91 95 99 98 98 98 98 95 98 98 97 97 97
99 99 98 91 89 93 96 96 94 95 96 92 92 93 91 95 97 82 86 88 85 90 93 94 94 94 93 88 90 90 98 97 94 95 94 94 92 91 91 94 95 94 98 98 98 98 98 97 93 94 97 97 98 96
94 98 94 96 97 94 90 97 95 95 91 91 94 91 89 90 84 82 84 90 92 95 95 94 92 89 88 92 97 98 97 97 96 94 96 97 96 98 97 98 96 94 96 98 98 98 98 98 97 97 98 98 97 95
98 96 93 94 97 94 96 93 90 89 87 91 88 88 83 84 89 89 89 93 99 97 94 93 92 100 98 98 99 98 96 96 98 97 96 95 97 95 96 95 97 97 97 97 98 99 99 99 99 99 99 98 98 98
97 94 94 96 95 96 89 90 91 91 94 80 88 89 92 88 87 92 94 92 97 92 96 97 97 99 99 99 98 97 98 99 99 98 98 99 98 96 98 97 96 97 97 98 99 98 95 97 97 98 98 98 98 98
96 97 97 96 90 88 82 91 95 96 97 94 87 89 82 80 94 100 100 98 98 98 98 98 98 98 98 98 98 98 99 98 97 97 98 98 98 98 97 98 98 100 100 100 99 98 97 99 98 97 97 97 97 97
100 97 96 92 82 88 97 98 93 94 93 98 84 98 96 98 96 98 97 98 96 96 96 96 96 97 97 98 98 98 97 98 98 97 96 97 97 97 97 97 97 97 100 99 99 98 98 98 98 98 98 98 96 96
94 96 96 98 98 100 95 96 95 95 98 89 78 79 85 93 90 98 97 96 97 97 96 96 96 97 97 97 97 97 97 97 97 97 97 97 95 95 96 96 96 97 98 98 98 97 96 95 96 96 96 96 96 96

GFSWCAN_sfc_rhum_015.txt.gz
RH
99 99 97 96 96 96 96 97 97 96 96 97 96 97 96 94 99 93 97 97 93 98 93 87 82 82 86 88 92 83 86 92 100 100 99 96 96 91 95 78 83 80 90 96 98 100 94 62 67 78 74 75 75 80
98 99 99 98 97 96 96 96 97 97 97 96 96 97 96 94 96 90 97 98 96 94 84 93 89 84 78 72 86 89 83 86 94 99 99 99 99 98 92 94 76 83 74 85 81 82 67 61 64 65 66 78 85 95
98 99 99 99 98 97 97 97 97 98 98 98 98 98 97 96 95 93 98 98 98 100 96 93 86 79 84 83 78 92 96 84 92 90 98 100 100 99 98 96 87 84 76 92 82 70 59 63 60 57 71 88 90 84
98 99 99 99 99 98 98 98 98 98 98 98 98 98 98 98 97 93 97 98 97 99 100 95 78 81 78 83 85 82 80 89 92 98 100 100 100 93 99 89 97 88 89 90 86 74 74 67 71 75 86 87 80 81
97 98 98 99 99 99 99 99 99 99 99 99 99 99 98 98 97 98 99 98 97 96 100 99 88 77 73 81 83 87 89 92 100 100 100 100 99 99 100 99 100 91 86 91 93 68 74 71 84 86 84 84 80 76
95 97 97 97 98 99 99 99 99 99 99 99 99 99 98 98 96 99 99 98 98 97 100 100 94 88 82 81 86 88 93 96 98 100 100 99 90 95 100 99 72 63 67 66 76 64 74 85 79 76 74 72 71 71
93 95 97 98 97 97 98 98 99 99 99 99 99 99 99 98 98 99 97 95 98 97 100 100 100 92 88 86 92 94 94 97 98 100 100 99 97 96 100 97 68 67 70 76 69 75 89 85 95 80 75 68 70 64
94 93 94 95 96 95 96 96 97 98 99 99 99 99 99 98 97 98 99 98 98 99 100 100 100 98 89 99 100 99 100 100 100 100 100 99 99 100 100 79 75 76 74 71 73 70 70 71 63 53 50 55 64 67
94 92 92 92 95 94 95 96 96 98 98 99 99 97 97 98 100 100 97 97 99 98 100 100 100 100 93 99 99 99 100 100 100 100 100 99 100 99 95 87 82 82 79 74 66 66 66 55 59 62 60 51 55 62
94 94 93 92 93 95 94 98 97 98 98 95 91 96 100 100 98 97 94 100 100 100 100 100 99 100 93 100 100 100 100 100 100 99 95 100 99 79 72 74 72 71 70 73 81 94 86 72 73 68 57 57 70 81
95 95 94 92 92 94 92 91 96 94 90 89 100 100 100 97 95 99 100 100 100 100 99 99 99 100 97 99 100 100 100 99 99 94 100 99 98 85 72 70 69 67 67 69 66 69 65 59 61 70 77 79 81 84
93 95 92 92 93 94 94 88 84 91 94 90 94 96 98 99 100 98 99 99 99 96 99 98 98 97 100 100 99 100 99 99 98 95 99 98 87 74 76 80 78 66 63 60 59 60 62 64 70 79 81 76 79 82
95 94 92 94 94 94 88 83 87 86 80 85 94 100 98 99 97 98 99 99 99 99 99 100 100 100 100 100 100 99 99 98 98 98 96 91 81 72 70 66 64 60 66 74 60 62 68 74 78 84 81 80 84 87
96 94 93 93 95 88 83 81 82 80 81 91 90 100 91 98 95 96 96 97 97 100 99 100 99 98 98 96 97 96 93 99 98 99 97 91 76 68 65 64 64 61 76 74 69 71 77 84 85 84 87 85 89 91
96 94 93 93 91 82 81 81 84 90 91 95 85 84 98 93 96 99 100 100 100 99 96 98 99 97 99 97 95 94 97 96 89 94 96 92 75 70 67 70 70 80 82 81 76 82 84 84 86 83 81 86 91 92
95 92 94 91 86 82 82 85 88 89 96 94 93 98 98 97 99 98 100 99 100 97 96 95 96 94 96 96 98 98 99 97 90 97 94 80 72 73 74 78 77 78 78 78 78 80 78 83 85 79 80 89 90 92
86 99 92 88 87 84 82 87 90 96 95 93 95 98 98 98 98 98 98 99 97 93 91 97 95 72 90 98 100 95 95 92 94 94 96 81 77 74 75 77 84 83 79 79 80 80 80 80 87 92 91 82 84 90
98 95 89 85 85 89 93 93 95 92 96 99 96 95 100 98 96 98 99 99 96 93 95 90 91 93 96 96 94 93 95 95 96 94 92 86 81 80 79 83 77 79 82 83 87 84 86 90 91 90 87 85 93 95
94 90 87 81 81 91 97 99 91 91 92 97 98 99 97 96 98 98 99 99 98 94 92 96 95 96 93 92 90 92 95 96 93 72 76 77 79 80 77 78 80 82 84 83 82 84 86 87 88 87 92 90 96 98
88 88 88 86 78 92 96 98 92 94 94 92 97 98 97 96 99 99 100 99 98 99 99 98 96 93 91 87 87 89 92 87 96 90 75 75 83 82 81 82 84 83 85 89 94 98 88 90 90 90 94 97 99 97
91 96 90 89 96 93 94 98 97 95 97 94 97 95 95 99 99 100 96 92 99 98 98 96 93 85 84 89 86 83 84 84 82 88 80 81 79 93 90 86 89 94 98 98 90 84 88 94 88 94 99 99 99 97
99 94 100 93 94 92 94 96 93 96 94 95 94 97 98 98 100 99 98 99 98 93 88 80 72 72 78 79 71 78 77 77 82 87 89 90 92 88 90 94 98 99 96 92 86 89 91 92 93 98 99 99 99 99
85 87 97 95 92 86 82 96 92 92 96 95 96 93 96 98 96 98 99 96 95 88 72 80 74 75 75 71 78 80 80 81 86 87 91 91 92 93 95 96 99 100 92 89 88 89 94 92 95 98 99 99 99 99
81 92 96 97 94 96 97 84 97 97 97 97 99 99 95 98 97 100 99 97 89 95 93 80 81 82 92 86 90 81 79 94 92 94 94 96 94 90 97 97 97 96 93 86 91 93 94 98 98 99 99 99 98 98
84 96 88 94 94 95 98 99 98 99 99 99 99 98 90 96 96 100 97 89 93 91 79 87 94 90 90 90 95 90 88 93 93 90 86 94 98 99 94 91 96 95 94 98 95 95 98 95 98 99 98 98 98 98
99 99 91 91 93 96 95 100 100 99 99 100 98 95 98 96 95 87 87 90 90 87 87 85 89 94 96 94 94 93 86 90 95 96 94 97 97 98 95 94 88 92 96 97 98 97 96 93 97 98 98 95 97 98
100 99 98 94 93 92 98 99 96 97 100 96 93 97 95 95 95 84 88 91 85 87 89 89 87 88 85 80 90 91 93 96 93 94 96 95 94 94 94 97 96 96 96 95 96 95 96 96 97 97 98 95 95 96
95 98 95 99 100 96 93 100 96 96 90 92 95 96 86 88 85 84 83 86 89 92 92 92 93 91 91 93 96 98 98 99 98 98 97 97 97 97 96 98 98 94 96 96 97 97 97 98 97 97 98 98 96 96
96 94 94 99 98 98 95 92 91 90 89 91 91 91 84 84 90 89 84 90 97 98 97 95 94 99 99 98 99 99 99 99 100 99 96 95 98 95 97 96 97 96 94 94 94 97 97 98 98 98 97 97 97 98
99 94 96 95 97 96 93 94 94 91 95 88 90 88 87 92 93 98 98 98 99 100 98 99 98 99 99 99 98 98 98 99 99 98 98 98 97 98 98 98 97 94 98 99 100 99 97 98 97 96 94 95 96 97
98 98 99 100 96 91 90 95 98 99 97 92 94 85 79 89 100 99 100 99 98 96 96 97 98 97 97 97 98 98 98 97 97 97 97 97 97 98 98 97 97 97 99 100 100 100 99 98 99 98 97 97 96 96
100 99 98 98 92 88 99 98 96 93 88 100 86 98 98 99 100 98 96 96 94 95 97 97 97 97 96 97 98 98 96 97 97 96 96 97 97 97 97 96 97 98 98 97 98 98 96 97 98 99 97 97 96 96
95 99 98 99 98 97 95 90 93 97 99 99 83 85 94 95 96 97 97 97 98 96 96 96 96 96 96 97 97 98 96 97 96 96 96 96 96 96 95 95 96 98 98 97 97 97 96 96 98 97 96 96 96 96

GFSWCAN_sfc_rhum_018.txt.gz
RH
97 99 97 95 95 96 97 96 96 96 97 97 98 98 96 96 98 94 99 98 91 97 93 90 83 85 88 88 92 86 88 92 99 100 99 98 96 91 93 79 82 78 89 95 99 99 95 64 69 76 68 75 68 75
97 100 99 97 95 95 96 97 97 97 96 97 96 98 97 95 99 90 97 98 97 93 83 96 92 89 78 72 86 91 83 89 95 99 99 99 100 98 92 96 80 86 75 83 80 85 70 60 62 65 66 75 81 90
98 98 99 99 97 96 95 96 97 98 98 97 97 97 98 96 96 92 98 99 97 100 93 91 87 82 86 85 78 90 97 85 92 90 98 99 95 96 97 97 89 82 76 86 81 71 67 69 67 69 82 86 90 92
97 98 99 99 99 98 97 96 96 97 98 98 98 98 98 97 95 91 96 98 97 100 100 94 81 83 80 87 86 82 82 93 93 99 99 100 100 88 99 87 95 90 90 93 90 76 76 76 74 84 91 89 89 86
97 96 98 99 99 99 98 97 97 97 98 98 98 99 99 98 96 97 98 98 96 94 100 99 89 82 80 86 89 90 89 94 99 100 100 100 99 99 100 99 100 90 88 94 89 67 79 83 96 87 91 93 74 76
96 96 97 98 99 99 99 99 99 99 99 99 99 98 98 98 96 98 99 96 98 96 100 100 94 92 87 84 91 92 95 96 99 100 100 99 89 95 100 100 75 71 70 70 78 71 92 91 90 85 79 71 72 74
94 96 97 98 98 99 99 99 99 99 99 99 99 99 99 98 98 99 98 96 98 95 100 100 100 93 90 90 96 96 95 98 98 100 100 99 98 96 100 98 69 68 68 74 74 87 91 85 95 80 77 72 60 58
94 95 96 97 97 97 98 99 99 99 99 99 99 99 99 99 98 99 99 98 98 99 100 100 100 97 89 99 100 99 100 100 100 100 100 100 99 100 100 89 81 72 71 69 65 68 80 72 58 51 49 48 56 54
93 92 92 95 96 95 97 97 98 99 99 99 99 98 97 98 100 99 97 96 98 98 100 100 100 100 95 99 100 100 100 100 100 100 100 99 100 99 86 80 81 79 82 83 84 72 63 61 54 53 56 61 58 66
94 93 92 92 96 96 97 97 98 99 98 98 96 98 100 100 98 97 95 100 100 100 100 100 99 100 96 100 100 100 100 100 95 98 98 100 100 69 72 71 76 77 74 72 83 88 79 76 69 65 67 66 73 77
94 93 92 92 94 94 98 98 99 97 93 98 100 100 100 97 97 99 100 100 100 100 100 99 99 100 97 99 100 100 100 99 100 94 99 98 98 80 78 84 77 71 67 63 63 65 65 74 75 73 75 81 84 84
95 95 92 92 95 96 93 95 92 91 94 94 97 98 99 100 100 99 100 100 99 98 99 98 98 99 100 100 100 100 99 99 98 97 99 99 91 83 83 72 68 68 67 62 61 64 68 71 75 82 81 79 84 81
95 93 92 93 94 92 89 90 90 88 80 84 95 100 95 98 98 99 98 99 99 99 99 100 100 100 100 100 99 99 99 97 97 98 96 94 87 74 75 70 63 64 68 76 65 64 67 72 74 80 79 80 85 85
95 93 94 95 94 85 84 86 82 77 75 90 92 99 93 98 97 97 97 96 98 100 100 100 99 98 98 98 99 97 97 98 97 100 96 95 78 66 66 66 68 64 77 79 75 75 80 83 82 82 86 86 89 88
95 94 94 94 86 84 84 84 82 82 88 92 84 87 99 94 97 100 100 100 100 99 98 99 99 97 99 99 94 95 94 92 95 93 96 92 75 74 71 68 68 80 83 83 78 84 86 87 89 86 83 88 90 90
95 93 93 90 84 84 82 78 82 85 95 90 94 99 98 98 98 99 100 100 100 97 96 93 97 96 98 96 97 94 98 98 90 96 92 82 75 75 72 75 75 77 79 79 80 84 84 88 88 85 85 87 89 91
89 99 93 88 85 83 79 83 92 94 94 86 96 99 98 98 97 98 97 98 97 92 90 97 88 74 91 99 100 97 96 92 93 93 95 80 73 73 74 75 82 84 79 82 83 86 85 85 90 94 94 87 90 91
99 95 89 85 88 90 95 93 92 88 85 99 96 98 99 99 98 98 99 100 96 97 95 91 89 91 96 94 95 93 96 97 96 94 88 82 77 77 76 80 77 81 83 85 90 88 90 94 95 89 91 90 92 91
92 88 87 82 83 95 97 97 89 87 89 97 98 98 98 98 99 98 100 100 98 96 91 94 99 96 93 92 91 95 96 94 92 78 79 77 79 79 78 80 83 82 85 89 87 89 90 92 90 90 93 94 96 96
91 90 86 78 76 92 94 98 91 90 93 92 97 98 98 98 99 99 100 100 98 99 99 98 96 94 91 86 85 86 87 83 95 92 79 86 83 81 82 83 83 85 90 91 94 98 96 87 82 94 96 92 98 98
91 94 86 87 95 92 94 99 97 97 97 96 98 97 97 100 99 100 99 98 99 99 100 96 96 90 84 90 84 82 86 87 85 90 86 80 87 93 89 88 92 95 96 98 99 95 92 85 86 85 92 98 99 99
99 93 99 89 93 90 94 97 94 97 94 96 95 97 99 99 100 99 99 93 88 96 92 84 71 78 79 79 78 82 79 80 83 88 91 90 95 96 96 94 98 95 98 98 96 95 91 84 86 90 96 94 96 99
84 85 95 92 86 84 88 96 93 93 95 95 97 94 97 99 98 95 97 85 94 90 86 84 77 76 75 74 80 80 80 81 87 89 91 93 94 94 95 95 97 99 99 94 96 96 94 89 92 94 94 95 98 99
79 90 92 95 93 98 94 89 97 98 98 98 98 99 95 98 98 99 99 98 93 98 95 80 85 91 94 87 93 84 83 94 94 96 94 96 95 89 92 94 98 98 94 94 96 95 94 94 94 97 89 98 98 98
87 93 89 96 94 97 94 88 95 99 100 100 100 99 94 98 99 100 100 94 96 94 84 89 96 92 92 93 96 92 88 93 94 92 86 93 91 96 97 98 97 94 94 99 95 93 87 90 87 89 92 96 98 97
97 96 94 94 91 95 98 100 100 100 100 100 100 98 99 98 98 89 87 90 91 88 89 86 88 92 95 92 94 93 83 95 97 98 91 94 94 96 99 97 94 91 95 96 98 95 94 92 93 94 93 93 97 98
100 98 90 96 93 93 98 99 97 98 100 100 97 99 97 99 96 84 90 91 87 87 87 88 83 84 85 84 91 92 96 96 92 92 96 98 98 98 98 98 97 98 99 97 97 98 98 96 96 95 95 93 93 96
96 98 95 96 100 97 95 100 99 99 95 94 94 97 90 88 83 84 84 85 86 89 92 92 92 95 95 95 94 97 96 98 100 98 98 96 98 99 98 98 98 96 97 95 95 97 97 99 98 98 96 95 93 92
97 98 96 100 100 100 96 91 92 91 88 90 91 91 86 85 90 91 93 94 99 100 99 98 95 98 97 96 98 99 99 99 99 98 99 98 98 98 97 98 98 97 97 96 100 100 98 99 100 100 100 98 96 95
98 97 98 100 99 97 92 93 96 95 98 95 94 91 86 92 99 97 96 96 98 98 99 99 98 98 98 98 98 98 97 98 97 98 98 98 97 97 97 96 97 97 97 97 98 100 98 99 99 98 96 95 95 95
99 99 99 100 99 95 93 99 99 100 98 95 96 88 78 91 97 96 94 96 96 94 94 96 94 97 97 96 97 97 97 97 97 97 98 98 98 97 97 96 96 97 98 97 97 98 100 99 99 100 97 97 97 96
100 100 98 100 94 92 98 100 100 99 96 98 81 98 98 100 98 97 95 95 93 93 93 95 96 95 96 96 97 97 96 97 97 97 97 97 97 97 96 96 96 99 100 99 99 99 99 100 100 99 98 96 96 96
98 100 100 100 96 87 92 84 90 97 98 100 98 100 100 99 98 97 96 94 96 96 95 95 95 96 96 96 96 96 96 96 96 96 96 96 94 95 95 97 98 99 99 99 99 100 99 98 100 100 98 97 98 97

GFSWCAN_sfc_rhum_021.txt.gz
RH
98 99 98 96 96 95 95 95 96 97 98 98 98 98 97 98 99 94 99 98 86 97 90 88 78 78 81 80 91 86 88 94 99 100 100 99 97 84 81 67 76 74 88 96 97 96 95 55 57 74 62 64 64 68
98 98 99 98 96 96 96 96 96 96 97 97 97 98 97 95 94 90 96 96 96 92 79 95 92 85 75 68 84 90 78 88 94 98 98 98 100 98 90 91 68 83 72 80 76 80 63 56 62 59 62 77 82 81
98 96 97 100 97 96 96 97 97 97 97 97 97 97 97 96 95 92 97 98 95 100 90 87 84 80 84 80 73 88 95 79 87 83 97 98 100 91 100 96 85 72 67 85 79 65 60 63 58 74 86 94 92 91
97 96 96 98 99 97 96 96 98 98 98 98 97 98 98 96 95 91 96 97 97 99 100 91 80 79 75 86 82 78 83 90 90 96 100 100 100 84 97 83 87 74 83 87 87 73 67 69 90 89 90 86 75 63
95 96 96 96 99 99 97 96 96 97 98 98 99 99 99 97 96 97 98 98 95 91 100 99 88 82 81 84 88 87 87 97 99 100 100 100 99 98 100 98 98 88 86 96 92 68 78 92 92 89 89 72 62 63
95 95 95 96 97 99 99 98 97 97 97 98 99 99 98 97 95 96 99 96 98 95 100 100 93 91 82 81 87 91 92 95 98 99 100 99 86 95 100 99 78 71 67 66 72 79 93 92 89 85 68 65 54 54
93 95 96 96 97 98 99 99 98 98 98 98 99 99 98 97 97 97 97 92 98 94 100 100 100 92 88 89 94 94 95 97 98 100 100 100 100 97 100 99 76 73 73 71 74 88 95 92 90 70 50 44 46 43
93 94 96 96 96 97 99 99 99 99 99 99 99 99 99 98 98 98 99 98 97 98 100 100 100 98 88 100 100 97 100 100 100 100 100 100 99 100 100 85 75 70 65 65 62 62 67 58 52 50 46 46 52 53
93 92 92 95 96 96 97 99 99 99 99 99 99 98 97 98 100 99 97 96 98 98 100 100 100 100 94 97 99 100 99 100 100 100 100 99 100 99 86 81 81 82 76 75 69 60 55 54 51 54 54 54 57 59
93 93 91 94 94 96 97 98 99 99 98 96 96 98 100 100 98 98 95 100 100 100 100 100 99 100 95 100 100 100 100 100 100 98 89 100 99 73 73 70 68 72 72 68 65 58 60 61 61 66 62 59 63 64
94 93 92 94 95 97 97 99 98 97 95 98 100 100 100 98 97 99 100 100 100 100 100 99 99 100 97 99 100 100 100 100 100 90 99 96 97 78 74 71 66 62 56 54 54 57 60 66 64 64 66 69 74 76
94 92 92 94 95 97 98 97 94 96 100 98 97 98 99 99 100 100 100 100 100 99 100 99 100 99 100 100 100 100 100 100 97 92 98 96 82 78 75 65 62 63 55 53 52 56 58 59 64 72 72 72 76 76
95 93 92 93 96 93 94 94 94 95 92 96 98 100 100 100 99 97 98 98 99 99 98 100 100 100 100 100 100 100 97 96 94 97 92 83 81 75 68 66 54 54 58 67 58 60 64 66 70 78 80 80 86 84
95 92 94 94 89 94 95 89 85 81 85 96 100 98 98 98 96 95 92 95 96 100 100 99 99 97 98 98 98 96 95 95 96 98 95 88 78 66 64 63 60 55 74 76 68 69 80 85 84 84 89 88 90 89
95 94 95 89 85 88 88 84 80 79 89 88 88 96 97 93 98 98 100 100 100 99 99 98 98 94 99 96 94 95 96 93 90 89 89 87 73 70 67 66 59 73 83 81 70 82 87 87 88 87 84 89 89 92
95 93 95 87 84 83 80 80 80 84 93 89 92 95 97 96 100 100 100 100 99 96 93 92 95 97 97 94 95 93 95 95 85 90 84 76 71 69 68 73 70 69 70 72 73 79 81 89 90 83 86 90 92 93
92 99 91 88 85 80 77 81 91 91 87 84 99 98 96 97 97 98 99 99 94 93 94 92 84 81 89 96 98 89 96 88 86 82 77 76 67 65 68 70 80 81 74 75 76 79 81 84 92 94 94 82 88 90
99 96 86 86 84 87 92 90 89 86 87 98 93 100 99 97 99 99 100 98 95 86 85 85 80 89 90 85 86 87 88 87 84 79 72 73 70 70 69 71 69 73 76 80 88 86 88 94 93 84 87 84 90 84
95 90 89 85 83 91 93 97 90 86 90 95 97 96 95 99 97 98 99 99 94 90 91 92 94 90 88 84 87 85 87 86 72 65 72 72 73 73 73 74 77 77 80 83 82 82 81 87 87 85 83 88 92 86
91 88 84 78 74 90 94 97 89 88 92 92 95 97 96 98 99 100 100 98 93 98 99 100 95 89 85 78 76 76 72 70 77 84 75 76 76 75 75 75 77 78 82 86 88 95 89 88 83 82 78 87 94 92
94 96 87 84 91 90 95 98 96 96 96 95 96 93 98 99 99 100 100 97 97 97 96 93 94 84 79 78 74 73 75 76 80 84 82 78 75 80 77 79 82 87 91 89 92 90 97 94 88 84 87 91 93 99
99 88 95 86 90 90 94 95 94 96 92 95 94 95 99 99 100 98 96 92 86 91 91 90 81 78 79 77 76 80 77 78 80 83 88 87 88 85 86 85 89 90 90 93 93 96 94 89 90 92 95 94 95 94
85 83 91 88 83 90 96 92 93 92 90 94 95 93 97 98 96 92 95 82 88 86 85 82 76 73 75 74 77 77 78 80 83 85 87 88 87 89 91 89 91 95 96 95 93 93 95 93 94 95 92 98 91 91
75 89 92 96 93 100 94 96 96 98 98 98 97 94 92 98 94 96 98 99 91 91 90 79 79 82 85 81 88 80 79 86 87 90 89 92 91 84 86 86 88 91 92 93 93 94 94 94 91 91 89 92 94 94
82 91 89 98 93 97 97 88 94 95 100 100 100 100 96 97 100 100 99 95 93 90 85 81 86 87 86 85 85 83 84 86 86 85 80 88 89 90 87 88 90 91 95 97 96 95 95 91 89 91 92 94 94 94
95 95 87 98 96 92 99 100 98 100 100 100 100 97 99 98 98 93 86 88 90 83 88 84 82 81 81 83 82 82 79 87 91 93 87 86 89 93 96 98 96 94 94 97 98 95 94 93 95 95 94 90 87 92
100 96 88 95 92 92 99 99 96 99 100 100 99 100 98 99 96 82 83 86 81 86 82 82 78 76 70 79 87 90 90 91 90 86 90 94 95 96 98 98 96 95 96 97 96 96 96 95 96 94 92 93 90 93
96 97 94 94 99 96 97 100 100 100 98 92 93 96 92 90 82 82 88 90 94 91 88 87 90 90 92 92 95 96 94 97 98 97 96 92 95 97 96 96 96 96 97 97 97 96 96 97 96 96 94 94 92 93
96 99 98 100 100 100 99 94 95 92 88 90 90 91 86 84 97 98 95 95 95 95 96 96 95 96 96 95 97 97 97 98 98 98 97 95 96 96 95 95 95 96 97 95 94 96 96 97 100 100 98 96 95 93
95 94 98 100 100 99 93 93 95 96 96 94 93 92 92 98 94 94 92 92 94 97 96 96 96 96 96 97 97 94 96 96 96 97 96 96 96 96 96 96 95 95 95 96 96 94 93 93 91 94 92 93 93 93
98 97 98 98 99 96 96 99 99 100 100 99 100 94 91 99 97 93 92 94 93 92 92 92 92 95 95 95 96 96 96 96 96 95 95 95 95 95 96 95 95 96 97 96 95 95 95 94 96 95 94 95 94 94
98 98 100 100 97 95 99 100 100 99 100 99 93 100 100 96 99 98 95 93 90 92 90 93 94 95 95 96 96 96 95 96 95 95 94 95 95 95 93 93 95 97 96 96 96 95 94 95 95 95 95 95 95 94
99 98 99 100 96 82 90 83 92 92 97 98 99 100 100 96 99 98 95 92 96 96 95 95 95 96 96 95 95 95 94 95 95 95 94 94 94 94 93 95 96 96 94 95 96 95 95 94 96 96 96 96 96 96

GFSWCAN_sfc_rhum_024.txt.gz
RH
99 99 97 96 95 95 95 95 96 97 98 98 97 97 95 95 93 71 84 83 64 82 64 66 57 56 55 52 79 73 73 83 97 100 100 98 100 71 66 49 66 67 98 100 95 100 96 40 45 73 62 56 53 60
98 99 99 97 96 95 95 95 96 97 98 98 97 97 96 95 94 84 70 82 82 71 69 76 74 64 59 46 53 73 61 66 73 95 99 100 100 98 98 84 48 67 54 58 57 60 41 38 48 46 52 62 76 89
98 97 98 99 98 97 96 96 96 96 97 97 97 98 96 95 94 82 74 83 74 97 74 71 72 65 64 60 53 70 79 60 67 67 87 98 100 81 100 88 63 48 46 70 67 48 42 46 46 69 70 87 85 85
96 96 97 98 99 97 97 97 97 97 97 97 97 97 97 94 94 87 80 80 77 90 100 76 62 62 59 64 63 60 63 71 72 78 100 100 100 64 90 71 77 53 49 59 62 56 56 53 69 82 86 84 71 49
94 94 96 96 98 99 97 97 98 98 98 97 97 98 97 95 94 87 84 82 78 73 99 92 69 66 60 64 67 65 66 75 95 100 100 100 84 89 89 92 95 53 57 79 87 65 78 87 91 87 82 57 41 40
93 94 95 95 95 98 98 97 97 98 98 99 98 98 98 95 95 77 80 82 81 74 98 100 76 74 65 64 72 74 70 82 92 95 100 89 71 85 100 100 65 55 53 57 78 70 83 90 87 70 47 42 36 36
94 95 95 95 95 96 98 99 97 97 97 98 99 99 98 96 91 81 77 84 91 78 100 100 98 77 70 69 72 73 84 88 85 99 100 98 95 86 100 100 80 67 59 63 68 76 95 94 87 47 41 36 36 29
92 93 94 95 95 96 97 99 98 97 97 98 98 99 98 97 97 93 91 97 88 92 98 100 100 96 72 96 99 86 98 100 100 99 100 100 98 100 100 79 64 60 60 62 62 63 69 52 44 39 30 30 33 31
91 91 91 94 94 95 96 98 99 98 97 98 99 98 97 98 100 99 94 91 92 90 100 100 100 100 79 94 96 98 95 100 98 100 100 99 100 99 86 72 69 70 65 60 52 44 38 36 29 29 30 31 36 38
93 92 91 94 95 96 96 97 99 99 99 98 96 99 100 100 98 97 96 100 100 100 100 100 97 100 85 100 100 100 100 100 100 98 80 100 99 75 65 62 59 60 59 58 52 36 34 37 34 37 38 38 41 43
94 91 90 93 95 96 98 98 99 98 96 99 100 100 100 98 95 99 100 100 100 100 100 99 99 100 94 99 100 100 100 100 100 87 97 94 88 72 56 50 45 46 40 32 32 33 32 36 40 46 47 50 55 59
92 91 90 93 94 97 97 97 96 98 99 99 97 97 98 99 100 100 100 100 100 100 100 100 99 98 100 100 100 100 100 100 98 74 99 89 66 62 54 49 52 48 35 33 31 34 36 41 47 55 57 57 67 72
93 94 91 93 94 96 94 96 94 97 96 97 97 100 100 100 100 100 100 100 100 98 93 100 100 100 100 98 100 100 100 100 85 98 81 64 66 59 52 44 41 37 42 53 35 37 43 50 58 71 81 81 91 84
94 94 93 94 94 96 93 94 92 90 93 100 100 100 100 100 99 97 97 98 99 100 100 100 100 99 100 100 100 100 95 87 96 91 91 74 66 61 47 45 42 39 83 65 51 51 74 90 87 92 92 93 92 91
93 95 94 90 93 95 94 88 88 69 89 100 100 99 98 97 99 100 100 100 98 97 96 98 98 92 100 100 94 97 99 91 78 80 76 65 65 54 52 52 45 63 93 76 51 78 96 93 92 89 90 93 90 94
94 96 91 87 87 89 91 92 85 79 100 96 96 96 97 100 100 100 100 100 97 98 97 94 98 100 99 94 98 94 84 78 78 81 70 60 58 55 50 54 52 49 54 54 56 62 71 92 95 78 84 95 96 99
97 98 90 87 83 80 79 84 81 99 93 99 96 96 95 100 100 100 100 99 94 99 99 88 91 86 84 91 91 76 88 83 74 73 59 54 53 46 47 53 78 72 61 57 59 62 66 72 94 95 96 72 80 85
99 93 88 85 83 82 81 83 94 91 88 86 88 99 94 96 99 100 100 93 96 81 76 75 64 82 77 76 74 76 73 70 63 56 47 51 53 53 52 53 52 54 58 62 84 78 78 96 84 65 68 64 73 79
96 87 89 85 83 83 90 97 82 80 86 87 90 88 90 98 94 93 97 96 84 75 81 83 87 74 70 60 81 80 80 75 57 45 47 51 55 57 59 56 61 60 60 64 66 64 60 65 69 70 69 69 75 78
94 91 90 88 77 90 99 93 75 71 78 81 84 85 89 91 96 100 100 98 86 100 100 94 80 74 68 57 54 57 51 52 55 67 60 52 56 58 59 58 56 56 60 64 70 81 71 70 66 70 77 76 89 89
92 96 87 84 83 82 84 85 84 80 79 80 83 80 93 91 97 100 100 93 99 88 73 68 84 72 63 59 54 52 56 57 58 66 67 62 53 61 60 58 60 66 73 76 91 80 91 90 80 78 99 100 100 100
98 86 97 80 91 94 86 82 78 78 78 85 84 81 94 98 99 97 89 93 83 68 62 69 57 56 60 62 57 58 59 59 60 64 77 74 73 68 67 67 71 87 87 98 86 100 97 83 88 91 90 91 92 98
90 90 94 93 86 91 96 76 85 76 82 89 86 88 92 94 89 84 91 72 68 58 55 56 56 60 60 55 59 58 58 62 62 61 68 70 68 72 78 75 78 96 98 81 77 92 98 87 92 97 96 94 94 93
75 95 94 89 85 98 89 90 82 86 88 86 83 76 82 90 88 92 91 84 68 62 64 62 61 56 55 61 59 49 51 59 61 65 70 74 72 67 65 69 74 82 82 80 91 99 98 100 95 95 95 97 96 96
92 94 84 95 89 90 88 88 89 88 98 93 88 86 90 90 94 97 89 70 78 79 70 60 61 57 58 55 54 55 64 60 62 65 62 70 76 81 77 72 77 82 91 100 100 98 95 100 100 98 91 96 90 89
91 93 82 87 91 80 89 93 90 92 92 99 94 86 92 92 87 77 63 78 91 71 97 92 84 63 54 52 57 56 58 65 69 75 67 66 76 91 98 95 92 89 92 98 100 96 87 84 88 89 86 86 86 87
92 92 84 76 72 78 91 91 85 88 98 98 88 94 89 85 79 62 60 77 74 84 81 78 78 73 72 70 69 72 78 81 90 78 75 77 79 86 97 98 95 90 90 95 99 95 91 88 88 88 86 88 86 87
88 84 95 94 91 82 89 89 91 95 84 74 82 91 85 78 67 79 84 79 83 80 77 74 78 78 80 86 87 90 91 92 93 97 96 94 90 94 93 94 93 94 97 100 100 97 94 94 94 91 89 90 89 87
92 91 89 97 94 95 89 82 82 73 66 74 82 75 77 76 90 86 80 80 79 82 84 86 85 86 81 79 81 86 90 92 94 95 94 93 97 94 92 94 93 92 93 93 90 94 94 93 93 92 92 92 90 87
92 91 93 95 99 94 90 86 93 92 76 80 75 73 78 88 86 77 80 82 86 92 91 89 89 90 91 91 89 86 91 93 94 95 94 94 94 94 93 93 93 93 94 94 92 88 84 88 84 87 87 89 90 89
89 91 92 90 92 94 96 95 94 93 93 90 94 88 82 90 88 83 84 85 85 85 88 89 87 86 88 87 90 90 90 89 91 92 92 93 93 93 93 93 93 93 92 91 91 90 90 89 90 89 89 89 89 89
93 90 93 97 95 92 90 92 93 95 90 85 86 91 93 91 92 86 87 85 85 88 89 89 91 90 88 89 91 90 90 90 89 91 91 92 93 93 93 92 92 92 91 91 90 90 88 89 90 89 89 89 89 89
94 94 94 96 93 75 84 84 75 80 84 86 93 92 92 90 91 88 78 82 88 90 91 90 89 90 89 88 89 90 86 88 88 89 90 92 92 93 93 92 91 91 89 90 90 89 88 87 89 89 90 90 90 89

GFSWCAN_sfc_rhum_027.txt.gz
RH
98 97 96 95 94 94 95 95 96 99 98 98 96 95 94 94 91 65 64 67 56 64 54 50 45 49 47 42 74 58 62 70 89 100 100 95 100 62 57 36 62 75 95 98 91 99 90 33 37 68 61 52 68 64
99 99 97 96 95 95 95 95 96 97 97 97 97 96 95 93 94 89 49 59 58 48 60 62 62 57 54 48 39 60 47 56 57 81 97 97 100 97 90 72 32 56 50 62 61 61 41 38 47 55 55 65 73 85
98 98 99 98 96 96 95 95 96 97 97 97 96 96 95 93 92 82 53 59 49 91 58 56 60 58 50 55 50 59 66 43 54 57 82 95 100 78 100 80 53 41 34 70 64 42 39 46 51 60 62 71 76 75
98 98 97 98 98 97 96 96 96 96 96 96 96 97 95 93 92 82 54 60 54 75 100 70 50 56 52 53 53 53 54 61 59 63 100 100 100 53 79 59 60 49 42 50 60 46 51 72 79 80 75 78 69 44
96 97 98 97 99 98 98 98 98 97 97 96 96 97 96 92 93 67 61 64 61 58 93 81 57 55 50 53 56 54 55 61 78 100 100 98 73 78 76 78 74 46 48 71 84 74 85 89 85 79 76 50 38 36
94 95 97 97 96 98 98 98 98 98 98 97 97 97 97 94 92 54 60 61 60 58 95 100 62 62 53 53 58 59 56 73 74 88 97 73 51 67 100 92 47 41 41 58 61 76 86 83 80 62 50 40 34 33
94 94 94 95 96 96 97 98 98 98 98 98 98 98 98 96 71 61 60 75 84 57 100 100 89 68 59 58 59 61 78 85 76 80 99 82 74 67 100 94 46 55 54 60 67 74 93 86 77 51 40 34 31 24
91 92 94 94 94 94 95 98 98 97 98 98 98 99 97 97 95 80 75 90 80 70 88 100 98 91 63 90 98 69 92 94 91 82 99 95 78 97 100 68 57 54 55 65 71 71 58 54 42 35 26 24 25 26
91 92 92 93 94 94 95 96 98 98 97 98 99 98 95 98 100 86 93 87 78 78 100 100 100 100 67 82 92 95 89 100 96 100 100 97 100 98 76 65 63 59 63 73 52 40 35 32 27 25 25 27 30 31
89 90 91 94 95 96 96 96 97 98 98 98 96 100 100 100 97 95 94 100 100 100 100 100 84 99 70 98 100 98 100 100 100 99 84 100 99 76 60 57 57 62 63 52 52 39 35 34 30 30 30 30 34 37
88 89 90 94 96 95 95 97 97 99 98 99 100 100 100 97 92 99 100 100 100 100 100 93 88 98 85 98 100 100 100 100 100 95 98 100 82 67 58 58 55 52 44 32 31 30 27 28 31 35 39 46 52 51
88 91 90 93 96 95 94 94 93 96 99 99 98 97 98 98 100 100 100 100 100 100 100 100 99 97 100 96 100 100 100 100 99 68 98 89 61 56 52 47 45 40 35 31 28 28 28 28 34 44 51 53 53 67
90 92 90 93 95 94 95 96 96 97 96 96 97 100 100 100 100 100 100 100 100 100 98 100 100 100 100 100 100 100 100 100 77 98 78 59 58 52 47 44 42 36 37 42 29 28 31 38 49 66 73 73 96 76
90 92 91 92 95 95 94 86 88 91 93 100 100 100 100 100 100 100 100 100 99 100 100 100 100 100 100 100 100 100 99 83 98 91 88 63 56 50 44 41 38 39 84 62 49 44 52 82 83 98 100 99 99 91
90 92 91 93 94 93 91 88 83 81 92 100 100 100 100 100 100 100 100 100 100 99 100 100 100 98 100 100 100 99 100 94 75 76 74 57 57 55 52 50 41 46 97 81 44 70 99 100 95 85 86 90 84 100
92 92 86 93 96 91 89 86 92 70 100 100 100 100 100 100 100 100 100 100 96 98 97 95 100 100 100 96 99 100 94 79 78 75 59 56 60 55 51 46 46 43 45 46 46 48 61 93 100 74 74 92 99 100
92 93 91 89 90 90 90 94 90 99 100 100 99 100 100 100 100 100 100 100 93 100 100 98 100 100 92 96 91 72 90 84 69 65 55 55 52 46 40 44 78 61 56 53 52 51 56 62 88 94 94 65 64 74
89 90 89 85 81 83 78 74 94 92 95 79 92 100 91 97 100 100 100 93 98 86 78 81 66 88 87 83 75 75 64 62 59 57 43 42 43 46 44 48 46 48 50 53 68 66 68 90 81 61 53 52 63 70
88 93 88 87 85 80 84 94 75 84 84 79 84 83 90 98 93 93 98 94 86 76 81 82 96 75 70 53 75 74 70 63 51 44 44 44 48 52 54 52 56 55 55 54 55 56 54 54 57 57 60 66 76 81
95 93 84 81 86 90 98 91 64 66 76 74 76 81 87 90 97 100 100 94 80 100 100 94 74 64 58 49 44 50 46 49 46 56 53 45 42 47 55 56 54 52 51 52 56 72 61 61 53 58 70 78 93 93
91 96 88 82 85 79 76 75 78 69 68 70 72 68 89 88 95 98 99 90 100 90 71 61 75 65 57 55 50 48 51 50 50 54 57 54 48 48 50 50 53 54 60 66 88 76 86 85 76 82 100 100 97 95
98 91 99 81 100 95 84 76 71 70 71 76 78 70 94 99 98 95 84 95 83 62 54 58 51 48 50 54 53 52 54 54 54 55 70 64 62 60 59 56 59 75 78 95 79 98 96 82 91 99 100 100 96 97
94 97 98 96 98 99 97 70 92 67 90 90 80 89 92 92 84 74 90 68 63 51 50 48 48 53 56 51 49 51 50 53 52 50 56 57 57 62 66 65 68 92 98 80 72 85 95 94 99 100 100 100 100 100
87 99 100 98 91 96 100 92 72 76 83 83 81 86 79 84 79 86 84 72 55 47 51 51 51 50 46 50 50 41 40 41 48 49 53 60 64 59 54 56 63 71 78 84 94 98 99 100 97 99 100 100 98 99
97 96 97 92 89 89 88 90 88 84 85 84 85 85 89 84 90 83 85 57 81 90 85 65 54 48 48 47 45 45 49 52 58 61 58 62 70 73 69 63 65 73 93 100 100 100 100 100 100 100 93 98 91 86
92 92 87 87 87 81 80 85 85 85 83 88 88 82 95 91 84 78 52 85 91 80 95 93 85 72 60 57 63 64 66 67 71 76 64 65 86 98 99 95 94 92 85 98 100 99 92 88 85 87 89 88 87 89
84 89 82 66 62 70 86 86 75 85 85 82 83 89 88 80 73 59 70 76 75 80 75 73 76 76 74 70 73 76 78 78 88 88 84 82 83 88 99 98 98 100 96 97 100 100 97 86 85 84 85 86 90 92
84 79 86 91 82 74 82 80 85 82 82 62 74 86 78 69 71 82 78 73 76 69 66 65 67 70 73 75 74 79 80 79 81 80 77 77 92 94 93 96 96 97 98 100 100 100 97 95 94 90 89 92 91 90
87 82 82 91 87 90 86 81 79 64 56 69 86 75 83 78 84 81 76 74 74 77 79 80 82 81 76 74 76 84 84 85 87 86 86 87 88 89 93 92 91 92 94 94 94 97 96 94 94 91 89 88 85 89
90 85 88 84 88 83 95 88 96 100 70 82 76 72 75 85 84 74 76 78 83 88 86 84 84 84 86 85 84 81 88 86 88 91 92 90 91 90 88 89 91 92 93 94 94 93 94 90 86 87 82 82 84 84
83 87 90 90 90 91 96 100 100 99 100 95 96 98 88 88 87 80 79 80 81 82 83 84 83 82 85 85 87 87 86 81 83 82 85 88 89 89 89 89 90 91 92 93 93 94 92 90 84 82 82 83 83 84
91 86 89 84 90 94 100 100 100 100 99 94 91 88 87 84 85 84 83 82 81 84 83 83 86 87 84 85 87 87 87 85 85 85 83 87 88 87 89 88 90 91 92 92 92 92 91 88 85 84 82 83 85 84
92 91 89 91 88 80 92 83 68 72 84 85 87 85 87 86 84 86 75 78 84 85 86 85 83 82 84 83 82 85 81 78 79 80 83 83 85 88 90 90 91 92 92 92 92 91 89 83 84 83 84 85 85 84

GFSWCAN_sfc_rhum_030.txt.gz
RH
94 94 94 94 94 94 97 98 97 98 98 97 96 95 93 92 92 74 69 70 65 68 54 47 41 44 45 50 82 58 67 75 96 100 100 97 100 76 61 37 78 81 94 97 89 99 87 35 44 82 68 61 68 68
95 95 95 95 94 95 95 96 97 99 98 96 96 95 94 92 91 90 55 58 64 59 65 59 60 56 53 50 46 62 52 62 70 89 95 96 100 100 97 81 27 63 63 75 71 74 50 48 64 64 65 73 73 70
99 98 96 95 95 95 95 95 97 97 97 96 95 95 94 92 91 87 58 64 58 92 63 61 63 54 50 54 54 67 76 44 52 64 85 96 100 87 100 86 56 35 30 72 64 44 39 60 64 64 67 76 70 64
98 99 98 97 96 95 95 96 96 97 97 96 95 95 94 93 93 92 58 63 60 82 100 73 47 54 49 51 50 54 56 65 66 74 100 100 100 58 92 68 71 55 47 52 55 43 45 71 73 74 78 70 57 44
98 98 98 99 98 97 97 97 97 96 96 96 96 96 92 92 92 68 63 61 61 65 96 83 51 51 47 50 52 52 60 66 83 100 100 99 85 87 87 86 88 51 52 73 79 64 64 83 86 82 76 55 39 36
98 98 98 98 98 98 98 98 98 98 97 96 96 96 96 95 95 61 62 62 61 60 96 100 63 60 50 50 54 57 56 75 80 97 98 84 51 82 100 92 50 35 34 52 61 66 72 80 78 68 56 41 34 33
95 97 97 97 97 97 97 99 99 99 99 98 97 98 97 94 75 70 69 84 90 70 100 100 95 66 57 54 60 71 75 87 89 93 100 90 82 69 100 98 45 40 47 54 63 72 88 81 68 57 45 35 33 23
92 94 94 96 97 96 96 98 98 99 99 99 99 98 96 99 94 80 83 86 86 73 88 100 98 93 62 95 98 70 98 93 88 88 99 93 80 100 100 70 49 43 54 64 69 69 65 58 51 39 28 24 26 27
90 91 94 95 96 97 96 95 97 98 99 99 99 96 94 94 93 85 94 92 74 79 100 100 100 100 65 87 94 98 92 100 96 100 99 91 100 97 79 64 55 55 60 64 57 47 40 37 30 27 26 28 30 32
89 91 93 95 95 93 95 96 96 98 99 98 95 99 100 100 96 98 83 97 100 100 100 100 80 97 70 99 100 100 100 100 100 99 90 100 98 76 60 54 54 55 64 59 58 46 37 36 33 31 31 31 37 43
90 90 93 95 95 95 95 96 98 99 97 99 100 100 100 96 88 98 100 100 100 100 100 96 90 97 83 95 100 100 100 100 100 96 98 99 94 71 62 60 60 62 60 48 35 32 29 30 32 35 40 53 66 67
92 91 94 96 95 96 93 96 93 94 99 99 97 97 97 98 100 100 100 100 100 100 99 99 99 94 100 92 100 100 100 100 100 86 100 93 67 63 59 58 55 49 37 33 30 29 29 29 34 54 64 68 69 79
92 92 94 95 95 92 94 95 95 97 95 96 97 100 100 100 100 100 100 100 100 100 99 100 100 100 100 99 100 100 100 100 91 100 88 76 63 52 49 46 45 39 49 50 31 32 34 40 51 76 80 79 88 82
91 93 94 95 94 89 86 88 88 89 93 100 100 100 100 100 100 100 100 100 100 100 100 100 100 100 100 100 100 100 100 99 98 96 87 80 56 49 45 45 43 46 70 65 66 58 63 82 86 90 98 93 96 95
88 91 93 95 93 89 85 83 79 72 94 100 100 100 100 100 100 100 100 100 100 100 100 100 100 100 100 100 100 100 99 96 92 94 96 77 63 59 57 50 47 64 91 84 62 73 86 90 93 88 88 90 88 94
90 90 87 92 90 89 89 85 88 67 100 100 100 100 100 100 100 100 100 100 100 100 100 100 100 100 100 100 99 100 97 93 100 92 81 72 72 70 65 62 61 58 64 66 65 65 68 85 89 79 83 94 90 90
93 88 94 96 93 87 81 93 96 100 99 100 100 100 100 100 100 100 100 100 99 100 100 100 100 97 97 97 95 92 99 96 89 86 79 75 70 66 59 58 76 70 71 68 67 67 68 71 85 90 89 79 78 81
77 88 89 86 77 77 68 72 96 95 91 78 96 100 94 99 100 100 100 96 99 92 91 95 81 94 89 82 80 89 86 88 84 78 66 60 53 59 56 64 57 63 65 66 71 72 72 84 81 80 76 68 70 78
83 87 87 83 82 80 90 91 76 85 82 80 86 81 88 99 98 99 100 96 87 88 92 92 94 78 80 73 96 94 93 87 70 64 59 59 64 66 66 66 71 69 67 67 68 67 66 70 71 67 66 69 80 85
92 92 92 89 86 98 98 86 65 67 75 74 77 84 90 94 98 100 100 100 96 100 100 93 80 83 81 73 65 73 73 73 69 75 68 62 64 63 67 73 69 68 66 66 68 77 71 71 67 66 75 86 95 94
91 96 92 89 97 95 90 73 75 67 66 71 76 73 87 89 92 99 100 94 100 94 77 74 91 81 74 76 69 69 69 65 65 72 70 66 66 74 66 63 66 68 71 74 86 80 84 83 81 89 100 100 100 98
98 92 100 95 100 96 82 72 72 67 76 77 76 71 88 93 91 90 89 95 83 68 62 71 64 64 65 66 65 64 69 69 71 72 76 72 70 70 70 70 72 79 82 91 77 87 91 88 93 100 100 100 99 95
94 98 100 100 100 100 95 72 92 69 85 88 80 84 85 84 86 74 84 69 64 54 56 53 51 60 68 65 62 62 63 66 64 64 73 68 67 70 72 71 74 85 84 80 78 90 100 94 97 100 100 99 99 95
96 100 100 100 94 94 98 88 68 72 79 82 82 81 75 79 77 81 79 69 55 54 54 54 54 54 59 63 60 56 64 61 62 64 66 67 67 66 66 69 70 71 72 76 84 97 100 100 99 100 97 94 92 95
100 98 99 93 87 85 83 85 84 78 80 79 78 81 86 81 84 76 77 76 91 90 88 80 71 64 60 66 67 69 76 83 85 85 76 73 80 84 82 78 78 83 84 90 99 100 100 100 100 94 91 95 97 94
95 96 95 83 85 81 77 83 81 80 78 83 81 83 86 82 80 74 63 95 95 86 92 90 88 78 70 68 70 78 79 78 83 82 75 79 82 87 91 92 90 87 92 98 99 100 100 99 93 90 94 94 97 97
93 85 78 64 62 70 85 81 72 79 81 78 80 84 82 82 74 82 76 81 81 82 71 73 70 71 71 70 72 72 79 82 85 81 74 74 90 92 95 96 94 94 91 94 97 98 98 97 96 93 96 96 97 97
79 80 86 86 78 71 78 76 80 78 75 59 73 80 78 70 85 85 82 76 77 71 67 67 69 70 74 77 79 83 82 81 78 74 71 84 82 82 83 85 85 86 90 92 95 95 96 96 96 96 97 97 97 96
86 82 79 89 83 85 79 76 74 60 56 68 80 73 89 79 88 84 80 78 76 77 78 80 83 82 78 74 81 87 83 85 88 89 86 89 88 86 84 87 87 87 88 90 86 89 95 96 95 96 95 96 96 96
90 89 82 82 87 81 95 96 98 95 75 91 79 72 77 85 87 78 81 80 82 88 88 86 85 84 86 85 85 82 88 90 88 90 93 92 93 90 89 89 89 89 89 90 91 89 88 90 93 96 96 95 92 94
83 84 82 81 82 91 94 94 93 93 96 89 95 92 90 89 89 80 80 83 84 85 83 84 82 83 85 86 88 88 88 82 87 86 86 90 90 90 90 90 90 91 91 92 92 93 94 94 95 95 94 94 91 90
83 85 78 77 88 92 88 88 87 87 92 85 91 90 89 88 90 89 83 88 85 84 85 82 84 85 82 82 85 86 91 88 86 88 83 90 89 87 87 87 89 91 92 93 94 95 93 93 94 94 94 91 89 89
84 83 84 82 80 77 83 81 64 67 78 74 87 82 88 91 91 90 78 79 82 82 83 83 82 82 85 88 80 85 77 79 78 86 85 89 88 88 88 88 90 90 91 94 94 94 93 93 94 94 93 91 88 89

GFSWCAN_sfc_rhum_033.txt.gz
RH
94 93 93 93 94 97 98 96 96 98 98 96 95 94 92 92 91 90 89 87 89 95 82 77 76 78 64 79 91 79 80 88 98 97 98 99 98 90 78 69 86 87 95 94 89 90 95 52 61 67 78 87 81 82
94 93 94 94 94 97 99 98 99 98 99 96 96 95 92 92 92 93 87 79 85 92 92 81 75 70 77 82 77 78 69 86 94 98 99 100 100 100 98 85 59 84 80 92 80 82 64 65 71 83 80 85 84 76
94 94 94 94 94 95 96 96 98 98 97 96 95 95 93 93 92 92 91 92 92 99 91 88 86 74 62 70 73 84 90 70 84 90 97 97 99 97 96 93 75 56 57 84 78 60 70 84 81 77 79 86 81 73
98 95 94 95 95 95 95 96 98 98 97 96 96 94 95 94 92 89 94 94 92 99 100 91 59 71 59 65 65 70 80 89 92 96 100 100 99 85 97 78 82 68 63 65 73 77 87 86 86 87 87 83 72 63
98 99 96 96 95 95 96 96 97 98 97 96 96 96 96 94 93 90 93 92 89 90 99 96 71 64 58 64 67 73 80 88 98 100 100 100 97 91 97 91 97 71 70 85 88 76 82 93 91 88 87 71 64 50
98 98 99 98 97 96 96 96 97 97 97 97 97 98 96 93 95 94 95 95 93 95 98 99 82 75 65 66 72 85 88 94 96 100 100 98 86 91 98 99 72 56 54 65 86 87 91 94 91 82 70 61 46 41
97 98 98 98 98 98 98 98 98 99 98 98 99 97 95 92 93 94 93 96 99 95 100 100 96 84 72 75 91 93 93 97 95 98 100 96 94 95 100 99 75 60 72 77 80 85 94 90 89 68 61 49 37 33
96 98 98 98 97 97 98 99 99 100 99 99 98 96 97 99 98 97 97 92 99 96 100 100 100 97 80 99 100 96 100 98 98 100 100 97 97 99 97 88 73 60 76 81 84 79 80 77 66 62 53 37 38 41
94 96 97 97 96 96 96 97 98 98 99 99 97 94 95 97 98 99 97 98 97 95 99 100 99 96 87 98 99 98 99 100 99 100 100 97 100 98 91 83 75 74 79 84 75 62 60 62 44 38 37 40 46 53
93 96 96 95 95 95 96 95 98 98 99 98 95 98 100 100 96 97 96 99 100 100 100 100 96 98 91 100 100 100 100 100 100 99 98 100 99 92 85 69 69 75 70 66 68 58 53 47 46 44 42 56 60 63
93 96 96 95 95 96 96 97 98 99 95 98 100 100 99 94 97 100 100 100 100 100 100 99 96 96 95 99 100 100 100 100 97 94 98 99 99 90 76 77 77 73 65 59 44 39 37 42 46 57 62 72 72 75
94 95 95 95 96 95 97 97 96 97 99 98 96 96 96 98 100 100 100 100 100 99 99 100 100 99 100 98 100 100 99 99 97 96 100 96 92 79 74 75 70 68 53 38 38 43 47 47 63 67 68 73 78 84
94 95 94 90 92 93 94 94 95 96 96 97 98 100 100 100 100 100 97 100 100 100 99 100 100 100 100 100 100 100 100 98 99 100 97 97 76 69 67 62 54 46 55 55 49 51 52 54 61 69 76 80 92 89
94 96 96 88 86 86 87 88 90 90 93 100 100 99 100 99 99 99 100 100 100 100 100 100 100 100 100 100 100 99 99 99 99 99 97 95 79 62 59 60 58 56 72 64 65 66 64 70 84 88 93 93 96 98
93 94 92 92 88 88 87 84 82 89 99 100 100 99 99 100 100 100 100 100 100 100 100 100 100 99 100 99 100 99 99 98 99 99 100 96 78 71 69 67 66 69 86 83 73 77 82 87 91 85 88 90 90 94
88 88 93 90 90 87 86 86 93 91 99 99 99 99 100 100 100 100 100 100 100 100 100 100 100 100 99 99 99 99 98 98 99 100 96 84 80 78 75 69 66 62 63 67 72 74 76 86 87 80 86 93 92 92
87 96 94 93 88 76 80 93 97 98 96 99 98 100 100 100 100 100 100 100 99 100 100 100 98 98 99 99 98 100 99 99 98 97 92 81 77 74 67 66 77 72 71 73 75 76 77 76 89 92 89 80 88 89
92 95 94 90 84 84 87 93 99 97 93 99 99 99 98 100 100 100 100 100 100 98 98 98 96 98 98 98 99 98 97 96 96 92 78 69 65 68 63 67 67 72 75 75 77 76 77 89 86 84 86 87 91 90
96 93 86 83 90 92 94 95 93 94 95 97 98 98 96 100 99 100 100 100 98 97 94 97 94 95 94 94 97 98 97 96 85 75 72 64 63 67 69 72 73 75 77 78 79 86 87 81 86 87 90 95 97 98
91 92 92 89 86 99 96 95 89 91 95 96 91 97 98 99 99 100 100 100 99 97 98 96 96 97 96 91 80 90 90 85 83 92 89 76 78 71 72 76 85 82 86 83 84 88 89 92 93 94 97 97 97 97
92 95 90 93 98 95 94 97 92 87 89 95 96 94 96 98 98 98 100 99 98 99 96 95 96 95 86 89 80 80 79 76 84 91 95 92 80 91 80 87 85 91 93 91 91 90 95 94 92 98 100 98 100 99
99 87 99 98 100 99 95 95 96 94 94 91 94 94 92 94 93 96 88 98 98 94 88 91 81 82 81 80 80 78 76 73 73 84 86 91 92 94 92 94 95 93 93 93 93 89 91 94 98 100 99 98 98 99
92 98 100 100 99 95 96 96 88 88 86 96 94 93 92 90 96 95 87 94 94 83 82 78 74 71 74 72 68 79 83 77 92 90 90 92 95 92 90 91 94 94 94 91 94 95 94 97 96 98 97 99 100 99
98 99 99 99 99 97 95 93 92 92 94 93 96 92 95 96 95 96 96 96 98 94 92 91 88 81 82 82 97 94 90 89 90 89 87 90 94 91 86 86 86 91 95 95 93 90 88 88 93 98 98 98 98 99
99 98 99 98 99 98 92 92 93 94 92 92 87 95 98 96 98 96 91 99 98 98 95 91 89 88 90 94 90 88 84 85 91 90 87 86 90 91 90 90 93 95 89 92 91 94 93 92 98 99 98 100 98 98
98 98 98 97 97 96 92 95 93 92 93 91 92 98 96 96 96 93 95 98 98 95 97 95 93 94 85 86 89 90 94 88 85 92 85 87 95 95 95 94 93 90 89 94 95 94 93 92 95 98 98 98 99 98
97 97 95 84 87 92 94 94 93 92 92 93 96 97 97 99 94 95 93 94 94 94 87 84 83 87 90 87 83 90 89 89 92 86 80 89 88 87 93 96 94 94 88 92 93 94 95 95 96 95 96 96 98 98
92 90 94 92 93 94 90 93 92 91 90 92 92 94 94 93 97 95 94 93 92 86 84 85 86 92 92 93 95 96 96 95 91 86 86 86 87 93 85 88 90 86 87 89 90 91 94 95 95 96 96 97 98 97
95 97 92 96 93 94 91 91 91 95 95 92 92 96 98 90 98 97 97 95 95 92 93 96 98 97 94 95 95 98 97 97 93 95 96 95 92 89 88 88 88 88 88 90 87 87 87 94 95 95 95 97 96 95
97 97 95 92 95 94 100 99 99 94 97 99 94 91 89 96 98 97 97 96 97 99 98 98 98 97 99 99 98 95 98 98 99 100 100 100 95 94 92 89 90 89 90 91 90 88 87 89 90 95 95 96 96 96
96 96 87 88 96 99 99 93 95 95 90 96 96 96 96 98 98 97 97 98 97 96 96 97 98 98 98 99 100 100 98 98 97 98 97 98 98 99 98 93 89 91 93 91 92 92 94 94 96 95 95 95 96 96
91 97 87 93 99 96 86 87 84 85 96 88 99 98 100 98 99 99 97 98 97 98 99 98 100 100 98 98 98 98 97 97 97 96 97 98 98 98 93 93 91 92 98 94 92 94 95 95 95 96 96 96 96 96
92 90 92 93 95 94 94 94 89 89 93 95 98 97 99 98 100 99 96 95 96 98 99 99 99 98 98 97 97 97 94 96 96 94 96 97 92 98 95 93 94 98 98 94 95 95 95 96 96 96 96 97 98 98

GFSWCAN_sfc_rhum_036.txt.gz
RH
95 93 93 93 95 98 96 95 95 98 98 97 95 94 94 94 94 80 91 91 84 96 93 87 83 76 80 82 86 79 76 85 99 87 86 94 99 86 84 75 84 89 94 96 95 95 86 56 60 64 68 91 88 89
94 93 93 94 98 98 97 96 97 99 97 96 96 95 95 94 94 90 79 90 90 91 92 82 82 80 80 79 83 81 64 87 87 96 99 98 99 100 96 86 67 68 71 85 77 79 62 68 64 85 85 88 85 85
95 93 93 95 99 99 99 99 98 99 96 96 96 96 95 93 94 86 94 96 93 97 90 90 88 72 64 78 76 81 93 80 90 85 98 98 93 96 98 96 83 61 68 87 79 65 74 89 86 82 82 86 82 77
95 94 94 94 97 97 96 97 98 98 97 96 97 96 94 93 93 89 95 97 91 99 100 91 68 73 62 69 73 77 84 93 94 96 100 100 98 86 93 76 81 63 66 74 80 94 91 90 89 88 88 83 74 69
95 94 94 94 95 95 96 97 98 98 97 97 97 96 94 92 94 92 97 98 95 70 99 97 78 70 64 70 79 80 84 91 98 100 100 97 97 95 98 93 96 77 72 85 88 71 80 88 91 88 87 78 67 63
97 95 95 95 95 96 96 97 98 98 98 98 98 95 93 92 94 90 91 95 96 94 96 93 92 80 72 83 87 91 94 96 97 99 99 98 92 90 99 99 78 71 63 64 77 91 92 93 91 84 75 66 61 45
98 99 98 96 96 96 96 97 98 98 98 99 98 99 99 91 94 91 82 96 98 93 98 100 97 88 80 87 94 95 94 97 95 99 99 96 93 96 100 98 70 69 80 86 85 86 95 93 92 77 65 51 45 43
98 98 98 99 98 98 97 98 99 99 99 98 96 99 98 99 98 95 98 98 97 95 96 99 96 95 84 100 100 98 100 98 99 100 100 98 98 100 99 94 81 80 87 88 88 84 80 80 74 69 54 42 46 49
98 97 97 97 98 98 98 98 98 99 99 97 95 93 93 97 98 99 99 97 95 89 100 99 92 92 90 100 99 98 99 100 99 100 100 98 99 98 92 90 86 89 88 90 83 73 72 69 58 44 45 49 53 58
97 97 97 96 97 96 98 98 98 99 99 94 93 97 99 100 95 93 94 98 100 100 100 100 98 98 93 100 100 100 100 100 100 96 98 100 99 93 92 86 79 84 86 77 75 67 54 54 51 51 56 60 63 64
95 96 97 97 97 96 97 98 98 98 91 97 100 100 98 90 96 99 100 99 100 99 100 98 98 98 96 98 100 99 100 100 96 92 97 98 98 93 87 87 78 69 66 59 47 45 46 50 56 63 68 72 72 74
93 94 95 96 97 98 99 98 95 96 99 96 96 95 94 97 99 100 100 100 100 99 100 100 100 99 100 98 99 100 99 100 96 98 100 98 94 86 84 81 74 56 44 44 49 52 56 58 60 62 62 65 72 82
94 90 89 92 93 94 96 97 97 97 96 95 96 100 100 100 100 99 99 100 100 100 99 100 100 100 100 100 100 100 100 98 98 100 99 97 82 75 69 52 51 48 58 59 53 53 52 54 59 63 67 71 90 88
95 92 88 88 88 87 88 92 93 93 94 100 100 99 100 99 99 99 99 100 100 100 100 100 100 100 100 100 100 99 99 99 99 99 97 95 89 75 63 58 53 61 78 68 65 65 65 70 81 86 92 92 94 93
93 90 90 91 90 88 85 86 84 88 98 100 100 99 99 99 99 99 100 100 100 100 100 100 99 99 100 99 100 99 98 98 98 99 100 98 88 77 74 70 63 69 87 76 66 77 82 86 90 83 85 88 89 93
88 88 94 91 85 83 84 87 94 93 99 97 99 99 100 99 100 100 100 100 100 100 100 100 99 99 99 99 98 98 98 98 99 100 99 87 82 82 76 75 73 68 63 65 70 71 77 89 89 79 81 90 92 93
86 99 92 93 87 82 81 92 96 94 95 97 99 100 100 100 100 100 100 100 99 100 99 99 98 97 99 98 98 99 98 99 100 97 96 84 80 76 72 72 81 74 73 76 77 77 78 78 90 94 91 80 83 88
100 97 89 87 90 91 90 96 97 92 99 100 99 100 99 100 99 100 100 100 99 100 98 96 95 98 98 98 98 98 98 98 97 94 87 78 72 73 66 66 68 72 73 75 78 77 77 90 86 84 83 83 91 92
98 95 90 88 90 94 93 90 90 95 98 98 98 97 99 99 99 100 99 98 99 99 95 96 93 96 96 96 97 98 98 96 85 79 75 68 69 71 73 75 76 78 78 79 81 87 89 85 87 87 90 95 96 97
89 90 90 87 87 97 90 92 90 92 97 94 96 98 98 99 99 100 99 99 98 98 94 94 96 97 95 92 85 95 95 85 84 92 90 78 81 77 75 78 83 82 90 86 88 94 93 90 91 93 95 96 98 96
91 94 91 92 97 94 94 99 92 93 92 96 96 94 97 98 98 98 97 99 97 100 96 97 98 97 88 91 86 86 84 80 88 91 95 92 82 95 88 92 91 94 95 94 96 93 96 96 92 90 98 99 98 99
98 90 99 99 99 96 94 95 96 96 83 94 97 92 96 94 94 92 94 98 99 96 93 94 87 88 85 86 93 94 86 83 87 93 93 94 96 96 97 97 95 95 98 98 97 96 96 93 90 92 96 97 96 93
93 98 99 98 98 94 91 95 85 85 84 96 97 95 95 92 93 96 88 90 93 96 96 92 82 80 94 92 87 86 88 91 94 94 92 96 97 93 92 93 94 97 94 88 90 93 94 89 87 87 86 83 92 98
96 97 98 100 98 98 98 90 96 94 97 95 98 98 98 97 97 95 99 97 96 95 92 93 94 96 94 87 89 90 88 86 87 91 90 90 92 92 94 94 92 90 90 90 87 85 89 91 87 88 91 97 98 98
97 95 95 99 99 98 97 97 98 96 99 98 96 100 99 97 99 100 97 96 97 96 96 90 88 90 94 94 92 88 84 81 88 93 88 92 97 91 89 85 87 94 90 92 92 92 91 90 90 91 92 94 96 96
97 94 97 95 98 98 94 99 99 96 96 95 95 98 97 98 99 97 94 97 98 96 100 95 95 97 90 84 89 85 86 86 90 97 89 87 90 94 97 96 95 92 89 91 95 94 92 90 91 90 91 89 92 95
99 98 98 91 96 98 97 96 93 94 96 98 98 100 98 99 100 94 94 95 96 97 88 86 90 93 91 94 94 89 89 89 94 88 88 87 87 85 91 98 96 93 89 91 94 94 95 93 92 92 92 90 91 96
94 94 91 97 98 98 97 97 97 94 93 96 94 98 97 95 96 96 95 97 98 88 85 90 92 92 95 98 97 97 93 94 90 89 89 90 94 98 97 98 97 94 95 92 94 92 92 94 94 93 93 93 95 96
97 98 96 97 98 98 96 95 94 98 99 92 94 99 98 90 98 98 97 97 96 92 96 97 98 96 94 95 98 99 98 96 89 98 100 100 99 94 99 98 95 88 89 93 93 89 89 93 94 95 95 95 96 96
98 99 98 97 97 98 99 98 99 98 99 98 94 91 91 98 97 97 97 95 96 97 98 98 99 96 100 100 100 97 97 99 100 100 100 100 99 98 99 97 91 90 93 94 95 90 95 91 91 93 94 96 96 96
98 98 95 97 99 99 99 98 98 97 96 98 96 96 99 99 98 97 97 98 98 97 96 100 100 100 100 100 100 100 100 99 100 98 100 100 100 100 100 97 96 97 96 95 96 96 95 96 95 96 95 96 96 96
94 96 95 97 98 96 94 86 88 87 93 97 99 99 100 100 100 99 98 98 97 100 100 100 100 100 99 99 100 100 100 100 100 100 99 100 100 100 100 99 100 99 100 99 100 98 96 100 98 98 98 97 97 97
93 98 97 98 98 96 98 92 95 95 98 99 98 98 98 96 98 98 99 99 96 100 100 100 100 100 100 99 98 99 100 100 100 100 100 100 100 100 100 100 100 100 100 100 100 100 100 100 99 99 98 98 98 98

GFSWCAN_sfc_rhum_039.txt.gz
RH
94 92 92 94 97 97 96 96 98 98 98 97 96 96 97 95 92 82 94 94 82 98 93 90 87 80 80 82 83 79 76 83 91 82 84 90 92 87 86 76 93 95 97 99 96 95 74 57 60 64 66 88 86 89
95 93 94 97 98 98 96 98 99 99 98 98 96 96 96 96 93 83 88 95 93 92 90 86 85 84 85 67 85 82 70 82 82 92 98 98 99 99 91 84 74 76 68 82 76 78 61 63 71 84 84 89 90 88
95 94 96 99 98 98 97 98 99 98 97 97 97 95 94 95 91 87 96 97 89 97 92 88 89 77 67 80 76 80 94 82 86 85 96 99 86 96 98 96 85 69 68 82 75 61 68 71 89 88 85 87 85 81
94 95 98 99 98 99 99 99 98 97 97 97 96 94 94 93 92 90 98 98 90 96 100 90 73 74 66 78 82 77 87 92 94 96 100 99 93 87 94 80 85 70 75 80 84 81 92 89 88 87 87 86 80 77
94 95 96 97 98 98 98 98 98 97 97 97 95 93 91 93 91 89 97 99 95 65 99 98 82 74 76 83 84 82 82 90 98 100 100 97 94 96 99 94 97 76 75 86 84 70 77 77 89 88 90 84 76 67
94 95 95 95 96 97 98 98 98 98 98 96 97 97 92 94 91 73 80 94 99 91 93 95 93 85 79 86 89 93 95 96 97 100 100 99 92 91 100 99 85 75 73 65 72 89 90 94 92 87 82 73 62 59
96 95 95 96 97 97 98 98 98 98 98 99 98 98 92 91 95 83 76 96 98 91 98 100 98 88 88 90 96 95 94 98 96 100 99 98 96 98 100 99 73 68 73 90 92 90 96 94 94 83 66 60 50 46
98 97 96 96 97 98 98 98 98 98 97 97 99 99 95 96 95 94 99 98 96 91 93 98 97 94 88 100 100 98 100 98 99 100 100 99 99 98 100 94 89 90 92 93 92 84 84 87 85 75 43 44 50 52
98 98 99 98 97 98 99 99 98 98 97 95 94 93 92 97 99 99 96 97 95 86 99 97 89 91 94 99 99 99 99 100 99 100 100 98 100 99 92 90 90 92 89 90 88 83 78 76 55 47 48 51 56 62
98 98 98 99 98 99 99 99 98 98 94 92 91 94 100 100 92 90 91 96 100 100 100 100 99 99 96 100 100 99 100 99 96 96 95 100 98 92 89 88 89 86 89 89 85 65 60 65 73 71 59 60 62 64
98 98 98 98 98 99 98 99 98 92 91 96 100 100 98 89 96 99 100 97 99 99 100 99 98 98 98 99 100 99 99 99 94 93 97 98 98 93 92 91 83 69 60 56 58 62 71 84 74 71 71 71 68 71
95 97 98 98 99 99 98 96 90 96 99 94 96 95 94 97 99 98 99 100 98 97 100 100 100 99 100 97 99 100 98 99 96 97 99 99 95 87 83 63 56 66 78 85 85 86 70 61 60 61 59 61 66 77
88 90 92 96 98 98 97 96 95 92 91 92 94 100 99 100 99 100 97 99 100 100 99 100 100 100 100 100 100 100 99 98 98 100 98 99 88 72 68 64 70 81 86 75 57 55 57 57 62 62 65 66 88 83
91 91 91 90 90 94 96 97 96 92 91 99 100 100 100 99 99 99 99 100 100 100 100 100 100 100 100 100 100 99 99 99 99 99 97 92 98 90 78 70 62 70 82 72 69 64 68 72 81 86 90 92 93 91
90 90 89 89 86 87 87 88 88 96 98 99 100 98 99 98 99 99 100 100 100 100 100 100 100 99 99 99 100 99 98 98 98 98 100 99 93 80 75 69 68 74 86 75 67 79 83 86 89 83 85 86 87 92
88 88 97 90 89 86 85 85 89 88 98 99 99 99 100 99 100 100 100 100 100 100 100 100 99 99 99 99 98 98 98 98 97 100 100 96 95 80 77 76 74 66 67 71 73 73 78 90 91 80 84 89 90 93
89 99 91 90 90 86 85 90 94 94 96 97 99 100 100 100 100 100 100 100 99 100 99 99 98 97 99 98 98 99 98 98 100 98 97 89 83 78 74 78 83 75 72 73 74 75 76 78 91 93 88 77 82 85
98 94 89 89 90 87 90 95 94 93 98 99 99 100 99 100 99 100 100 99 98 99 98 94 95 98 98 97 98 99 98 96 98 96 93 87 85 83 74 71 73 75 76 77 81 80 80 92 89 87 86 83 89 91
95 96 90 88 89 92 91 92 90 97 99 99 99 98 99 99 99 100 99 98 99 98 95 96 92 97 96 97 96 98 99 97 92 84 79 76 76 76 77 78 79 81 83 86 88 93 94 91 94 94 93 93 95 92
88 89 91 88 84 94 88 94 90 92 94 98 98 98 98 98 99 99 99 98 97 96 91 93 96 97 96 94 91 97 95 88 88 95 94 85 91 88 93 94 96 95 95 93 94 98 94 93 88 90 92 95 98 96
89 94 94 93 96 93 96 98 93 94 95 96 96 93 98 98 98 97 99 98 96 98 96 98 98 98 93 96 92 89 89 86 94 94 97 98 97 97 95 95 95 93 97 96 92 85 84 87 91 90 87 86 84 82
98 93 98 93 96 90 93 94 93 95 89 98 96 92 95 97 97 97 96 91 98 99 97 97 91 93 96 97 94 96 96 92 91 92 95 95 93 93 93 96 94 92 87 91 88 92 88 86 89 87 91 91 89 89
94 98 99 93 90 88 95 95 82 83 88 99 98 96 97 96 97 92 87 88 95 97 98 97 95 90 92 86 81 81 84 86 92 91 91 96 95 97 94 86 92 97 96 91 90 85 91 92 90 92 91 91 92 90
91 96 97 98 95 98 96 97 92 94 96 98 98 98 96 96 95 96 99 97 95 89 90 95 92 93 90 85 88 85 81 82 89 91 93 94 92 90 88 89 92 93 89 88 91 94 93 93 92 92 92 92 90 92
91 93 91 99 97 96 100 98 98 97 100 96 96 100 99 97 100 100 97 96 97 96 95 90 90 87 90 90 86 81 74 79 89 91 87 87 92 88 85 84 89 91 88 95 95 95 94 92 91 91 91 92 93 92
95 93 95 96 98 97 97 98 97 97 99 96 96 98 98 100 99 100 94 97 98 95 98 97 95 94 89 84 86 83 84 86 91 94 85 82 86 94 98 98 96 93 87 99 98 98 96 92 93 93 93 90 91 93
87 94 97 96 97 98 98 97 95 97 97 98 98 99 97 99 96 95 94 95 93 96 95 92 90 91 90 86 86 87 90 88 93 92 87 84 84 86 95 100 98 92 89 94 98 100 99 96 96 95 95 91 90 93
96 98 95 96 98 98 97 97 97 97 96 96 94 97 99 99 98 94 96 97 96 92 90 91 92 94 95 95 95 96 91 93 92 92 93 94 95 99 98 99 98 98 96 97 100 98 97 96 96 95 95 96 96 95
97 98 96 97 98 98 98 97 98 98 97 97 97 98 96 89 97 97 96 97 96 93 94 94 97 97 97 97 98 98 99 96 93 100 100 100 100 98 100 100 100 99 99 100 100 95 95 95 96 94 96 97 98 96
97 98 98 97 97 97 98 98 98 99 97 96 91 88 90 97 97 96 97 96 96 98 99 98 99 98 100 100 100 100 100 100 100 100 100 100 100 98 100 100 100 100 100 100 99 94 100 98 100 99 96 96 95 96
98 98 98 97 97 98 98 99 99 98 98 97 96 95 96 98 98 97 97 98 97 98 99 100 100 100 100 100 100 100 100 100 100 100 100 100 100 100 100 100 100 100 100 100 100 100 100 100 100 100 100 100 99 99
97 98 97 97 99 96 96 96 98 96 96 98 98 99 99 98 100 98 98 98 98 100 100 100 100 100 100 100 100 100 100 100 100 100 100 100 100 100 100 100 100 100 100 100 100 100 100 100 100 100 100 100 100 100
96 96 97 99 96 87 98 93 96 100 97 97 99 98 99 98 99 97 98 100 98 100 100 100 100 100 100 99 97 100 100 100 100 100 100 100 100 100 100 100 100 100 100 100 100 100 100 100 100 100 100 100 100 100

GFSWCAN_sfc_rhum_045.txt.gz
RH
94 94 94 96 96 97 94 92 94 96 98 98 98 98 98 94 96 90 99 96 90 98 95 90 85 78 77 78 83 81 74 81 86 91 99 82 90 73 68 61 81 78 93 97 91 84 74 44 49 62 56 56 63 72
94 95 98 98 97 93 92 94 96 98 98 97 96 95 94 88 92 92 98 98 96 93 92 85 82 81 86 66 80 83 71 76 75 85 90 91 98 98 82 75 74 72 65 75 67 67 55 49 57 61 61 60 66 72
97 98 98 96 94 94 96 98 99 99 99 98 97 96 94 90 92 92 95 98 95 98 89 86 87 78 77 86 77 77 86 74 73 75 87 92 89 88 92 84 72 68 61 71 68 51 56 58 57 68 70 71 66 74
98 98 97 96 96 99 99 99 98 98 98 98 97 96 91 93 93 91 94 98 97 97 100 89 76 85 78 84 81 77 81 86 86 83 98 98 96 77 85 69 74 63 65 66 69 62 65 64 73 67 75 75 77 73
98 98 97 98 99 99 97 98 97 96 97 96 95 96 95 93 88 89 95 98 97 75 99 98 86 80 80 83 78 75 75 82 92 98 100 96 90 92 93 87 88 69 69 80 79 58 58 58 77 80 80 79 74 68
98 98 98 98 98 97 97 98 99 99 96 95 90 90 90 90 89 71 79 90 92 90 93 100 90 89 87 85 86 90 90 92 94 98 100 95 93 89 100 98 70 66 68 63 62 75 70 85 84 78 78 75 59 55
98 98 98 98 97 97 98 99 99 98 94 94 92 93 94 91 87 67 72 88 94 90 97 100 99 87 90 90 96 95 95 98 95 99 100 99 98 90 100 90 74 82 81 83 83 80 79 85 87 68 56 50 52 49
97 98 98 99 96 98 98 99 99 98 93 92 92 91 90 91 94 94 98 95 91 78 89 98 97 97 90 99 100 96 100 98 98 99 99 100 98 100 100 89 85 82 84 87 86 84 79 59 49 46 48 58 74 80
98 99 99 99 97 99 98 98 96 95 94 94 93 93 90 96 99 97 94 92 90 77 93 94 92 96 91 99 99 98 98 100 98 100 100 96 100 98 97 92 87 85 90 85 62 54 52 62 70 77 82 86 91 86
99 99 99 99 98 98 99 97 94 92 90 89 88 89 100 100 90 86 85 91 98 100 100 98 96 100 91 100 100 99 100 100 100 94 94 100 99 90 79 79 81 88 84 66 80 87 85 93 94 91 84 76 71 61
98 99 99 99 99 99 98 94 92 90 86 95 100 100 98 89 89 96 99 99 99 98 99 99 95 97 97 99 100 98 100 98 96 86 97 95 92 94 86 90 84 78 77 77 79 84 88 90 84 80 66 66 62 60
98 98 99 99 98 98 97 95 91 95 98 92 97 94 93 96 100 95 100 100 95 97 100 100 100 99 100 96 98 100 98 97 91 90 97 93 96 83 91 90 88 84 83 82 80 83 80 70 65 62 55 55 60 65
96 97 98 97 96 94 93 92 90 90 89 90 95 100 99 100 99 91 97 100 100 100 100 100 100 100 100 96 100 99 96 94 95 100 93 97 79 95 92 83 84 77 72 66 57 56 57 58 62 65 70 70 85 76
95 95 96 96 96 95 94 92 86 87 91 99 100 100 96 100 100 100 100 100 100 100 100 100 100 100 100 100 100 100 100 99 99 98 96 98 97 99 87 76 66 65 81 70 64 63 72 74 76 86 91 90 90 82
93 93 92 96 95 94 90 90 88 93 96 100 96 99 97 99 99 100 100 100 100 100 100 100 100 99 100 99 99 98 99 95 90 92 97 99 97 95 83 74 67 72 84 78 68 80 87 88 86 82 85 85 86 93
87 87 93 94 92 91 90 90 93 94 100 100 97 99 100 99 100 100 100 100 100 100 100 100 100 99 98 96 96 96 96 93 93 99 100 99 98 78 73 74 74 72 72 72 74 76 83 92 93 85 86 91 93 91
86 99 93 89 84 82 81 93 97 100 100 100 100 100 100 100 100 100 100 100 99 100 100 99 97 96 95 96 99 94 94 92 98 100 100 99 93 78 77 84 85 80 82 82 85 86 86 86 91 86 83 73 79 80
98 95 89 84 82 79 89 89 94 96 98 98 98 99 99 100 100 99 99 99 99 99 97 96 91 96 96 96 98 94 96 97 97 97 98 99 91 91 79 82 85 86 86 86 88 83 84 87 81 78 72 70 72 74
94 92 88 83 80 86 90 92 90 97 99 99 99 99 99 99 99 98 99 98 96 95 90 89 87 94 96 92 93 97 96 94 94 97 96 99 98 97 90 84 83 81 82 78 74 75 75 75 73 70 71 72 79 80
85 86 87 81 77 88 88 92 89 91 97 99 98 98 98 98 99 99 98 94 93 92 91 94 94 94 90 92 92 90 89 89 89 93 96 91 85 84 84 83 82 75 72 72 75 80 72 69 67 70 75 78 85 85
91 95 87 86 92 91 96 95 93 95 95 95 98 96 98 97 96 96 98 96 95 98 97 97 97 96 92 92 91 89 91 83 86 86 91 91 89 83 78 78 73 72 75 80 81 78 82 80 76 77 86 89 88 88
93 86 96 86 90 90 94 95 92 94 94 97 94 92 97 97 95 97 94 93 96 96 94 96 94 91 90 89 86 82 82 82 82 83 86 88 92 86 82 76 74 83 81 83 79 85 82 76 81 84 88 91 87 86
88 87 93 88 87 92 96 92 88 86 93 99 93 92 97 97 97 90 87 92 94 91 92 89 89 78 78 73 74 76 75 78 86 88 88 88 84 83 83 81 77 84 82 76 74 78 86 89 85 91 89 89 90 91
81 94 96 99 97 100 95 98 92 93 97 97 93 98 95 97 95 94 92 96 92 92 90 90 82 78 73 69 77 82 80 77 82 85 82 81 82 81 78 80 80 78 78 77 83 89 87 92 95 91 92 94 93 94
87 97 95 100 94 97 100 98 93 94 100 96 93 98 95 95 98 93 95 93 94 94 94 95 94 91 88 82 74 74 80 79 78 79 73 71 78 74 71 68 77 79 82 92 94 96 95 94 93 94 93 95 96 95
95 97 98 100 98 95 98 100 100 97 97 98 97 96 96 97 97 98 91 95 95 92 96 96 93 91 88 85 85 80 76 81 78 83 77 71 74 81 85 85 84 81 82 96 99 100 97 95 96 96 96 92 95 95
92 97 96 95 88 89 97 98 95 98 98 97 98 96 96 96 93 93 92 91 90 92 91 91 90 86 85 83 76 84 90 90 89 83 80 76 76 75 84 90 91 85 88 92 98 100 100 100 99 97 97 93 94 95
98 99 98 93 100 98 99 100 98 98 97 96 95 96 95 95 93 91 92 92 93 88 86 87 87 84 85 85 86 91 93 92 92 91 88 88 88 93 94 92 92 100 98 97 99 100 100 100 98 97 97 98 98 96
100 99 96 100 99 98 98 98 97 96 95 96 96 95 94 91 94 94 93 93 94 90 92 93 95 94 93 91 94 94 93 90 82 90 92 94 95 90 92 96 96 96 99 99 100 100 100 97 98 98 94 95 95 94
97 98 97 98 97 97 98 98 98 98 95 95 93 89 88 93 94 93 93 94 94 96 97 96 96 96 97 96 100 97 99 100 97 94 96 98 95 94 98 100 100 99 100 98 97 96 100 98 96 92 94 94 95 95
98 98 97 98 99 98 98 98 98 98 97 95 96 96 94 95 96 94 94 95 96 96 96 99 100 100 99 100 100 99 97 96 100 100 99 100 100 100 100 100 100 100 100 98 98 100 100 98 98 98 96 96 96 97
97 97 98 98 98 97 95 98 98 97 97 97 97 97 96 96 99 96 97 97 96 97 100 100 100 100 100 100 100 100 100 100 100 100 100 100 100 100 100 100 100 100 100 100 98 99 100 100 99 98 99 98 98 96
98 98 99 97 95 95 98 95 98 99 98 98 98 99 98 97 99 97 96 98 96 97 99 99 99 100 100 100 98 97 99 99 100 100 100 100 100 100 100 100 100 100 100 100 100 100 98 99 98 98 99 100 97 96

GFSWCAN_sfc_rhum_048.txt.gz
RH
86 85 86 86 90 97 94 96 95 95 94 92 92 92 92 94 93 95 92 87 63 82 72 69 60 55 55 50 66 59 55 61 70 96 100 78 94 51 45 36 55 62 84 94 86 100 82 29 40 50 41 39 40 45
92 90 91 92 94 97 96 95 94 93 94 94 94 93 94 96 92 99 93 85 74 72 76 68 70 69 65 49 50 57 52 52 48 70 85 86 97 96 68 63 48 56 46 54 48 46 38 34 38 41 43 43 43 46
97 96 96 96 95 95 94 94 95 97 98 97 95 94 96 92 93 93 82 86 75 88 70 65 70 63 62 69 66 56 65 52 52 57 65 82 100 66 97 64 49 45 44 54 53 32 34 36 33 35 36 44 45 51
97 97 96 96 96 95 96 98 99 98 98 97 98 97 97 88 96 87 74 85 86 91 100 82 61 70 63 64 64 60 60 62 58 55 94 99 99 55 66 50 53 41 48 46 48 36 35 37 45 51 51 57 58 58
95 96 98 96 98 98 99 99 99 99 99 97 96 94 88 90 92 89 81 87 85 84 98 93 71 66 63 58 58 56 55 54 65 91 100 92 68 76 75 67 65 42 42 59 59 47 46 51 64 66 62 62 58 55
97 98 98 98 98 99 99 99 100 99 98 97 95 91 90 86 79 66 65 76 88 74 91 100 74 75 68 67 69 71 64 68 73 86 98 77 72 74 99 71 57 54 55 54 49 59 61 67 64 60 62 57 50 50
98 98 97 98 99 99 99 99 97 97 96 95 92 91 94 91 81 54 57 75 85 77 96 100 95 76 76 71 80 76 77 92 80 92 98 91 85 70 100 81 69 66 64 64 62 63 70 66 66 53 50 47 54 61
98 98 98 98 98 98 98 96 95 94 94 93 92 92 89 87 88 74 81 86 81 61 76 100 97 93 76 97 98 81 96 89 93 96 95 98 93 96 99 76 67 64 67 69 65 59 57 48 46 51 60 72 90 89
99 99 99 95 95 96 93 94 93 94 94 94 94 93 81 87 88 80 93 88 71 62 100 100 100 100 80 95 94 91 91 100 92 100 99 86 96 97 92 81 68 68 75 64 53 50 53 62 68 72 78 83 83 75
99 100 99 98 97 95 92 92 93 93 92 90 74 69 99 95 89 80 68 81 92 99 100 100 88 99 80 97 99 96 100 100 100 94 90 100 89 78 76 77 73 73 66 62 76 82 82 85 81 74 68 56 54 55
99 99 99 99 97 96 94 92 91 89 87 90 96 100 91 86 73 88 100 100 100 100 94 92 82 93 87 95 100 98 100 100 100 87 93 94 89 86 82 79 71 64 64 65 64 69 72 70 59 58 52 55 50 49
99 99 99 98 97 96 92 91 90 86 89 86 90 84 79 86 100 100 100 100 99 95 99 99 98 90 99 85 97 99 100 99 98 79 98 89 90 84 81 80 76 76 72 68 66 67 63 55 46 45 45 49 56 61
97 97 97 96 96 95 94 91 90 88 86 81 90 100 100 100 100 100 100 100 99 100 98 100 100 100 98 90 100 100 100 100 81 98 83 88 78 86 85 78 69 67 68 63 48 42 45 50 58 61 70 69 92 68
95 96 96 95 94 94 93 92 90 88 83 100 100 100 100 100 100 100 98 100 100 100 100 100 100 100 100 100 100 100 100 93 100 95 94 93 99 96 77 60 50 55 85 58 52 57 69 69 72 93 97 97 95 78
94 93 93 95 93 90 90 89 88 91 94 100 100 100 100 100 100 100 100 100 100 99 100 100 100 95 100 100 100 100 100 98 88 88 95 98 97 82 64 55 53 62 90 75 59 85 96 96 86 79 78 67 72 86
89 87 95 93 90 89 89 87 89 86 100 100 99 100 100 100 100 100 100 100 99 100 100 97 100 100 100 99 100 100 95 89 94 90 100 97 97 71 61 61 60 58 59 64 69 72 81 88 83 65 65 70 82 79
82 90 91 88 84 83 88 92 95 100 100 100 100 100 100 100 100 100 100 100 99 100 100 100 100 100 97 98 98 87 99 93 98 100 98 99 80 64 60 66 86 75 71 71 70 67 67 65 70 62 59 49 51 52
92 82 85 81 74 75 86 95 100 100 99 99 96 100 100 100 100 100 100 100 100 100 100 98 85 99 99 96 93 89 88 98 98 99 99 96 65 68 65 70 72 72 70 69 67 61 62 65 54 50 46 44 44 48
86 84 83 79 72 77 84 93 88 96 99 99 100 98 98 100 100 98 99 96 88 82 84 84 99 88 91 78 92 91 97 93 95 93 96 100 100 97 93 81 79 66 60 57 56 55 53 51 50 46 47 50 58 59
82 84 83 79 73 80 96 88 77 82 92 95 96 94 94 96 98 100 100 92 80 96 99 97 88 88 83 83 76 79 81 78 79 84 86 84 86 86 78 67 60 56 55 55 55 57 50 49 47 52 60 64 74 76
81 84 79 77 81 80 84 81 84 86 86 87 94 90 96 92 97 100 98 82 97 94 88 89 96 95 85 80 72 71 77 74 78 76 77 81 70 63 61 59 55 55 59 63 62 59 66 65 60 64 79 83 84 81
84 80 85 80 96 94 87 81 79 84 85 92 86 81 96 99 98 98 84 92 92 92 88 87 81 75 74 72 70 70 73 73 76 77 80 75 73 70 66 59 60 68 66 70 64 75 71 64 71 77 82 86 78 78
78 78 90 95 93 97 95 76 89 80 86 92 85 85 91 92 90 74 87 82 87 86 88 82 74 68 69 64 65 66 64 66 72 76 76 74 69 68 65 62 61 72 70 62 60 66 76 77 75 85 82 82 84 83
73 91 95 96 92 98 91 90 79 84 87 85 80 88 88 90 87 83 87 88 86 85 84 87 82 78 68 65 69 67 66 64 67 68 65 65 68 68 63 62 63 66 65 64 71 78 77 84 84 82 84 85 84 85
92 95 88 94 88 90 98 89 86 83 88 88 85 90 91 88 90 85 87 83 86 89 90 90 88 86 85 84 78 75 69 59 63 66 64 62 66 63 60 58 64 67 71 82 83 84 84 84 84 85 83 84 84 84
96 96 92 97 94 86 88 89 90 92 90 89 93 89 93 91 86 88 79 87 89 84 92 92 90 88 85 82 79 75 76 67 62 70 65 59 61 68 72 72 70 74 71 82 86 86 83 81 84 85 85 80 80 84
95 99 92 84 80 80 92 92 85 91 92 90 90 91 89 87 88 82 77 80 80 86 85 86 84 83 82 77 73 78 76 76 75 69 65 63 65 66 77 82 81 77 73 79 84 85 87 87 87 86 86 83 82 84
92 91 94 96 94 88 94 92 90 91 90 84 85 90 90 89 86 85 86 86 89 84 82 83 82 77 75 77 79 82 83 83 85 79 76 74 74 80 80 80 79 86 84 85 87 86 85 88 88 86 85 86 86 83
94 93 91 97 93 89 90 90 89 86 85 90 91 88 89 81 90 89 88 90 90 90 89 88 91 90 85 82 86 85 84 82 73 67 65 79 81 82 81 83 82 82 83 84 81 83 83 85 85 87 84 87 86 85
94 93 90 93 92 90 92 91 91 91 84 87 80 78 80 88 90 89 90 90 91 94 93 92 92 90 90 86 88 88 89 88 87 86 83 84 85 85 86 86 86 85 86 86 86 82 81 85 83 83 84 84 85 86
91 94 90 90 90 93 94 94 93 90 89 89 91 88 88 89 90 89 88 90 90 89 87 87 90 90 85 86 85 83 87 88 90 88 88 90 89 89 87 87 87 89 88 87 87 86 87 87 85 87 85 86 86 87
92 95 94 91 92 92 91 94 93 92 92 90 92 90 91 88 90 89 92 88 83 85 97 88 85 90 91 89 91 89 96 89 87 90 90 91 90 86 87 85 88 90 89 88 86 87 87 88 88 87 88 86 86 85
92 92 92 91 89 88 92 90 89 92 91 90 92 91 91 88 91 90 88 91 91 90 89 90 91 91 90 90 88 88 92 85 89 97 98 97 96 95 92 88 88 90 90 88 86 86 87 87 87 86 86 87 85 84

GFSWCAN_sfc_rhum_051.txt.gz
RH
78 79 79 81 81 82 83 85 85 87 92 93 92 93 93 93 91 84 85 72 76 54 45 49 34 31 30 34 59 50 52 55 60 85 100 74 85 48 42 30 55 62 81 92 82 100 82 22 28 39 39 29 30 30
80 81 80 81 84 86 87 87 90 93 95 94 90 91 92 92 93 88 92 69 59 50 61 60 62 58 49 40 32 50 35 44 43 55 79 82 96 94 60 56 30 49 40 52 46 47 32 25 26 35 33 35 35 38
81 83 86 88 90 91 86 88 94 95 95 94 94 93 92 93 94 84 87 63 53 70 63 58 60 59 51 56 56 47 51 36 42 49 57 74 100 60 95 61 40 33 34 45 43 24 24 26 27 29 30 34 34 38
87 87 90 88 88 92 96 96 95 96 96 95 92 92 92 94 92 92 82 72 70 81 99 78 54 62 53 51 50 52 47 52 49 48 91 96 98 44 64 44 42 34 37 34 36 27 24 31 42 47 44 48 48 48
93 91 91 92 97 98 97 97 97 96 94 92 92 92 93 94 95 94 92 86 74 61 92 90 62 58 49 48 49 48 50 50 55 83 100 86 55 65 60 52 55 32 32 53 55 45 43 51 54 55 51 51 48 47
97 97 97 97 98 98 96 96 96 95 95 94 94 96 94 92 93 85 90 83 70 59 86 100 70 66 57 51 51 50 48 51 58 79 89 60 55 63 98 66 45 40 43 45 43 49 53 57 52 49 51 48 46 47
98 98 98 98 98 99 99 99 99 98 98 98 97 95 90 91 80 85 59 67 82 63 96 100 99 71 65 57 61 58 64 78 66 84 93 76 66 58 100 75 51 54 51 52 52 52 61 53 56 46 44 47 54 50
98 98 98 97 97 98 99 98 98 98 96 94 90 87 85 91 92 84 69 79 81 68 94 100 99 96 67 87 94 65 88 78 87 90 90 90 77 89 90 60 55 54 54 53 50 47 48 45 49 56 60 68 80 74
97 94 91 92 92 92 95 96 94 91 89 89 88 89 78 80 72 76 90 84 72 67 100 100 100 100 70 85 85 88 85 100 82 100 92 80 96 96 82 70 62 59 64 54 46 45 49 58 63 66 69 67 63 56
98 97 93 93 93 93 92 92 94 93 93 96 67 54 92 86 89 85 72 83 88 90 98 100 83 99 76 94 97 94 98 100 100 90 68 97 83 69 66 68 65 62 56 52 66 73 72 74 65 61 51 44 45 44
98 98 96 92 88 90 92 92 91 92 94 69 88 99 86 85 72 89 100 100 97 100 87 82 72 91 80 94 100 97 100 98 100 85 89 86 84 80 70 70 60 57 57 60 62 65 61 61 53 46 43 42 46 50
98 97 96 94 89 86 85 88 87 87 89 84 82 78 75 85 100 100 100 100 96 94 93 96 90 84 96 79 92 98 100 98 97 72 98 86 91 72 72 73 70 64 62 65 61 56 48 40 38 41 48 56 63 64
96 95 95 95 94 92 89 88 88 87 86 72 85 100 100 100 100 100 100 99 98 100 98 98 99 96 96 86 100 100 100 98 76 98 83 83 76 72 74 70 63 57 56 53 41 39 45 55 59 62 70 74 91 67
93 93 94 94 93 91 91 90 88 80 78 100 100 100 100 100 100 100 99 98 100 100 100 99 100 99 100 100 100 100 100 82 98 94 93 88 85 82 69 59 55 53 79 54 50 57 65 70 81 94 97 94 90 68
93 91 90 94 94 92 90 90 88 75 87 100 100 100 100 100 100 100 100 100 100 98 98 98 99 94 100 100 100 100 100 97 87 91 96 97 95 75 60 50 50 64 87 68 62 90 100 99 75 65 64 59 68 83
89 86 93 91 91 92 92 89 91 89 100 100 100 100 100 100 100 100 100 100 98 97 91 89 100 100 100 98 100 100 95 89 98 94 99 96 87 70 53 54 53 51 55 62 68 72 76 77 78 58 57 58 77 72
84 94 88 87 86 86 88 92 96 100 100 100 100 100 100 100 100 100 100 100 98 100 100 99 100 99 86 92 97 80 100 96 99 99 98 92 77 61 56 62 82 70 65 65 63 61 61 58 59 52 49 41 39 41
75 68 82 80 78 83 90 96 100 97 98 98 96 100 98 100 100 100 100 99 100 100 99 96 74 96 99 97 90 87 98 98 97 98 98 90 66 59 56 60 64 66 65 63 58 55 53 55 45 42 38 37 39 43
80 74 82 79 69 86 97 99 96 93 100 100 100 100 100 100 100 100 100 97 88 82 82 83 99 90 94 83 96 98 98 93 92 98 99 98 90 83 77 70 65 61 57 54 52 49 46 44 42 40 44 46 56 58
80 82 83 79 69 75 97 94 74 83 95 98 98 99 99 99 100 100 100 89 76 94 99 97 94 95 93 88 84 85 87 75 78 84 88 93 94 94 94 91 79 59 52 50 50 50 44 45 43 47 58 62 71 72
74 75 76 66 70 72 77 77 83 90 86 87 95 82 96 88 97 100 98 79 96 92 85 91 94 88 80 76 78 82 84 75 66 69 74 77 72 63 58 54 52 52 56 60 59 57 61 59 55 60 75 79 78 75
69 78 85 79 95 92 81 72 75 74 81 92 83 79 96 100 99 98 79 92 87 89 88 86 79 70 70 72 72 72 76 77 77 76 75 71 70 67 64 59 60 66 64 66 59 73 68 59 67 73 77 80 72 72
76 73 90 98 100 100 96 67 92 72 94 92 80 86 93 93 85 64 86 79 86 88 86 77 67 62 65 63 62 63 63 65 71 74 75 72 69 65 60 57 59 69 66 57 54 62 72 72 70 79 76 76 78 78
71 95 100 98 93 99 99 91 66 71 79 81 79 84 83 88 74 83 87 86 86 80 81 86 79 79 71 64 62 62 61 59 63 64 62 63 64 61 55 55 57 60 59 58 66 74 72 79 77 76 77 78 77 79
89 95 96 91 91 89 90 88 89 77 85 86 86 87 88 78 82 83 88 85 88 89 92 89 82 80 80 85 83 79 62 57 61 65 61 58 61 58 56 54 59 63 66 78 78 79 79 78 78 78 76 78 76 77
91 94 90 92 88 86 84 85 86 88 84 87 89 83 89 90 83 88 78 88 90 84 91 93 91 86 84 84 83 81 82 65 61 66 59 55 58 66 69 68 68 75 67 77 81 81 78 76 78 76 78 73 72 77
88 95 84 68 69 73 87 86 77 79 83 87 86 85 89 84 86 81 76 80 80 86 84 86 84 83 84 84 83 83 72 70 70 64 59 59 62 64 74 79 77 74 67 73 78 80 82 81 80 79 79 77 76 79
84 82 88 93 84 77 85 82 84 89 88 75 82 85 87 87 85 80 80 83 88 83 82 83 84 84 85 86 87 84 80 77 78 72 70 68 67 72 73 74 76 69 77 78 80 81 80 81 82 80 79 81 81 77
86 84 86 91 80 80 84 91 90 80 79 88 89 83 84 76 85 83 81 85 86 87 88 89 91 90 86 78 80 77 78 78 70 66 66 75 76 80 74 75 75 75 76 77 71 73 74 81 81 82 81 84 82 81
87 88 85 84 84 87 92 91 91 89 80 82 73 70 73 82 87 81 82 84 85 90 91 90 88 85 84 80 83 83 82 82 82 83 82 82 82 79 78 78 78 78 78 79 80 76 73 76 77 78 80 80 80 81
84 87 82 80 88 91 92 93 89 86 84 87 88 86 83 85 87 85 84 86 83 84 82 80 82 80 80 81 81 79 82 82 81 76 81 82 80 80 79 79 79 80 81 81 81 81 81 81 81 80 79 79 78 80
87 90 85 82 90 90 95 95 93 90 90 87 87 84 86 84 85 84 87 88 80 80 88 78 81 85 80 79 80 80 90 79 77 79 78 82 82 80 79 78 80 80 81 81 81 81 80 80 83 82 82 80 79 79
87 86 85 82 79 80 86 87 79 83 82 82 85 84 85 84 86 86 80 83 87 86 85 84 82 82 82 81 80 81 78 72 72 80 81 84 89 88 88 83 81 81 80 82 81 81 80 79 81 80 81 80 78 77

GFSWCAN_sfc_rhum_054.txt.gz
RH
77 78 80 81 81 83 84 83 84 87 86 87 88 89 92 92 88 97 90 91 97 90 42 37 32 34 33 44 66 54 56 56 74 94 100 93 98 55 47 34 68 80 90 97 91 100 92 23 25 42 45 38 35 32
79 79 78 79 83 84 84 84 85 86 87 87 88 88 91 94 90 94 96 88 85 99 76 60 62 58 56 61 46 57 46 50 55 72 90 94 99 96 77 74 26 56 49 68 65 69 41 26 34 38 34 36 36 42
79 80 83 84 85 84 85 85 86 87 86 86 87 88 91 92 91 94 94 92 96 87 64 55 61 57 51 55 62 57 58 41 48 53 73 87 99 75 98 77 42 32 33 55 51 27 27 28 28 35 35 43 41 45
83 83 83 84 84 85 85 86 88 88 88 90 90 92 93 91 93 95 96 91 96 86 98 78 52 57 50 50 51 54 49 59 61 66 96 99 100 47 80 49 51 37 37 38 37 29 26 43 49 50 48 49 46 46
83 84 85 85 87 88 88 90 90 90 90 92 93 94 92 93 94 96 96 90 95 95 92 90 60 55 47 49 53 49 56 60 69 91 100 93 64 76 66 59 63 32 36 65 72 51 50 59 55 51 52 51 47 46
88 91 92 90 87 84 81 81 85 94 93 94 94 94 95 94 96 98 99 74 76 81 88 100 71 63 50 48 54 52 53 56 63 89 92 68 56 77 99 83 39 40 40 47 49 48 57 56 50 47 51 50 48 47
90 89 90 92 89 89 94 94 92 96 96 95 94 95 95 96 98 96 92 87 89 71 97 100 98 75 61 57 64 64 66 79 68 81 92 77 68 69 100 89 50 48 47 51 48 51 59 53 54 48 51 49 55 58
96 94 94 96 98 97 98 97 97 96 96 95 95 94 95 97 97 99 92 88 85 77 89 100 100 98 71 93 95 76 87 80 88 89 90 91 81 96 97 57 53 51 51 50 49 49 50 50 58 62 63 64 65 66
98 98 98 99 99 98 98 98 97 97 97 96 96 95 93 96 98 98 89 93 87 76 100 100 100 100 72 87 95 94 87 100 87 100 92 83 93 95 71 62 56 58 61 51 46 46 51 62 67 66 60 60 61 54
92 95 96 98 98 98 98 98 97 96 94 92 86 87 100 100 93 91 83 93 92 96 97 100 97 100 81 99 100 98 98 100 100 97 74 98 92 65 62 61 61 58 54 51 64 71 70 72 67 57 51 49 48 48
95 92 92 95 94 95 94 93 92 91 87 82 96 100 94 94 94 96 100 100 99 100 88 83 87 97 84 98 100 100 100 100 100 88 92 87 92 79 66 64 60 58 60 59 60 63 60 61 55 50 47 54 61 68
97 97 96 92 92 94 95 92 92 79 84 83 78 75 80 87 100 100 100 100 98 94 94 97 94 86 98 85 99 100 100 100 98 81 100 88 92 73 72 70 65 66 66 67 63 59 53 42 42 52 58 68 80 85
95 96 96 95 93 92 92 90 87 82 85 78 91 100 100 100 100 100 100 100 98 100 96 98 99 98 97 88 100 100 100 100 82 99 82 89 80 74 72 67 66 64 62 58 45 45 50 61 68 79 84 82 78 72
93 93 95 95 95 93 89 88 89 78 80 100 100 100 100 100 100 100 100 100 100 100 100 100 100 99 100 100 100 100 99 86 98 98 94 92 81 77 66 63 61 58 71 59 58 66 81 84 81 82 87 88 87 71
90 91 90 93 94 94 90 87 84 76 92 100 100 100 100 100 100 100 100 100 100 99 100 100 100 95 100 100 100 99 100 96 84 91 98 92 83 75 70 62 59 75 80 72 73 94 96 89 75 70 69 65 76 90
83 84 90 90 89 89 87 85 88 92 100 100 100 100 100 100 100 100 100 100 99 100 100 95 100 100 100 99 100 100 94 88 100 99 98 89 78 67 59 65 64 59 67 72 78 79 77 79 77 65 61 60 88 86
80 91 88 87 90 86 86 85 87 100 100 100 100 100 100 100 100 100 100 100 98 100 100 100 100 100 93 98 97 94 100 100 100 99 97 86 83 65 60 69 78 74 71 72 72 70 68 64 67 59 54 44 45 53
82 79 85 82 85 88 94 97 100 98 99 100 99 100 99 100 100 100 100 100 100 100 97 96 88 100 99 94 96 98 100 98 98 98 98 93 64 64 62 64 63 66 69 70 66 63 58 65 51 47 43 42 45 52
76 78 86 82 84 92 98 99 94 94 100 100 100 100 100 100 100 100 100 99 94 89 93 93 99 95 97 99 100 98 98 99 98 98 98 95 83 84 84 76 72 68 65 63 62 58 50 47 47 46 50 53 62 64
78 80 84 78 69 93 99 98 83 87 98 100 100 100 100 100 100 100 100 97 87 96 94 93 94 96 97 98 97 95 89 90 91 95 97 98 96 93 95 93 85 74 62 54 54 60 50 52 48 54 64 67 76 76
67 68 74 63 68 74 90 91 98 99 99 98 100 99 100 100 100 100 100 88 93 96 94 96 97 98 99 98 90 84 84 80 85 79 86 94 95 86 81 73 66 62 64 65 68 65 69 66 62 65 80 84 84 81
64 76 83 82 96 94 86 80 94 88 94 99 95 94 100 100 100 99 89 89 94 95 95 97 98 88 93 96 97 90 82 77 74 75 77 75 74 74 71 67 70 76 72 73 68 77 72 66 73 76 81 85 80 78
74 72 92 99 98 98 95 71 93 75 93 94 83 87 94 93 87 71 88 84 91 92 91 90 80 76 82 81 83 83 77 78 86 90 88 84 76 72 72 71 72 77 74 62 58 68 78 75 78 81 80 80 84 84
72 97 98 96 94 94 100 89 71 70 81 83 80 85 89 88 81 83 90 88 94 89 83 87 84 85 78 75 78 80 74 68 72 76 72 70 69 63 58 60 63 66 65 64 71 77 75 81 80 78 83 83 83 86
90 93 95 86 92 85 81 78 83 74 84 82 83 88 88 81 85 87 88 88 87 88 90 89 83 84 84 87 84 86 87 78 78 81 75 65 67 63 62 62 66 68 71 82 82 81 82 83 83 82 79 82 79 81
91 88 83 81 81 79 78 78 79 85 79 82 86 79 89 86 83 89 82 91 91 86 93 94 94 84 85 85 86 85 88 89 78 82 72 64 71 75 73 74 81 86 73 81 84 82 80 81 82 80 82 77 80 84
84 85 79 74 75 75 82 80 76 77 82 87 83 84 84 84 88 87 80 81 82 88 85 86 83 83 85 86 87 89 89 79 76 67 62 65 68 70 81 85 87 84 72 77 81 83 84 83 84 84 84 83 83 88
81 84 85 90 82 77 81 80 82 91 86 80 86 87 86 89 88 84 85 84 85 78 79 82 82 83 86 90 91 92 92 86 80 77 74 71 70 77 77 79 77 75 80 83 79 80 80 82 84 85 87 89 88 86
89 85 83 91 76 82 89 91 90 86 82 84 90 88 87 80 87 87 84 85 85 85 85 87 91 89 87 81 85 84 85 87 76 74 75 82 87 90 79 78 78 78 80 79 81 81 76 82 83 86 83 83 84 86
89 89 79 76 87 89 95 88 92 94 89 80 74 75 79 86 89 83 83 83 86 90 90 89 87 86 90 82 84 86 84 84 87 87 86 87 86 82 81 84 82 82 83 82 82 79 80 80 80 83 86 88 85 88
87 90 84 82 89 92 93 89 88 84 83 88 86 84 84 87 89 84 85 89 84 90 90 84 84 82 82 85 85 85 91 84 82 77 78 82 82 83 87 85 83 83 82 83 84 84 85 86 84 85 85 84 85 86
82 88 88 90 92 92 95 96 94 90 92 87 90 86 91 88 87 87 87 91 85 85 85 83 83 86 83 83 83 89 90 80 81 82 80 85 85 85 84 85 86 86 86 86 83 85 87 86 86 85 85 85 87 89
73 75 76 80 85 78 80 80 75 85 82 82 85 83 86 85 88 89 81 82 86 88 88 88 87 86 82 78 77 79 74 75 79 84 88 86 88 88 86 85 87 87 87 88 85 86 86 84 86 84 83 87 88 90

GFSWCAN_sfc_rhum_057.txt.gz
RH
85 79 76 75 75 77 79 81 85 90 90 84 86 90 89 90 86 93 90 93 99 99 88 68 42 49 50 60 87 81 82 93 96 96 99 94 91 66 66 64 76 78 93 98 98 97 83 47 35 46 62 53 50 56
78 79 81 82 83 88 90 89 90 86 83 86 90 91 90 92 95 82 94 93 92 99 98 88 76 74 67 58 73 74 70 67 80 96 100 99 100 98 76 80 57 84 80 89 80 85 66 57 55 51 49 56 62 60
83 85 86 89 85 84 84 83 85 85 86 87 90 88 89 90 89 85 92 97 97 100 98 97 88 74 61 72 81 83 80 62 72 84 98 99 96 91 92 88 64 55 48 71 62 50 43 62 59 60 62 64 64 64
80 82 83 82 84 85 88 88 89 89 89 90 88 84 89 92 87 86 96 94 98 99 100 97 71 72 66 72 79 88 95 78 84 94 99 99 98 75 90 67 70 60 52 53 57 66 68 71 69 67 66 65 54 49
83 86 88 88 88 88 88 88 89 90 89 90 88 84 88 91 92 94 97 94 96 100 100 98 78 69 59 73 82 78 88 89 91 87 100 99 89 87 83 77 73 54 57 73 78 72 75 80 71 67 64 59 54 57
86 88 89 88 88 88 88 90 92 90 89 90 88 87 92 93 95 97 98 94 95 96 100 100 89 83 71 70 78 79 86 92 96 99 99 92 75 90 97 91 60 64 63 65 74 70 69 64 60 58 60 60 61 66
88 87 87 88 89 90 92 92 92 91 91 91 90 92 95 95 97 94 95 98 98 99 99 100 99 90 82 80 94 94 93 96 96 97 98 91 90 95 100 94 69 66 64 66 62 63 71 66 70 60 67 71 73 73
92 92 90 89 87 85 83 85 89 88 91 90 92 94 95 95 98 93 99 93 98 98 98 100 100 98 83 98 100 96 98 97 97 96 97 99 97 99 95 74 67 62 60 62 64 62 67 70 71 71 69 71 78 82
90 92 92 89 89 88 79 83 84 87 95 95 95 97 99 98 100 95 95 94 96 86 100 99 100 100 87 98 99 96 96 100 98 100 96 94 97 98 84 78 71 67 67 65 64 68 71 77 74 72 71 75 79 75
90 89 91 94 94 97 94 93 90 94 96 97 95 99 100 99 96 99 92 92 96 99 100 100 98 100 91 100 100 100 100 100 100 98 88 100 99 77 76 76 74 69 60 65 82 88 83 79 77 73 68 64 67 72
98 98 98 98 98 97 97 96 96 96 97 99 100 100 99 99 96 99 100 100 100 99 98 96 95 99 97 99 100 100 100 100 99 96 98 99 100 90 80 78 69 66 63 64 67 70 68 69 61 68 74 80 86 88
96 97 98 98 98 97 96 96 95 96 97 94 93 97 98 98 100 100 100 99 96 99 98 100 99 98 100 98 100 100 100 100 99 92 98 100 97 81 78 78 80 74 69 69 67 67 58 53 62 73 83 90 86 85
96 96 96 97 97 97 97 95 96 92 76 88 94 100 100 100 99 99 99 98 96 100 100 99 100 100 100 98 100 100 99 99 94 99 97 99 86 79 77 78 76 70 68 60 62 68 75 82 86 88 89 86 84 80
95 95 96 97 96 94 94 93 90 88 89 100 100 99 100 100 99 99 100 100 100 100 100 100 100 100 100 100 100 94 100 96 99 99 96 97 88 82 76 75 70 70 77 81 84 84 85 83 85 87 89 88 88 82
90 94 94 95 96 94 89 87 84 88 97 99 99 99 99 99 100 100 100 100 100 100 100 100 100 99 100 99 100 99 99 94 94 95 100 95 83 78 74 70 70 78 84 86 87 89 88 83 77 78 83 77 81 89
84 84 91 92 92 92 90 88 90 93 100 99 98 99 100 100 100 100 100 100 100 100 100 99 99 96 100 98 98 95 94 97 100 100 97 87 82 75 70 74 73 78 87 91 90 87 82 82 78 68 76 80 89 85
81 94 88 87 89 84 87 94 95 99 99 98 99 99 100 99 99 100 100 100 99 100 100 98 96 99 97 98 97 99 100 100 99 99 96 82 78 74 72 79 83 84 86 82 79 76 74 72 76 72 62 67 70 69
88 82 86 82 86 87 95 97 99 97 98 99 99 99 99 100 100 99 100 100 100 100 98 97 95 99 99 98 100 100 99 99 99 98 95 78 73 73 70 77 77 77 79 80 76 72 70 74 64 66 61 64 72 72
84 83 84 82 83 92 98 99 96 98 99 100 100 100 100 100 100 99 100 99 98 96 98 98 98 98 99 99 99 99 99 99 98 99 98 94 88 96 96 78 76 75 74 72 68 64 62 63 68 69 73 81 92 92
74 78 84 76 78 95 97 99 92 96 99 99 100 100 100 100 100 100 99 98 98 98 96 97 97 98 98 99 99 99 98 99 97 98 98 98 98 97 97 95 85 81 74 67 72 71 66 69 71 78 89 93 96 97
81 82 84 84 91 92 98 99 99 100 99 99 100 100 100 99 98 98 97 92 91 98 97 98 98 98 99 98 98 98 99 98 98 91 97 98 98 95 97 97 95 92 85 83 82 82 87 90 88 91 98 98 96 96
85 82 99 94 96 97 97 95 98 98 99 100 99 99 99 99 99 98 92 92 96 98 98 98 97 97 96 98 98 97 90 85 90 96 96 93 95 95 95 91 88 92 90 92 88 92 91 88 93 96 97 96 96 96
84 90 97 92 88 88 94 94 93 89 98 99 99 98 99 99 99 98 97 96 97 98 98 98 97 95 95 92 88 95 96 87 92 92 90 90 88 88 88 91 86 88 87 82 83 90 96 91 93 95 97 96 97 98
84 96 98 98 91 94 96 92 93 93 94 93 92 96 95 99 96 92 96 96 96 85 91 96 97 86 86 84 90 92 95 88 91 94 85 81 87 90 89 87 85 87 88 86 89 95 95 97 93 96 97 96 98 98
83 93 92 89 92 88 88 85 89 91 97 94 92 97 97 96 96 96 96 93 94 94 93 94 89 87 90 94 92 92 93 90 91 91 94 88 86 89 87 79 82 84 87 94 95 95 96 96 97 96 94 98 96 97
88 91 85 93 91 94 97 94 94 89 89 95 97 94 97 93 92 97 90 96 97 93 96 96 95 90 90 90 90 90 93 92 86 90 90 89 93 95 96 95 95 93 88 93 96 98 96 95 97 96 98 93 95 98
94 96 93 88 93 91 93 93 91 93 97 97 96 97 95 96 98 93 91 92 90 95 93 93 89 89 91 92 92 93 93 91 92 89 82 79 81 82 89 94 96 94 94 93 96 96 99 99 100 100 100 98 99 99
97 96 97 92 92 90 96 94 96 97 96 92 97 97 98 97 96 95 96 96 95 88 89 90 90 90 92 94 94 94 96 97 93 89 85 87 86 91 94 96 95 90 96 96 94 98 99 100 100 100 100 100 100 100
97 97 93 93 89 94 97 97 97 94 92 94 97 97 98 94 96 96 96 93 89 90 95 97 99 95 91 90 90 89 90 92 89 91 96 99 99 99 97 97 98 98 97 97 97 90 91 96 98 98 100 98 96 98
97 95 90 91 95 97 98 95 97 96 89 94 90 86 87 97 96 91 93 96 95 96 96 94 92 92 96 96 98 98 97 96 95 99 100 100 100 98 100 98 98 99 99 99 100 98 98 98 100 99 99 99 99 99
96 94 90 94 97 97 96 91 88 84 93 91 87 89 94 98 98 93 94 96 92 95 92 94 95 96 97 98 100 100 100 99 96 97 98 100 100 98 97 99 97 98 100 98 99 100 100 100 100 100 100 100 100 100
94 97 98 97 98 98 96 97 96 94 96 97 98 98 99 97 99 99 95 94 94 96 99 98 99 100 99 99 99 99 99 98 99 99 100 100 100 100 100 99 99 96 97 100 100 97 99 100 100 98 100 100 100 100
90 89 90 97 98 96 94 95 94 96 96 96 98 98 99 98 100 99 97 97 98 100 100 99 98 98 96 93 92 96 96 98 98 99 99 99 100 100 100 100 100 100 100 100 100 100 100 99 97 98 98 100 100 100

GFSWCAN_sfc_rhum_060.txt.gz
RH
92 91 90 90 87 83 79 78 78 77 77 79 80 83 85 86 90 86 87 95 95 98 94 86 59 57 47 46 86 87 84 87 96 96 100 94 86 71 77 65 68 67 87 98 96 91 73 50 41 45 52 61 68 72
91 90 89 86 81 78 78 77 78 78 80 81 82 82 86 89 85 79 95 91 91 99 97 92 89 87 52 36 68 88 67 83 89 95 99 99 98 94 80 90 69 74 63 80 78 78 59 62 54 61 58 64 67 70
88 87 82 77 77 77 78 79 80 82 89 84 86 93 90 84 84 78 94 94 94 98 96 99 96 74 68 70 69 86 88 79 87 88 97 98 86 90 86 87 73 64 69 79 74 63 72 73 72 68 68 73 71 71
82 80 80 79 80 81 81 84 88 87 93 91 91 90 86 84 88 80 95 97 96 98 100 94 85 76 67 80 77 73 78 90 92 94 100 100 92 78 87 66 71 67 59 64 87 82 74 75 77 76 64 64 63 61
88 86 83 82 82 87 88 91 92 92 90 91 89 91 91 91 91 93 96 91 96 100 100 98 92 77 74 85 88 80 82 92 98 94 100 96 92 86 89 79 75 60 60 73 80 71 74 83 81 68 65 67 67 69
86 87 88 88 89 89 89 90 91 92 91 90 89 88 89 91 87 92 97 95 92 96 100 100 96 92 88 86 87 90 92 95 98 99 100 93 84 84 89 87 70 71 72 67 81 77 78 75 69 62 69 72 70 72
91 90 90 90 90 90 91 92 92 93 91 90 87 91 88 89 92 91 94 96 82 96 99 100 100 96 88 89 96 97 95 99 96 99 100 97 96 92 99 91 75 78 72 68 63 64 73 71 82 76 76 76 73 71
89 88 89 90 89 90 93 94 93 93 92 90 90 88 86 92 92 93 98 99 93 95 98 100 99 98 86 99 100 97 99 98 98 98 99 99 96 98 94 84 77 72 71 69 73 69 71 74 76 77 72 72 79 80
88 90 93 93 93 94 94 93 93 93 92 92 91 96 97 98 99 93 99 99 99 99 100 100 100 100 89 99 98 96 98 100 99 100 99 94 99 95 89 82 74 71 78 82 76 74 75 80 79 77 76 80 72 72
94 92 90 88 87 87 90 90 86 90 92 93 93 98 100 98 94 87 92 99 98 100 100 100 99 100 95 100 100 99 100 100 100 98 91 97 99 87 86 83 77 74 75 77 88 95 88 86 82 79 77 70 69 74
91 94 90 86 86 86 86 89 88 88 92 96 99 100 100 98 97 99 100 100 99 97 98 98 96 99 98 99 100 100 100 99 99 96 97 100 99 90 85 86 70 70 74 78 74 76 72 75 76 80 82 83 86 87
92 92 91 94 94 94 92 85 90 96 94 94 96 98 98 98 100 100 100 98 96 97 98 100 100 99 100 96 99 100 98 99 97 93 99 99 95 90 84 86 80 74 76 76 72 69 65 66 71 78 79 81 86 81
97 97 95 93 96 95 92 87 89 86 98 93 95 100 100 100 99 97 99 98 97 99 99 99 100 100 99 97 100 100 99 98 96 98 97 96 92 85 86 81 77 70 70 64 60 67 75 80 80 76 78 80 83 81
95 96 98 98 96 94 94 93 93 97 92 99 100 99 100 99 99 99 99 100 99 100 100 99 100 99 100 100 100 99 99 96 99 99 95 98 91 88 84 75 72 81 84 82 82 83 86 86 88 87 84 84 84 75
94 93 92 96 95 96 97 96 86 88 97 99 98 99 99 99 99 100 100 100 100 100 100 99 99 98 100 99 99 99 99 99 95 94 99 98 91 86 80 77 82 88 88 84 82 87 88 84 78 78 77 73 82 89
90 86 94 94 94 94 94 86 90 93 99 98 98 99 99 99 100 100 100 100 100 100 99 97 96 95 100 98 96 97 95 96 99 100 98 90 83 78 76 79 81 83 83 81 79 78 78 80 78 73 71 75 89 88
87 98 91 90 90 84 85 92 94 99 99 97 99 99 100 99 100 100 100 100 99 100 100 98 90 98 98 97 99 100 100 99 100 100 94 80 80 80 84 89 90 87 85 83 79 75 70 67 77 75 70 66 67 74
90 87 86 83 85 88 95 96 96 93 99 99 97 99 99 99 99 99 100 100 100 100 97 98 95 95 99 99 99 100 99 99 99 94 86 79 78 80 79 87 83 80 80 77 73 72 67 70 62 67 69 66 75 80
86 85 85 83 83 93 98 99 95 98 99 100 100 100 100 100 99 99 99 99 97 94 96 94 93 97 98 98 99 99 99 99 98 98 98 98 98 97 98 97 83 79 75 72 71 70 69 66 69 73 79 80 90 94
78 83 87 85 80 92 96 99 92 98 99 99 100 99 99 99 99 98 96 96 90 96 96 96 97 97 98 99 99 99 99 99 97 97 98 98 98 96 96 92 84 71 66 66 68 73 73 77 73 80 87 88 95 99
85 88 89 86 92 93 98 99 99 99 99 99 100 99 99 93 95 96 93 86 88 97 96 97 98 98 98 98 98 98 99 97 98 92 94 96 97 94 95 96 94 92 92 93 94 94 95 93 89 92 96 97 97 98
94 86 97 90 92 92 96 97 99 100 99 99 99 99 99 98 97 95 79 91 96 97 97 96 95 95 93 95 96 98 98 96 96 94 95 92 94 93 94 94 92 95 94 96 92 95 92 88 92 95 98 97 96 96
84 87 92 86 85 87 93 93 95 99 98 99 99 98 98 98 99 91 96 92 94 95 97 96 95 95 94 94 88 92 90 84 90 90 89 91 91 92 91 92 91 94 94 94 85 89 94 91 93 96 96 95 97 97
80 93 98 97 92 100 92 91 91 97 98 98 97 97 97 98 91 92 95 94 94 91 91 95 93 89 84 82 89 92 93 84 86 90 92 89 90 92 89 91 91 93 93 92 92 94 93 96 94 94 95 97 99 99
82 89 86 86 90 86 91 91 92 92 97 96 96 97 97 93 96 96 95 91 93 94 94 90 85 85 88 90 89 92 91 85 88 90 93 92 92 92 91 89 90 92 89 94 96 96 97 96 96 96 96 100 96 98
86 98 90 93 94 95 97 92 95 93 97 97 97 98 94 92 92 97 88 95 97 93 96 96 93 90 91 88 90 90 94 92 81 89 91 90 92 93 95 94 94 95 91 96 97 97 98 98 99 98 100 99 100 100
96 98 94 92 97 92 94 95 92 95 98 98 97 96 93 97 99 93 90 91 90 94 93 92 86 88 91 91 91 93 93 89 89 89 85 82 82 81 89 94 94 95 96 94 97 99 100 100 100 100 100 100 100 100
98 98 98 94 94 94 99 100 98 98 98 94 89 98 99 99 97 94 95 95 95 90 91 91 90 89 92 94 93 95 96 97 92 89 86 87 87 93 97 98 98 99 100 99 99 100 100 100 100 100 100 100 100 99
97 98 90 96 96 97 98 98 98 96 91 94 99 100 99 93 96 96 96 96 93 92 94 94 96 93 92 91 90 89 89 95 91 99 100 100 100 98 97 97 98 100 100 99 100 99 96 98 99 100 100 100 100 100
96 98 92 98 97 98 98 99 97 96 92 98 91 82 88 96 96 94 94 93 93 96 96 96 96 96 100 98 100 98 99 96 96 99 100 100 100 99 100 100 100 99 100 100 99 98 100 100 100 100 99 100 100 100
98 95 94 98 98 98 93 88 82 84 94 90 93 92 99 97 97 95 95 95 95 95 93 98 99 100 98 100 100 100 100 100 100 100 100 100 100 100 100 100 100 100 100 100 100 100 100 100 100 100 100 100 100 100
96 98 96 97 97 96 97 97 97 99 100 99 100 100 99 97 100 99 98 98 96 98 100 100 100 100 100 100 100 100 99 100 100 100 100 100 100 100 100 100 100 100 100 100 100 100 100 100 100 100 100 99 99 100
93 94 96 98 97 98 97 95 99 98 100 100 99 99 100 99 100 98 98 100 99 100 100 100 100 99 100 100 100 100 100 100 100 100 100 100 100 100 100 100 100 100 100 100 100 100 100 100 100 100 100 100 100 100

GFSWCAN_sfc_rhum_063.txt.gz
RH
86 80 80 79 81 90 89 88 86 82 78 80 80 81 82 83 88 94 93 96 96 98 95 94 72 74 62 57 72 84 84 90 96 96 97 92 89 76 74 64 68 74 89 96 94 84 76 49 49 42 50 74 69 71
91 93 90 91 91 90 90 88 82 79 80 81 82 82 84 82 85 88 97 94 96 98 96 87 79 80 82 50 54 92 67 84 83 96 97 97 95 95 82 86 68 64 67 80 74 76 61 58 46 60 65 71 74 76
90 91 92 92 91 90 88 82 80 80 81 81 83 85 82 81 85 89 95 89 96 97 95 99 95 84 83 82 56 81 89 80 86 90 96 98 85 86 91 86 80 68 68 74 68 68 71 76 75 72 70 71 72 78
90 90 90 89 88 86 83 80 80 80 81 81 83 83 84 83 86 91 95 92 89 97 100 94 92 92 77 85 72 66 76 93 94 97 100 100 92 77 85 65 77 70 69 81 88 89 77 76 84 72 72 72 70 71
84 82 82 82 81 80 80 80 80 81 82 82 82 84 82 83 88 93 95 93 86 93 100 98 91 88 90 94 80 83 82 89 95 95 100 95 91 87 92 82 80 66 70 80 80 77 72 78 82 72 72 74 72 69
83 84 83 82 83 83 84 87 83 81 86 84 82 83 89 91 82 87 97 93 95 97 99 100 92 94 92 94 91 90 93 97 98 99 100 96 90 88 91 90 63 70 70 61 62 73 85 82 72 69 75 75 74 74
89 82 81 83 86 86 88 88 92 91 84 82 86 91 91 82 88 90 94 94 90 94 100 100 99 93 94 95 98 98 96 99 96 99 100 97 98 93 99 91 74 81 78 77 71 71 79 75 82 76 75 76 77 79
90 90 90 91 92 90 91 89 91 90 90 90 90 90 89 83 78 92 99 87 84 92 97 100 99 99 88 99 100 98 99 98 99 99 100 99 97 99 96 80 86 74 74 76 77 73 74 80 79 78 73 73 76 78
90 90 89 90 93 94 94 92 92 91 91 86 85 86 91 90 94 95 96 90 98 96 100 100 100 100 94 99 98 97 99 100 99 100 100 96 100 98 88 86 83 75 81 82 76 76 74 80 80 79 76 71 75 75
91 92 93 93 94 94 94 92 89 89 90 88 87 94 100 96 93 95 98 100 100 100 100 100 99 100 97 100 100 100 100 100 100 99 95 97 98 87 85 83 82 82 76 75 87 92 88 88 85 82 72 66 69 74
93 94 94 93 85 89 93 89 88 91 84 96 97 100 94 92 92 97 100 100 100 100 100 98 98 99 98 99 100 100 100 100 100 98 97 100 98 93 90 88 82 80 78 80 79 75 72 77 81 78 79 81 78 72
92 90 89 90 92 90 90 89 91 91 95 93 97 98 99 98 100 100 99 100 99 96 99 100 100 99 100 97 99 100 98 98 96 94 100 99 94 94 93 89 88 83 80 79 76 76 75 76 75 77 81 79 77 73
87 86 82 85 88 89 87 85 84 91 95 98 98 100 98 100 100 99 98 99 100 99 99 100 100 100 98 99 100 98 98 98 95 99 96 93 96 91 86 84 84 78 77 75 75 78 80 77 76 79 79 76 74 67
92 91 91 92 91 92 92 92 90 94 99 100 100 99 100 99 99 99 99 100 100 100 100 99 100 100 100 99 100 98 99 97 99 100 97 99 95 89 80 78 76 81 88 89 90 83 78 76 78 82 82 80 76 66
96 95 94 95 94 94 93 91 91 97 98 99 99 99 99 100 100 100 100 100 100 99 100 99 99 97 100 99 98 99 99 99 98 94 98 99 93 85 87 88 89 92 91 88 83 86 85 77 73 76 78 70 74 87
89 89 98 98 97 95 93 94 97 96 99 99 99 99 100 100 100 100 100 100 99 100 98 95 96 93 100 97 95 98 96 95 98 100 100 92 87 85 87 86 83 82 82 82 84 87 78 78 78 75 77 78 87 87
87 97 95 95 97 96 94 93 92 98 98 96 99 99 99 99 100 100 100 100 99 100 99 96 90 99 99 97 99 100 100 99 99 100 95 85 86 90 92 92 94 94 95 95 91 74 74 70 71 70 73 70 64 73
98 96 90 89 92 92 95 95 94 93 99 99 98 99 98 98 99 99 99 99 99 100 99 99 94 98 99 99 99 100 99 99 98 94 95 97 97 97 91 92 93 93 84 72 69 71 69 72 67 66 65 67 75 77
92 92 89 86 84 93 98 99 94 97 99 99 99 100 99 99 96 97 97 97 98 94 93 92 93 97 97 97 99 99 99 99 97 98 98 99 98 97 97 92 80 80 77 68 68 69 69 69 75 75 76 80 90 88
82 84 86 85 82 94 98 99 94 96 99 99 97 94 97 98 98 98 95 94 88 95 94 96 96 97 98 98 99 99 99 99 94 95 96 97 97 96 97 94 93 93 89 81 76 76 80 87 87 82 86 90 96 97
82 86 83 83 93 94 99 99 99 99 99 99 99 98 98 89 92 93 90 80 86 97 95 96 97 97 97 98 99 97 98 96 97 94 94 95 96 94 94 95 94 93 92 92 93 94 94 94 93 87 95 98 98 98
93 80 91 83 89 92 96 98 99 100 99 99 99 97 98 97 96 95 82 90 95 95 96 96 95 95 92 95 96 96 96 93 93 91 93 91 93 92 93 94 90 94 94 95 93 95 93 88 92 94 94 97 96 96
81 84 91 85 85 89 98 94 97 99 98 99 98 97 98 98 97 84 95 91 94 94 96 95 96 95 94 95 91 93 93 84 89 90 89 90 89 90 90 92 91 93 94 94 91 93 95 93 93 94 93 94 97 97
74 88 93 94 91 99 91 95 98 98 98 97 97 97 97 97 90 92 95 94 94 91 91 94 92 89 85 81 89 91 92 80 84 89 89 85 87 91 89 90 90 92 92 91 93 95 95 96 94 95 96 98 98 99
82 91 86 90 92 87 94 93 97 96 97 97 96 97 97 94 96 95 95 92 94 94 94 92 89 88 90 92 90 91 89 79 83 90 93 85 90 89 90 88 89 86 87 93 96 96 97 97 96 96 97 100 97 100
100 98 98 96 96 95 98 97 97 97 96 96 97 96 93 94 94 96 90 95 96 93 96 95 94 89 90 88 90 90 93 79 78 88 89 84 89 92 94 94 95 96 90 96 96 99 99 100 100 100 100 100 100 100
96 99 94 86 92 92 96 95 89 93 97 97 97 95 90 97 99 93 90 91 90 94 93 91 87 89 91 91 91 93 90 87 89 90 88 89 90 88 92 97 100 98 96 96 100 100 100 100 100 100 100 100 100 100
98 97 99 97 96 92 100 98 98 98 98 93 85 99 100 100 98 95 96 95 95 89 87 88 85 87 91 93 95 96 96 92 90 89 88 85 92 95 95 96 98 100 97 99 100 100 100 100 100 100 100 100 100 100
98 96 91 98 95 96 97 98 98 92 90 94 98 100 100 93 97 96 96 95 93 89 92 94 97 95 92 90 92 90 89 95 93 99 100 100 100 100 99 100 100 100 100 100 100 100 100 100 100 100 100 100 100 100
98 96 96 99 97 98 97 95 98 96 94 98 91 82 88 96 96 94 94 93 94 97 98 97 98 98 100 100 100 98 100 100 98 96 100 100 100 100 100 100 100 100 100 100 100 100 100 100 100 100 100 100 100 100
98 93 96 97 97 97 92 87 84 87 94 90 94 90 97 98 98 95 95 97 95 96 96 99 100 100 100 100 100 100 100 100 100 100 100 100 100 100 100 100 100 100 100 100 100 100 100 100 100 100 100 100 100 100
97 100 98 99 98 98 98 97 98 98 100 99 100 100 97 97 100 99 98 98 97 100 100 100 100 100 100 100 100 100 100 100 100 100 100 100 100 100 100 100 100 100 100 100 100 100 100 100 100 100 100 100 100 100
96 96 98 99 98 98 98 96 99 99 98 100 100 100 100 98 100 98 99 100 100 100 100 100 100 100 100 100 100 100 100 100 100 100 100 100 100 100 100 100 100 100 100 100 100 100 100 100 100 100 100 100 100 100

GFSWCAN_sfc_rhum_066.txt.gz
RH
86 88 86 85 85 82 84 87 91 90 88 86 81 80 78 76 77 85 88 86 97 95 91 94 79 70 61 60 75 75 73 86 96 88 94 92 90 80 80 69 77 78 90 92 90 87 75 50 49 43 49 71 62 58
88 85 84 84 83 79 80 92 90 89 87 86 81 79 79 79 79 78 95 87 95 91 94 86 80 81 59 54 55 76 66 84 82 91 97 95 92 95 79 84 66 72 68 78 72 75 63 58 49 51 57 64 70 69
82 81 84 83 80 84 89 91 89 88 88 84 80 80 80 80 77 82 94 92 96 95 93 97 93 78 84 86 69 83 92 83 88 88 95 96 87 86 89 84 84 66 64 71 66 61 65 67 73 72 70 72 78 79
92 90 86 87 90 91 90 91 89 88 85 81 80 80 79 80 85 86 95 96 95 96 100 93 89 95 87 88 86 71 79 92 93 95 99 100 94 78 86 69 74 70 67 78 78 82 80 76 78 74 78 81 81 69
90 91 91 92 91 92 91 90 88 86 83 82 81 82 86 86 87 90 95 96 91 95 99 96 85 92 93 96 94 71 84 90 95 97 100 96 94 87 94 85 85 73 73 77 73 57 60 65 81 77 79 82 74 68
86 87 89 89 89 89 87 85 83 83 84 85 85 84 82 86 86 95 99 96 90 96 97 99 90 95 92 98 99 87 72 95 96 97 100 97 93 90 94 92 63 62 68 65 55 73 86 85 78 74 79 80 76 75
85 86 85 84 84 83 84 85 85 85 85 85 84 84 83 88 91 97 96 95 91 92 97 99 99 95 95 96 99 97 96 99 96 98 100 96 98 89 98 91 69 83 80 79 75 74 80 76 80 79 79 81 80 81
83 85 87 86 86 85 85 84 84 85 84 85 85 83 84 82 88 96 99 90 89 95 96 100 99 98 92 100 100 98 99 98 99 100 100 99 98 99 98 77 87 80 79 80 82 77 79 81 82 86 83 83 90 90
90 90 89 89 88 89 86 80 85 86 85 88 87 90 92 94 97 98 93 86 95 91 99 100 100 100 93 99 99 99 99 100 99 100 100 96 100 98 85 82 84 79 77 85 81 77 75 83 85 81 77 81 84 83
92 93 91 87 91 90 88 85 87 90 89 89 89 94 100 96 94 88 98 95 96 98 100 100 99 100 97 100 100 99 100 100 100 99 96 99 99 89 85 83 83 78 78 77 88 92 89 86 82 77 77 75 77 81
93 93 94 89 89 85 85 87 88 91 86 96 95 100 98 93 98 98 100 100 100 100 100 98 98 99 98 99 100 100 100 100 100 99 98 100 98 92 87 91 85 78 76 76 75 77 75 78 75 78 80 82 80 79
93 90 87 83 85 87 84 84 85 94 98 95 93 94 98 96 100 99 99 99 99 98 99 100 99 99 100 99 100 100 99 99 99 96 99 99 94 96 96 97 95 90 87 85 78 81 79 72 72 80 85 90 89 74
92 83 86 92 89 90 91 95 94 91 93 96 98 100 100 100 100 97 99 99 100 100 99 100 100 99 100 100 100 100 96 99 97 99 97 95 96 92 95 93 88 80 80 79 79 80 82 87 88 90 94 78 70 69
89 88 88 91 91 92 92 96 92 92 95 100 100 99 97 99 99 99 99 100 100 100 100 100 100 99 100 99 100 98 100 96 98 99 98 99 98 90 86 81 82 89 91 90 91 92 93 92 95 91 81 81 83 74
91 91 92 92 94 95 96 94 94 97 98 100 98 99 99 99 99 99 100 100 100 100 100 99 98 97 99 98 99 99 98 100 96 97 97 99 93 92 92 92 93 96 96 95 92 94 95 88 83 82 82 76 79 88
91 91 97 94 93 95 93 94 97 97 100 99 95 98 100 99 99 99 100 100 100 100 98 94 96 94 99 97 94 100 95 100 99 99 100 94 95 93 92 93 93 92 92 94 92 92 94 95 94 80 77 81 89 88
88 99 98 95 93 91 91 95 97 99 99 96 98 99 99 99 99 99 99 99 99 100 99 96 91 99 98 96 100 100 99 100 99 99 97 93 94 94 93 93 94 94 94 95 95 93 93 83 78 76 72 65 65 78
99 99 95 93 90 93 98 96 97 98 98 99 98 99 97 98 99 99 99 97 99 99 98 99 92 95 98 99 99 99 99 98 98 98 98 98 96 97 95 96 95 94 94 94 86 74 72 74 73 73 68 69 76 79
98 98 95 94 94 95 99 100 96 98 99 99 99 98 98 99 97 97 94 92 92 88 93 92 93 94 96 97 99 99 99 98 95 97 97 98 97 96 96 94 94 94 92 92 92 93 93 85 78 78 81 85 92 89
90 91 94 96 94 98 99 99 92 98 98 98 97 96 97 98 98 98 94 94 87 93 93 94 95 96 97 97 99 99 98 98 95 95 96 96 96 95 96 92 93 92 91 90 92 94 91 91 90 91 93 94 94 95
77 79 78 88 96 96 99 99 99 99 99 96 98 97 98 93 94 96 95 83 89 96 95 96 97 96 97 96 97 96 96 94 96 93 94 94 96 92 93 93 91 91 91 93 93 94 93 94 92 89 94 98 98 98
89 75 89 84 92 94 96 99 99 100 98 99 98 95 98 96 96 96 78 90 94 95 96 96 95 95 93 94 95 95 96 93 94 92 93 91 92 91 92 93 89 93 92 94 91 94 94 93 94 94 95 98 95 94
78 82 89 84 86 89 98 98 97 99 98 99 98 96 97 97 96 73 95 92 94 94 95 95 96 96 94 95 89 92 94 84 90 91 91 91 91 91 89 91 89 92 93 93 90 92 96 93 93 95 95 95 97 97
70 86 91 93 88 98 93 98 98 97 98 98 97 97 96 97 88 91 95 94 95 92 91 94 93 91 88 82 89 91 92 86 87 89 89 82 86 90 85 87 88 91 91 90 92 95 94 96 95 96 98 100 99 100
83 94 87 93 94 88 94 95 97 96 97 97 96 97 97 96 96 95 95 93 94 94 94 92 90 90 91 92 91 91 86 78 83 89 91 83 88 85 84 82 84 85 87 93 97 98 99 98 97 98 100 100 100 100
96 97 96 98 95 97 98 98 97 96 96 96 96 96 96 96 94 96 90 95 96 94 96 96 95 92 91 90 90 89 92 77 77 89 89 83 86 91 94 95 96 98 92 97 97 100 100 100 100 100 100 100 100 100
97 98 95 77 88 90 95 94 86 92 97 97 96 96 94 96 97 93 91 92 91 94 92 91 88 88 90 91 90 91 89 88 91 92 88 90 91 92 95 99 99 98 96 99 100 100 100 100 100 100 100 100 100 100
98 95 96 97 96 91 100 98 97 97 97 89 83 99 99 100 97 94 94 93 93 89 88 89 88 89 92 95 96 96 95 94 89 88 84 86 92 96 97 99 100 100 100 100 100 100 100 100 100 100 100 100 100 100
100 97 91 98 95 96 97 97 98 91 89 94 99 100 100 92 98 97 96 94 91 87 89 91 97 96 93 92 95 96 96 98 89 95 100 100 100 100 100 100 100 100 100 100 100 100 100 100 100 100 100 100 100 100
98 97 96 98 97 99 99 98 99 96 92 98 88 82 88 96 96 95 94 95 95 97 99 100 100 99 100 100 100 99 100 100 98 96 100 100 100 100 100 100 100 100 100 100 100 100 100 100 99 99 99 99 100 100
98 94 96 97 98 98 93 94 85 87 93 91 92 92 98 98 98 96 96 98 98 97 97 100 100 100 100 100 100 100 100 100 100 100 100 100 100 100 100 100 100 100 100 100 100 100 100 100 100 100 100 100 100 100
98 100 97 99 100 98 99 100 100 99 99 99 99 100 96 97 100 99 99 99 100 100 100 100 100 100 100 100 100 100 100 100 100 100 100 100 100 100 100 100 100 100 100 100 100 100 100 100 100 100 100 100 100 100
98 99 99 99 98 99 98 97 100 99 99 100 100 100 100 98 100 99 99 100 100 100 100 100 100 100 100 100 100 100 100 100 100 100 100 100 100 100 100 100 100 100 100 100 100 100 100 100 100 100 100 100 100 100

GFSWCAN_sfc_rhum_069.txt.gz
RH
87 88 87 87 88 88 86 83 81 82 88 90 89 86 84 80 77 71 85 91 87 97 87 86 86 74 57 58 70 77 70 76 93 89 96 88 91 74 76 67 77 74 81 89 84 94 70 48 36 45 48 47 43 50
88 86 86 86 87 91 84 82 82 85 92 90 86 86 83 79 78 72 88 91 90 93 91 93 89 82 56 47 60 66 67 68 78 85 93 91 98 97 73 64 63 77 65 74 64 65 59 48 45 44 47 48 56 52
88 87 86 86 84 83 83 83 80 92 90 88 88 86 84 78 77 74 94 95 96 90 85 88 88 77 81 75 48 78 86 73 82 82 91 89 93 81 95 81 70 63 64 68 65 56 56 59 54 55 52 56 60 60
83 84 84 84 84 83 80 80 89 89 90 89 88 87 83 77 78 73 93 94 91 92 98 91 82 78 79 74 64 67 72 88 88 90 99 99 98 73 83 65 69 63 64 69 69 60 71 63 68 58 61 70 66 61
94 91 90 88 89 92 93 92 92 91 90 89 87 85 83 80 79 84 93 92 86 99 99 92 84 80 94 85 79 71 84 87 92 97 100 94 85 85 86 78 80 64 65 71 69 56 53 42 57 68 68 73 62 62
90 91 92 93 93 93 93 92 91 91 90 88 88 85 83 81 81 90 99 93 86 96 98 100 91 90 98 97 94 80 71 88 92 92 99 91 87 87 99 85 59 60 63 62 54 66 72 77 72 68 70 70 62 61
89 90 90 90 90 90 90 90 90 89 88 86 83 81 80 87 92 94 95 92 86 94 98 100 99 96 96 95 96 96 91 95 90 95 99 92 95 81 98 87 58 74 72 72 70 71 71 68 71 71 71 70 70 65
87 86 87 87 87 87 87 85 83 81 82 83 83 88 86 82 88 94 98 87 81 92 96 99 99 99 99 100 100 95 99 97 97 96 98 97 98 96 97 71 79 75 75 76 75 73 71 75 76 79 75 74 79 81
88 88 87 87 87 87 86 84 84 85 84 83 84 84 91 92 97 97 92 89 97 92 100 100 100 100 98 99 99 99 98 100 98 100 98 93 100 98 79 76 78 76 74 78 77 75 74 76 79 80 78 76 82 81
88 90 89 88 86 86 86 86 86 86 85 84 85 93 99 96 94 91 99 98 98 99 100 100 99 100 98 100 100 100 100 100 100 98 96 100 98 84 77 75 74 75 77 76 86 89 85 84 81 78 73 72 76 76
87 92 92 91 87 85 88 86 84 85 84 98 98 100 97 92 94 98 100 100 100 100 100 95 97 100 97 99 100 100 100 100 100 99 99 100 98 87 86 84 82 78 74 74 73 72 66 73 77 82 83 85 84 77
87 90 94 88 89 89 87 86 87 93 97 93 95 97 98 96 100 100 99 100 99 94 100 99 98 96 100 96 98 100 100 100 100 96 100 99 92 94 93 92 88 83 79 78 74 74 71 71 74 81 84 86 88 88
88 91 87 95 94 95 95 92 90 92 89 93 96 100 96 100 100 99 97 100 99 100 99 100 100 100 100 97 100 100 100 100 98 100 97 95 96 96 94 87 84 79 80 79 76 77 81 84 85 88 93 95 96 94
91 88 89 93 95 92 90 89 88 91 93 99 100 99 99 100 100 98 96 98 100 100 100 100 100 100 100 100 100 100 100 99 97 96 97 97 97 92 86 84 85 92 93 92 92 90 91 90 94 96 96 96 95 92
92 94 94 95 94 91 90 92 90 96 98 99 100 99 99 99 99 100 100 100 100 99 99 100 99 98 100 100 100 100 99 99 96 97 98 100 97 95 96 94 94 95 96 94 90 92 95 95 93 94 94 93 89 92
91 86 97 94 92 90 89 91 96 97 100 99 97 99 99 100 99 99 100 100 99 100 99 98 100 99 99 95 94 100 95 99 100 100 100 96 96 94 94 95 96 96 95 95 94 94 94 94 95 91 86 85 91 89
89 99 94 93 93 91 89 96 98 100 99 98 98 98 98 99 99 99 99 99 99 100 99 96 98 100 95 96 99 99 100 99 99 98 98 96 94 95 95 94 96 95 94 94 94 92 91 79 72 72 72 66 68 78
99 98 92 89 88 90 97 98 99 99 97 98 97 98 97 98 98 98 98 98 100 99 92 96 87 92 96 95 96 98 98 97 97 97 97 97 96 96 93 94 94 91 91 92 88 87 87 91 88 89 78 70 72 74
97 94 90 86 89 96 99 100 98 96 98 98 98 97 98 98 95 94 92 88 89 84 87 86 89 90 94 93 97 98 97 96 94 96 96 97 96 95 94 93 92 92 91 90 89 89 89 87 82 78 77 81 88 88
96 98 97 93 89 99 99 99 95 94 96 97 96 95 94 96 96 96 90 85 78 86 92 93 92 94 94 94 97 97 96 96 93 93 95 95 95 93 94 89 90 89 87 86 88 90 86 86 84 86 87 88 90 88
88 93 95 95 99 98 99 100 99 99 94 93 93 90 96 89 92 95 94 82 88 95 92 93 95 95 96 96 95 94 95 91 94 90 92 92 94 89 90 91 89 88 87 89 89 90 89 88 84 84 92 95 94 92
87 78 95 94 99 99 97 98 99 99 97 97 96 93 97 96 96 96 74 89 92 93 93 94 93 93 92 94 95 94 96 93 93 91 93 90 91 89 90 89 82 90 89 92 86 92 90 87 87 89 92 94 88 89
74 78 88 86 89 90 98 98 96 97 96 98 95 92 96 96 95 71 94 90 93 92 94 93 95 95 93 95 89 93 94 83 89 90 91 90 88 87 85 87 83 90 92 88 82 87 92 87 89 91 90 90 90 91
69 86 91 92 87 94 93 97 97 96 97 96 96 96 95 95 88 90 93 93 94 91 91 94 91 90 89 85 89 90 92 84 85 88 87 80 83 84 77 80 82 85 82 81 84 87 86 90 93 90 92 91 94 93
84 94 92 98 94 91 96 95 94 92 96 96 95 96 96 93 94 92 93 92 93 94 94 92 90 90 91 92 91 91 90 78 81 87 84 73 78 78 80 79 81 79 78 89 93 94 96 95 95 94 93 95 92 96
95 98 95 98 94 94 96 97 97 98 96 96 96 94 94 93 92 94 89 94 95 92 96 95 94 91 91 89 89 87 90 72 73 87 86 80 79 83 88 89 90 93 90 92 92 94 96 97 95 94 94 93 100 99
98 99 91 71 84 84 94 93 84 92 97 97 95 95 93 94 94 91 90 90 90 92 91 91 89 88 89 88 85 85 86 85 87 87 83 84 86 86 90 94 97 94 91 96 98 98 98 100 100 100 100 98 99 100
96 91 95 97 94 86 98 96 96 97 94 87 83 98 96 95 93 92 92 92 92 90 89 90 88 84 87 90 91 91 92 89 88 85 82 84 89 93 95 95 97 100 95 100 99 98 97 98 99 100 100 100 100 98
100 97 88 98 93 96 97 97 96 89 87 89 97 99 96 89 95 93 92 92 93 92 92 93 95 93 92 91 94 93 92 89 80 88 93 97 98 97 98 99 97 97 98 92 100 98 99 99 98 95 96 97 98 100
99 95 95 98 98 100 99 98 99 97 90 94 88 80 86 93 95 93 92 90 90 97 98 96 97 94 100 94 100 98 100 99 94 90 96 99 99 98 100 100 100 100 100 99 97 90 99 96 94 92 93 93 94 94
97 94 96 96 98 98 97 99 87 86 93 91 93 94 97 97 97 95 94 96 96 95 95 100 100 100 97 98 99 98 100 100 100 100 99 100 100 100 100 100 100 100 100 100 100 100 97 97 97 96 94 94 95 96
99 100 96 100 99 98 97 100 100 98 98 98 98 96 95 94 98 97 98 97 96 99 100 100 100 100 100 100 100 100 100 100 100 100 100 100 100 100 100 100 100 100 100 100 100 100 100 99 97 96 97 96 96 96
98 100 99 99 98 99 98 98 99 99 98 98 99 100 100 97 99 97 97 100 99 99 100 99 100 100 100 100 100 100 99 100 100 100 100 100 100 100 100 100 100 100 100 99 100 100 99 96 96 96 96 97 97 96

GFSWCAN_sfc_rhum_072.txt.gz
RH
88 87 88 88 88 86 84 87 86 88 82 80 82 88 90 87 84 81 69 66 58 70 66 56 47 58 55 47 61 49 59 59 67 84 98 74 80 53 43 32 52 62 72 87 68 99 82 34 31 34 28 34 26 30
85 86 87 87 87 89 91 91 87 87 82 80 85 89 90 85 84 72 78 72 55 76 72 71 70 72 91 44 48 56 48 48 50 57 76 57 96 90 51 59 42 60 51 52 49 44 36 32 26 27 29 25 33 31
84 87 88 91 92 89 93 92 91 88 81 80 86 88 88 86 84 76 82 84 77 83 63 72 64 50 56 75 60 58 51 35 48 42 62 69 92 62 94 60 44 46 50 56 51 30 34 37 30 38 30 33 32 35
88 89 88 88 86 84 89 88 84 80 87 84 87 88 88 87 85 72 83 79 69 63 85 59 51 69 54 56 63 60 39 58 46 61 75 89 92 42 55 38 46 35 41 44 39 34 44 42 43 36 35 41 45 43
94 87 81 85 86 86 82 82 87 91 88 88 88 89 89 88 79 74 81 66 50 54 83 66 48 57 73 62 61 60 56 56 70 78 99 80 49 64 62 58 53 40 41 54 55 35 42 28 36 44 43 44 43 44
94 95 95 87 80 81 91 94 91 90 90 90 91 89 88 87 78 76 98 75 56 66 89 100 73 75 73 75 69 62 53 54 62 60 80 53 64 64 96 66 34 31 34 35 37 50 46 55 55 55 49 43 43 42
92 92 92 94 94 93 92 92 92 92 91 90 90 90 89 81 68 67 68 70 69 72 97 100 97 79 79 82 75 67 63 60 64 74 89 71 77 65 99 72 31 38 38 50 55 55 49 50 48 57 54 49 52 43
91 91 91 90 90 91 91 91 91 91 91 91 92 86 77 72 71 71 84 86 69 91 95 100 97 99 97 98 97 71 78 76 85 76 94 86 90 90 89 45 37 44 50 55 55 53 52 56 59 58 53 52 54 53
87 89 90 89 89 90 90 90 89 88 88 88 84 82 80 78 75 76 89 79 80 82 100 100 98 100 97 100 98 98 86 100 93 100 90 75 98 97 65 43 48 51 57 48 54 55 59 58 57 60 57 56 59 61
89 88 87 85 84 83 83 83 83 84 84 82 85 97 100 96 95 91 98 97 96 93 95 100 99 100 96 100 100 99 100 100 100 98 82 98 77 56 56 57 58 52 52 58 66 70 70 66 65 64 60 58 59 58
87 88 88 88 88 86 85 85 85 84 80 76 97 98 85 93 96 97 100 100 100 100 95 88 86 98 98 100 100 100 100 100 100 97 95 98 82 67 68 67 63 61 58 58 58 58 58 63 65 64 68 74 75 73
86 86 87 88 87 86 86 82 75 70 86 94 89 76 94 89 92 99 100 100 99 87 92 94 86 91 100 99 99 100 100 100 100 98 99 98 83 80 81 76 70 65 62 61 59 62 62 62 65 72 76 79 82 86
88 86 85 88 87 87 84 83 88 94 96 86 87 99 86 100 100 100 99 98 97 99 98 100 100 98 96 92 100 100 100 100 99 100 99 97 94 89 84 76 73 64 64 64 65 68 75 80 80 83 90 91 95 94
94 93 93 92 90 91 92 91 91 88 89 95 100 100 100 100 99 98 90 92 95 100 100 100 100 100 100 100 100 100 100 100 100 100 98 99 99 98 93 85 86 91 91 88 88 88 90 91 93 95 97 96 94 93
94 91 90 89 89 90 91 89 86 82 90 100 100 100 100 100 100 100 100 100 99 98 97 98 97 97 100 100 100 100 100 99 96 96 99 98 96 94 94 92 91 93 93 91 88 92 96 94 91 93 94 93 89 93
88 85 92 89 88 88 86 84 84 83 100 100 93 96 97 100 99 99 100 100 99 100 98 97 100 100 100 100 100 99 94 98 97 97 98 94 94 94 92 92 93 94 94 95 94 92 91 93 93 90 84 83 94 94
84 98 91 89 88 88 87 84 86 100 100 100 99 97 97 97 97 98 98 97 99 100 100 100 100 100 99 96 94 92 96 96 96 96 95 94 94 94 94 93 95 94 94 92 89 85 84 69 62 62 74 73 66 73
95 93 88 87 89 88 91 94 99 96 97 94 92 97 93 94 95 94 96 97 100 100 94 95 80 90 94 92 91 93 93 94 93 94 95 94 94 94 93 93 92 91 90 89 82 80 80 80 75 73 66 60 69 77
96 92 90 88 88 94 100 100 93 91 95 95 95 93 93 94 95 94 94 95 92 91 90 91 90 84 88 86 93 94 94 91 92 94 94 96 95 93 92 86 83 82 81 81 78 78 78 77 75 73 74 71 77 78
96 94 94 93 89 99 100 100 95 90 94 95 95 94 94 95 96 97 95 91 78 76 84 86 87 89 89 90 94 92 91 91 86 90 91 91 91 90 92 84 83 82 79 79 80 76 72 74 71 72 74 75 80 80
92 96 93 94 98 98 100 100 100 94 91 91 92 89 93 88 91 89 84 69 82 89 85 87 91 91 93 93 92 86 93 82 88 77 79 86 90 81 82 84 78 75 78 79 81 80 79 78 72 74 86 90 88 86
91 85 96 94 100 99 91 100 99 99 90 94 90 78 87 89 88 88 62 82 84 86 88 88 88 86 85 90 91 90 93 90 89 86 90 83 83 80 80 76 72 82 81 83 78 87 83 76 78 81 85 86 77 82
69 68 79 81 94 97 100 85 96 93 92 93 82 81 86 86 86 57 84 78 85 86 88 86 91 93 90 93 88 91 92 82 85 86 87 84 78 76 73 72 72 82 84 77 70 77 82 73 78 82 80 79 80 81
63 84 88 88 82 91 89 90 78 81 81 81 79 85 85 88 74 78 87 87 89 86 85 91 85 85 84 83 84 86 88 78 78 83 83 76 75 73 66 67 68 69 66 65 72 78 77 84 79 79 80 79 81 80
83 91 85 89 81 85 90 89 87 81 88 82 81 87 88 76 84 84 86 85 88 90 90 89 87 86 86 88 86 87 89 82 80 79 69 61 65 63 64 63 67 67 68 80 83 83 85 82 81 80 78 81 78 78
93 92 86 89 88 86 85 90 91 92 87 87 88 83 82 82 81 88 78 88 91 88 93 92 91 88 87 86 86 85 86 68 62 73 70 61 63 71 76 77 78 82 73 79 79 80 80 79 80 78 79 79 85 80
92 92 76 58 69 73 87 84 71 80 88 90 87 86 78 85 86 79 80 83 82 88 87 87 85 85 86 86 79 76 73 69 72 70 69 69 70 69 76 81 84 84 76 80 82 81 82 82 81 81 81 79 82 86
86 75 90 89 82 72 88 85 87 89 86 76 74 90 86 83 82 80 80 83 87 84 85 86 85 79 76 76 76 78 80 80 80 74 71 71 72 79 81 83 84 89 82 86 84 82 82 82 82 81 82 83 86 87
89 80 73 90 82 83 86 88 87 79 77 77 85 85 84 78 87 83 84 86 88 88 88 88 89 83 81 79 84 82 83 79 67 70 74 82 81 86 83 83 83 83 82 77 79 78 79 82 83 82 82 85 85 83
81 77 82 83 87 90 90 85 88 89 76 76 70 71 74 86 90 88 88 89 90 92 88 86 86 80 82 80 84 86 89 87 85 76 77 83 86 87 86 86 86 88 87 84 82 77 82 80 80 78 79 81 83 83
80 77 80 79 85 86 88 88 81 79 80 82 80 84 86 87 88 89 88 89 86 86 84 87 89 84 81 81 80 80 89 92 90 87 84 86 87 86 87 89 90 89 88 86 85 84 84 83 83 80 81 83 84 86
88 85 85 87 88 87 88 86 82 83 83 82 88 87 88 86 89 88 91 89 84 85 97 83 84 90 88 88 90 93 95 90 88 89 84 84 84 86 86 86 89 87 86 85 85 85 82 81 84 84 84 83 85 87
90 87 86 88 90 90 90 87 82 85 88 87 91 92 92 88 89 89 90 92 91 88 90 90 90 90 90 88 88 92 92 90 95 94 97 96 97 95 86 85 85 86 81 84 84 84 76 75 81 82 82 87 86 87

GFSWCAN_sfc_rhum_075.txt.gz
RH
87 89 90 87 85 85 87 88 86 86 85 84 88 83 86 92 88 91 90 60 54 51 47 39 43 45 48 48 54 40 57 58 68 81 92 59 60 31 28 19 31 69 68 85 70 96 83 27 29 32 29 24 21 21
91 92 87 89 88 88 87 87 88 85 85 85 87 82 89 90 88 86 93 62 55 69 60 60 58 55 41 38 44 48 50 46 43 54 64 55 79 77 37 46 17 51 47 56 45 45 32 30 25 29 22 24 23 24
94 87 89 87 86 87 86 89 86 85 83 87 86 84 88 88 89 84 80 64 68 86 74 54 55 50 56 59 50 78 54 35 40 37 41 49 66 38 81 51 30 23 21 41 40 29 28 28 29 26 24 26 23 27
93 82 84 88 89 94 94 91 85 84 85 86 83 85 88 91 88 80 71 60 63 58 82 53 36 52 38 56 55 62 66 56 42 36 65 68 76 25 48 31 34 26 26 35 33 26 25 30 31 31 26 29 27 28
96 85 82 87 90 93 91 88 88 88 85 84 84 88 89 88 84 85 65 60 46 43 74 54 46 39 46 51 59 57 70 69 71 72 88 76 36 32 34 36 38 23 28 41 48 31 35 30 31 30 32 32 32 32
94 90 87 87 84 87 91 89 88 85 83 83 86 89 91 88 83 70 98 75 44 58 73 93 66 43 42 50 58 56 60 69 70 48 70 44 30 36 81 53 28 20 19 26 30 29 37 42 40 39 38 34 32 33
94 95 94 90 87 89 87 87 84 86 86 87 92 92 88 78 59 69 78 61 58 48 72 86 80 63 42 44 55 61 61 68 76 68 66 54 46 46 82 70 22 20 21 21 26 40 42 37 36 45 43 39 46 35
93 92 92 93 93 93 93 93 88 89 92 93 90 86 80 77 82 75 79 64 59 64 61 96 90 82 68 76 73 56 80 76 78 69 69 68 65 75 70 36 29 23 27 37 39 41 40 43 43 42 41 41 41 40
91 92 91 90 90 91 91 92 92 91 88 86 86 85 88 87 78 86 86 74 56 55 92 100 96 99 98 91 72 76 73 93 62 83 75 66 80 89 53 39 33 31 31 33 37 42 44 46 45 46 46 46 47 47
89 90 90 89 89 89 89 88 89 89 88 80 80 91 100 89 85 79 87 96 79 75 80 98 90 99 91 100 92 96 87 96 100 97 52 85 74 41 49 51 50 47 42 47 54 55 54 52 52 51 49 47 48 47
88 87 88 86 86 87 88 86 83 78 72 59 80 93 78 84 92 97 100 100 100 100 78 70 81 85 96 100 100 99 100 100 100 81 78 71 67 52 57 56 55 51 49 50 50 48 46 51 54 55 57 58 59 63
88 88 87 86 85 84 82 78 78 74 80 88 82 87 92 93 98 96 100 100 97 79 83 86 86 79 98 98 100 100 100 100 98 86 97 86 94 80 68 65 61 56 53 52 51 54 54 56 62 73 78 82 85 88
87 88 88 85 84 81 84 85 90 92 86 72 76 97 96 99 100 100 100 95 96 90 92 98 99 94 98 99 100 100 100 100 96 100 98 99 95 85 78 69 66 58 61 63 66 69 74 81 81 86 91 90 92 93
90 87 86 85 85 86 86 88 91 84 76 90 100 100 100 100 92 83 76 92 99 100 100 93 100 100 100 100 100 100 100 100 100 100 99 99 99 95 88 83 82 85 87 87 88 88 90 90 94 97 97 96 91 92
91 88 89 90 87 83 83 88 92 91 84 100 98 98 99 100 100 100 100 100 99 99 99 98 100 99 100 100 100 100 100 98 96 95 96 97 97 95 94 94 94 94 95 94 94 95 97 96 93 94 94 92 88 94
89 85 90 91 91 88 88 90 80 75 90 94 93 100 92 100 100 98 98 100 98 99 98 96 100 100 100 100 100 99 98 94 94 94 96 94 95 94 94 94 95 95 95 95 94 92 90 91 91 90 87 87 95 94
83 88 91 87 86 84 81 67 72 100 96 100 94 93 95 100 98 97 96 95 97 100 100 100 100 100 94 93 96 88 93 95 94 94 94 94 93 93 93 92 95 94 93 94 88 79 85 84 78 74 82 84 77 74
85 81 87 86 74 76 76 78 86 84 94 88 87 96 91 92 95 95 95 95 99 100 98 94 84 86 96 94 93 93 92 94 92 91 90 92 92 93 90 90 92 86 84 84 77 73 71 72 67 67 66 65 68 70
87 85 93 90 82 87 97 99 83 90 93 91 91 88 88 92 88 90 95 96 96 96 94 89 91 83 89 89 94 94 93 90 87 92 95 99 98 96 95 91 85 81 77 75 74 74 71 69 68 66 66 66 73 73
96 96 94 92 89 98 100 100 86 89 93 92 92 88 86 91 92 94 93 90 87 87 89 90 91 93 91 92 91 89 90 91 84 89 92 92 92 93 92 82 79 72 70 70 69 69 66 68 67 69 74 76 81 82
92 96 94 91 96 96 100 100 97 96 94 92 93 91 94 93 93 93 92 82 86 92 89 92 94 92 95 94 95 95 98 91 90 79 80 88 91 83 84 80 73 69 72 74 78 78 80 79 74 76 85 88 84 79
93 88 98 93 100 98 98 100 98 99 95 94 93 91 93 94 94 94 81 88 89 91 90 90 89 87 86 91 92 92 94 90 90 87 89 81 84 83 82 75 71 80 78 81 76 84 79 70 71 74 79 80 73 75
68 63 76 78 98 100 100 91 100 94 97 94 88 89 91 91 85 53 84 78 84 86 88 84 91 92 89 93 85 91 92 79 82 84 86 85 79 76 71 69 68 78 76 65 60 69 76 68 73 78 75 74 76 76
63 91 98 93 87 98 93 88 72 78 84 87 82 86 82 82 64 72 83 83 86 80 79 90 83 83 82 82 82 84 87 78 78 83 83 75 69 62 56 57 59 61 60 62 68 74 74 79 73 74 75 75 76 76
88 89 85 83 80 84 87 88 86 74 84 76 76 83 86 69 77 75 81 82 86 88 88 84 82 83 83 86 84 84 89 78 76 73 64 56 59 58 59 58 61 61 64 77 79 79 80 78 77 76 75 77 71 71
88 86 82 83 81 81 79 83 83 83 79 78 83 78 78 76 76 84 74 87 90 86 92 91 89 86 85 83 82 82 80 63 60 68 62 54 58 67 72 73 74 78 67 74 76 76 75 74 74 71 72 72 73 71
85 86 71 53 62 68 81 78 67 76 82 84 81 80 75 79 83 78 72 75 77 86 84 84 82 83 84 83 76 70 65 63 66 63 60 61 64 64 72 78 82 75 67 71 75 74 74 74 74 72 73 74 76 77
74 71 90 85 79 68 83 80 81 85 81 71 70 85 82 81 83 80 79 79 82 78 80 82 82 79 74 69 70 73 74 74 74 68 66 67 67 72 75 77 76 80 78 77 76 75 75 74 74 74 74 77 79 76
84 72 69 85 77 78 83 83 82 74 70 74 82 80 80 73 89 83 84 84 86 86 87 88 89 81 78 76 79 75 76 70 67 70 75 81 82 85 76 77 77 75 75 75 72 75 75 78 78 77 74 77 77 75
82 70 77 77 80 85 88 81 86 87 71 72 68 71 73 84 88 85 86 87 88 92 92 90 84 78 80 79 82 84 83 83 82 74 77 82 85 80 78 78 79 79 77 76 75 75 64 73 76 73 74 76 78 77
69 73 75 75 83 84 87 84 80 78 80 82 77 80 80 84 88 88 87 89 90 91 90 89 83 78 78 77 77 79 88 85 82 78 76 79 79 80 80 80 80 79 78 76 76 77 77 76 76 70 72 72 72 77
79 77 78 81 85 80 82 85 81 83 83 83 85 80 82 81 84 85 88 90 88 89 88 77 80 85 80 80 83 86 76 80 80 78 74 77 80 78 77 76 78 78 77 76 77 77 70 69 77 75 76 66 74 78
80 80 78 80 84 80 83 80 70 79 78 79 84 83 86 85 85 87 84 87 90 84 84 83 82 83 82 79 79 83 75 84 88 85 85 89 90 86 80 78 77 78 70 77 76 76 66 59 74 73 72 77 78 78